Date StartTime U_cm/s V_cm/s W_cm/s Ustd_cm/s Vstd_cm/s Wstd_cm/s Uvar_(cm/s)^2 Vvar_(cm/s)^2 Wvar_(cm/s)^2 KE_(m/s)^2 TurbulentKE_(m/s)^2 HorizWindSpeed_cm/s FrictionSpeec_cm/s DragCoef SpeedOfSound_m/s SonicTemperature_C Pressure_mb 
11/05/2013  00:00:00      -93.059      -29.101      -12.078       16.477       15.799       16.618      271.486      249.612      276.160        0.522        0.040       97.503        8.120        0.007      331.828        0.094      865.194
11/05/2013  00:01:00      -93.645      -35.707       -6.767       19.683       13.405       13.297      387.402      179.684      176.801        0.542        0.037      100.221       12.038        0.014      331.710       -0.099      865.216
11/05/2013  00:02:00      -93.688      -27.625       -8.211       13.739       14.812       10.847      188.755      219.399      117.658        0.507        0.026       97.676        5.061        0.003      331.755       -0.023      865.210
11/05/2013  00:03:00      -79.660      -27.632       -9.292       12.600       16.193       10.958      158.756      262.223      120.073        0.387        0.027       84.316        9.031        0.011      331.795        0.040      865.207
11/05/2013  00:04:00      -93.463      -37.597      -14.716       10.994        8.211        7.407      120.868       67.425       54.868        0.530        0.012      100.742        4.645        0.002      331.802        0.052      865.191
11/05/2013  00:05:00      -84.463       -9.687      -13.589       11.463        9.041        7.056      131.411       81.746       49.794        0.384        0.013       85.017        4.154        0.002      331.858        0.143      865.166
11/05/2013  00:06:00      -68.572      -16.679      -10.409       10.840       11.714        9.938      117.503      137.222       98.756        0.272        0.018       70.572        3.765        0.003      331.912        0.233      865.142
11/05/2013  00:07:00      -83.677      -19.813      -11.050       15.745       10.634       10.134      247.905      113.075      102.703        0.399        0.023       85.991        8.189        0.009      332.033        0.433      865.130
11/05/2013  00:08:00      -68.004      -28.774        0.201       20.172       15.411       12.613      406.919      237.506      159.081        0.313        0.040       73.841       12.960        0.031      331.982        0.348      865.131
11/05/2013  00:09:00       -7.312       -9.057       11.337       29.479       21.026       19.287      869.032      442.092      371.975        0.097        0.084       11.640       16.497        2.009      331.946        0.288      865.141
11/05/2013  00:10:00      -59.229      -42.936       -7.063       33.183       24.028       13.817     1101.109      577.352      190.917        0.364        0.093       73.155       11.520        0.025      331.829        0.096      865.144
11/05/2013  00:11:00      -80.145      -53.115       -0.217       19.971       14.752       17.015      398.827      217.618      289.495        0.508        0.045       96.148       10.115        0.011      331.864        0.155      865.129
11/05/2013  00:12:00      -91.125      -45.823       -9.777       36.435       21.700       15.841     1327.520      470.883      250.930        0.627        0.102      101.997       18.836        0.034      331.934        0.268      865.125
11/05/2013  00:13:00      -34.147      -40.087       13.078       45.771       24.223       23.014     2094.973      586.767      529.649        0.308        0.161       52.659       23.559        0.200      331.943        0.284      865.115
11/05/2013  00:14:00      -56.088      -66.138       -2.348       24.085       20.838       16.892      580.111      434.243      285.324        0.441        0.065       86.719        9.999        0.013      331.941        0.279      865.101
11/05/2013  00:15:00      -58.200      -35.651        1.779       34.944       21.006       14.624     1221.075      441.234      213.867        0.327        0.094       68.252        6.803        0.010      331.908        0.227      865.078
11/05/2013  00:16:00      -53.007      -22.478       -2.396       23.978       18.991       13.215      574.962      360.648      174.648        0.222        0.056       57.576        6.460        0.013      331.874        0.172      865.041
11/05/2013  00:17:00      -66.384      -32.165       -7.588       16.479       13.659        9.470      271.557      186.567       89.684        0.302        0.027       73.766        8.716        0.014      331.889        0.194      865.001
11/05/2013  00:18:00      -76.042      -17.258       -3.210       11.147       17.739       13.968      124.254      314.656      195.108        0.336        0.032       77.976        9.145        0.014      331.859        0.147      864.973
11/05/2013  00:19:00      -75.317      -24.818       -3.913       19.886       16.542       14.266      395.449      273.651      203.520        0.359        0.044       79.300       11.339        0.020      331.883        0.186      864.963
11/05/2013  00:20:00      -77.067      -14.426      -14.451       11.905       16.639        8.607      141.724      276.841       74.073        0.342        0.025       78.406        6.540        0.007      331.873        0.169      864.973
11/05/2013  00:21:00      -67.553       -9.090      -12.205       10.894       10.314        8.132      118.679      106.372       66.131        0.254        0.015       68.162        1.101        0.000      331.896        0.205      864.990
11/05/2013  00:22:00      -75.208      -20.333       -7.800        8.985       14.442        6.619       80.723      208.567       43.818        0.323        0.017       77.908        1.403        0.000      331.869        0.163      865.011
11/05/2013  00:23:00      -35.349      -20.994        1.865       32.615       13.954       11.173     1063.707      194.725      124.842        0.154        0.069       41.113       14.877        0.131      331.840        0.114      865.023
11/05/2013  00:24:00      -52.290      -23.573       -0.538       14.653       10.997       12.898      214.702      120.943      166.359        0.190        0.025       57.358       10.555        0.034      331.866        0.157      865.019
11/05/2013  00:25:00      -81.225      -19.068      -14.980       13.459       12.809        9.943      181.141      164.063       98.863        0.381        0.022       83.433        5.025        0.004      331.914        0.235      864.991
11/05/2013  00:26:00      -63.865      -29.990        5.553       26.492       17.011       15.556      701.817      289.372      241.981        0.312        0.062       70.555       14.990        0.045      331.868        0.161      864.967
11/05/2013  00:27:00      -90.802      -32.993       -5.535       18.101       17.158       10.727      327.659      294.383      115.060        0.505        0.037       96.610        8.953        0.009      331.799        0.047      864.953
11/05/2013  00:28:00      -67.907      -27.330       -0.124       25.816       13.693       12.257      666.477      187.495      150.245        0.318        0.050       73.201       10.881        0.022      331.746       -0.041      864.954
11/05/2013  00:29:00      -87.110      -31.943      -11.736        9.863       15.721        8.530       97.283      247.143       72.763        0.458        0.021       92.782        4.977        0.003      331.777        0.011      864.955
11/05/2013  00:30:00      -76.526      -17.431       -2.440       16.974       20.326       14.519      288.121      413.150      210.815        0.354        0.046       78.486        3.386        0.002      331.703       -0.111      864.964
11/05/2013  00:31:00      -54.839      -21.853        0.423       34.869       16.268       16.915     1215.856      264.643      286.123        0.263        0.088       59.033       18.896        0.102      331.687       -0.137      864.985
11/05/2013  00:32:00      -66.727      -28.004      -11.220       10.923       10.036        7.460      119.315      100.725       55.653        0.282        0.014       72.366        2.926        0.002      331.679       -0.150      864.990
11/05/2013  00:33:00      -82.141      -16.689       -6.892       16.561       13.229        8.856      274.261      175.007       78.436        0.380        0.026       83.819        7.579        0.008      331.760       -0.018      864.992
11/05/2013  00:34:00      -90.568      -14.185       -9.978       17.674       12.836       12.119      312.377      164.761      146.866        0.456        0.031       91.672        8.123        0.008      331.712       -0.095      864.983
11/05/2013  00:35:00     -102.077      -31.926       -8.362       25.415       10.777       10.121      645.919      116.138      102.430        0.619        0.043      106.953       11.002        0.011      331.728       -0.067      864.956
11/05/2013  00:36:00      -81.627      -31.356       -7.014       19.173       17.784       10.111      367.615      316.286      102.233        0.424        0.039       87.442        3.708        0.002      331.737       -0.054      864.935
11/05/2013  00:37:00      -73.638      -14.907       -3.948       20.260       18.211       14.149      410.481      331.627      200.206        0.330        0.047       75.132        8.390        0.012      331.687       -0.136      864.916
11/05/2013  00:38:00      -89.610      -12.079       -8.024       22.506       16.007       11.660      506.539      256.221      135.944        0.457        0.045       90.420       12.491        0.019      331.636       -0.220      864.922
11/05/2013  00:39:00     -102.993      -13.011      -14.462       17.160       12.013       10.780      294.460      144.307      116.199        0.577        0.028      103.812        7.105        0.005      331.703       -0.110      864.928
11/05/2013  00:40:00     -100.312      -21.712      -11.939       17.590       12.694       11.971      309.405      161.131      143.305        0.565        0.031      102.635        7.046        0.005      331.657       -0.186      864.932
11/05/2013  00:41:00      -88.885      -21.052       -6.731       15.440       11.358       11.132      238.403      129.012      123.928        0.444        0.025       91.344        9.140        0.010      331.586       -0.305      864.932
11/05/2013  00:42:00      -86.745      -28.459      -14.600       11.406        8.873        8.365      130.102       78.732       69.965        0.441        0.014       91.295        4.877        0.003      331.654       -0.190      864.931
11/05/2013  00:43:00      -68.001      -30.745      -18.728       14.681       12.742       10.789      215.532      162.347      116.407        0.321        0.025       74.628        8.253        0.012      331.667       -0.172      864.913
11/05/2013  00:44:00      -68.593      -24.795      -15.137        8.543       11.605       10.027       72.988      134.669      100.532        0.293        0.015       72.937        8.511        0.014      331.533       -0.390      864.899
11/05/2013  00:45:00      -82.427      -15.601      -11.605        9.071       11.574        7.229       82.290      133.962       52.264        0.372        0.013       83.890        4.981        0.004      331.588       -0.301      864.891
11/05/2013  00:46:00      -84.804      -15.098      -11.680       17.028       12.570       11.777      289.966      158.013      138.696        0.407        0.029       86.138       10.274        0.014      331.587       -0.300      864.872
11/05/2013  00:47:00      -96.944      -20.141      -10.219       17.417       14.608       11.738      303.358      213.380      137.774        0.528        0.033       99.014        5.152        0.003      331.540       -0.380      864.864
11/05/2013  00:48:00     -113.577       -3.494      -16.077       16.401       14.733       12.280      268.990      217.051      150.805        0.690        0.032      113.631       10.119        0.008      331.482       -0.474      864.859
11/05/2013  00:49:00      -84.088      -18.130      -14.929       24.956       21.331       13.198      622.825      455.013      174.200        0.444        0.063       86.021        9.150        0.011      331.497       -0.451      864.860
11/05/2013  00:50:00     -112.614        3.081      -15.857       26.400       21.311       14.863      696.976      454.177      220.915        0.716        0.069      112.657       10.958        0.009      331.431       -0.559      864.862
11/05/2013  00:51:00      -80.309      -13.139       -9.815       23.486       17.804       14.715      551.587      316.986      216.525        0.390        0.054       81.377       13.232        0.026      331.416       -0.583      864.853
11/05/2013  00:52:00      -62.844      -22.274       -9.559       15.533       15.461       12.156      241.279      239.038      147.769        0.258        0.031       66.675        4.854        0.005      331.480       -0.478      864.828
11/05/2013  00:53:00      -57.008      -20.828      -10.735       12.848       17.995       10.169      165.071      323.832      103.410        0.220        0.030       60.694        3.515        0.003      331.509       -0.430      864.796
11/05/2013  00:54:00      -72.103      -22.622       -8.167       17.461       22.815       13.363      304.874      520.512      178.572        0.339        0.050       75.568       12.402        0.027      331.480       -0.478      864.756
11/05/2013  00:55:00      -46.063      -27.808      -10.555       30.470       21.037       13.199      928.446      442.561      174.216        0.228        0.077       53.806        9.628        0.032      331.546       -0.367      864.733
11/05/2013  00:56:00      -54.595      -24.315      -18.188       21.612       14.972        9.632      467.084      224.170       92.785        0.234        0.039       59.765        7.978        0.018      331.492       -0.458      864.729
11/05/2013  00:57:00      -76.062      -19.802      -11.805       28.739       19.941       11.107      825.946      397.645      123.366        0.383        0.067       78.598        8.052        0.010      331.587       -0.302      864.728
11/05/2013  00:58:00      -86.753      -17.813      -12.966       11.389       14.874        9.518      129.712      221.240       90.585        0.423        0.022       88.563        5.376        0.004      331.478       -0.482      864.732
11/05/2013  00:59:00      -75.184      -22.202      -17.641       13.505       16.505        9.159      182.381      272.409       83.888        0.350        0.027       78.393        5.362        0.005      331.502       -0.442      864.727
11/05/2013  01:00:00      -70.365      -23.184      -15.798       18.980       15.286       11.591      360.241      233.669      134.348        0.323        0.036       74.086        8.778        0.014      331.498       -0.449      864.718
11/05/2013  01:01:00      -80.679      -27.165      -16.228       23.067       16.434       14.010      532.095      270.090      196.269        0.425        0.050       85.130       12.132        0.020      331.493       -0.458      864.682
11/05/2013  01:02:00      -80.181      -36.133      -15.956       14.937       16.585       13.803      223.114      275.051      190.527        0.434        0.034       87.946       10.688        0.015      331.554       -0.357      864.655
11/05/2013  01:03:00      -73.515      -33.854      -13.751       14.333       16.472       11.465      205.439      271.324      131.446        0.367        0.030       80.936        7.648        0.009      331.510       -0.430      864.647
11/05/2013  01:04:00      -61.577      -39.695      -10.067       18.163       20.217       15.978      329.911      408.722      255.298        0.323        0.050       73.262       10.121        0.019      331.577       -0.319      864.651
11/05/2013  01:05:00      -59.140      -29.460      -10.483       13.304       13.369       12.192      176.990      178.727      148.645        0.249        0.025       66.071        5.322        0.006      331.590       -0.298      864.663
11/05/2013  01:06:00      -59.689      -22.762      -13.124       21.633       22.928       10.460      468.006      525.693      109.414        0.268        0.055       63.882        6.417        0.010      331.613       -0.259      864.675
11/05/2013  01:07:00      -66.870      -27.419      -16.448       18.684       13.719       12.432      349.087      188.223      154.551        0.309        0.035       72.273       10.283        0.020      331.556       -0.354      864.692
11/05/2013  01:08:00      -58.620      -31.715      -11.301       30.906       26.930       18.362      955.178      725.198      337.173        0.329        0.101       66.649       14.155        0.045      331.545       -0.371      864.697
11/05/2013  01:09:00      -78.405      -60.306      -11.490       25.180       19.238       17.962      634.008      370.086      322.645        0.562        0.066       98.915       11.486        0.013      331.447       -0.533      864.691
11/05/2013  01:10:00      -53.517      -47.078        5.623       38.464       24.533       21.838     1479.452      601.855      476.909        0.383        0.128       71.277       24.970        0.123      331.392       -0.623      864.686
11/05/2013  01:11:00      -79.697      -34.817      -16.410       30.340       14.689       10.347      920.534      215.777      107.053        0.454        0.062       86.970       11.361        0.017      331.477       -0.484      864.698
11/05/2013  01:12:00      -50.205      -24.595       -2.074       24.138       13.768       13.410      582.656      189.566      179.834        0.204        0.048       55.906       12.612        0.051      331.543       -0.374      864.718
11/05/2013  01:13:00      -83.597      -16.720       -9.686       24.557       21.239       18.618      603.035      451.106      346.639        0.438        0.070       85.252       17.510        0.042      331.550       -0.362      864.727
11/05/2013  01:14:00     -103.334      -24.798      -11.441       19.536       20.398       13.350      381.650      416.081      178.228        0.620        0.049      106.268       10.842        0.010      331.551       -0.361      864.732
11/05/2013  01:15:00      -77.642       -2.407       -6.539       22.913       23.929       16.372      524.994      572.584      268.040        0.372        0.068       77.679       12.989        0.028      331.501       -0.445      864.742
11/05/2013  01:16:00      -72.584        5.357      -16.672       14.511       11.041        9.880      210.558      121.896       97.620        0.300        0.022       72.781        6.476        0.008      331.600       -0.280      864.757
11/05/2013  01:17:00      -65.084      -12.167      -12.968        9.776       11.983        9.815       95.572      143.581       96.333        0.244        0.017       66.211        6.479        0.010      331.661       -0.178      864.753
11/05/2013  01:18:00      -70.450      -20.912      -15.238       12.144       12.661        9.339      147.482      160.292       87.221        0.301        0.020       73.489        6.721        0.008      331.586       -0.304      864.746
11/05/2013  01:19:00      -70.795       -9.975      -15.782       22.788       17.539       11.449      519.282      307.629      131.085        0.316        0.048       71.494        7.767        0.012      331.601       -0.279      864.735
11/05/2013  01:20:00      -66.366      -31.811      -11.252       22.825       13.565       13.734      521.000      184.007      188.634        0.322        0.045       73.596       12.202        0.027      331.568       -0.333      864.732
11/05/2013  01:21:00      -89.894      -32.736      -18.752       28.846       20.860       18.711      832.109      435.126      350.099        0.556        0.081       95.669       11.429        0.014      331.581       -0.312      864.739
11/05/2013  01:22:00      -43.075      -21.035       -8.670       29.276       24.668       18.795      857.072      608.494      353.237        0.210        0.091       47.937       16.067        0.112      331.535       -0.388      864.767
11/05/2013  01:23:00      -50.742      -11.455      -11.415       18.091       12.918        9.751      327.286      166.883       95.078        0.171        0.029       52.019        6.491        0.016      331.553       -0.359      864.790
11/05/2013  01:24:00      -79.530       21.070      -19.677       20.075       27.369       14.683      403.010      749.075      215.582        0.426        0.068       82.274       10.846        0.017      331.672       -0.163      864.801
11/05/2013  01:25:00      -62.005       17.539      -10.431       20.649       17.630       13.418      426.371      310.805      180.054        0.259        0.046       64.438        6.720        0.011      331.775        0.007      864.793
11/05/2013  01:26:00      -36.005       13.697       -5.744       19.399       17.859       13.594      376.309      318.942      184.788        0.120        0.044       38.522       12.552        0.106      331.889        0.195      864.781
11/05/2013  01:27:00      -18.532       59.097       -1.376       34.761       40.507       17.733     1208.357     1640.802      314.474        0.350        0.158       61.935       14.507        0.055      332.232        0.760      864.771
11/05/2013  01:28:00      -16.853       77.616        0.266       27.084       24.999       19.567      733.555      624.974      382.857        0.402        0.087       79.425       14.368        0.033      332.373        0.993      864.760
11/05/2013  01:29:00      -43.715       49.898       -8.549       25.325       37.698       15.533      641.348     1421.114      241.276        0.339        0.115       66.338       17.620        0.071      332.261        0.809      864.742
11/05/2013  01:30:00      -35.503       25.143       -8.968       20.441       32.118       10.916      417.839     1031.579      119.159        0.177        0.078       43.504       11.270        0.067      332.004        0.384      864.726
11/05/2013  01:31:00      -35.458       16.194       -5.767       13.726       16.857       11.590      188.400      284.165      134.326        0.108        0.030       38.981        8.053        0.043      332.062        0.481      864.718
11/05/2013  01:32:00      -11.573        0.709       -1.240       19.194       20.819       14.042      368.407      433.416      197.165        0.057        0.050       11.594       11.014        0.902      331.957        0.308      864.725
11/05/2013  01:33:00      -34.232        8.788       -3.197       20.408       28.710       13.585      416.468      824.236      184.541        0.134        0.071       35.342       14.906        0.178      332.036        0.437      864.735
11/05/2013  01:34:00      -70.698       -8.766      -11.667       20.368       13.716        9.104      414.858      188.130       82.879        0.295        0.034       71.239        8.780        0.015      331.590       -0.297      864.748
11/05/2013  01:35:00      -56.158       -7.276       -4.273       19.171       13.318       11.747      367.512      177.356      137.984        0.195        0.034       56.627       12.027        0.045      331.604       -0.274      864.750
11/05/2013  01:36:00      -35.511        2.900       -3.503       23.519       17.303       11.049      553.153      299.379      122.076        0.113        0.049       35.630       10.980        0.095      331.791        0.035      864.744
11/05/2013  01:37:00       -9.851       11.137        4.333       19.388       24.885       12.201      375.906      619.265      148.872        0.069        0.057       14.869        9.498        0.408      332.227        0.753      864.730
11/05/2013  01:38:00      -11.087       15.842       -5.170       21.587       20.728       13.071      466.000      429.646      170.856        0.073        0.053       19.336        8.063        0.174      332.247        0.786      864.715
11/05/2013  01:39:00       10.334       40.794       -6.496       13.773       14.819        8.478      189.696      219.605       71.871        0.115        0.024       42.082        6.471        0.024      332.498        1.199      864.733
11/05/2013  01:40:00        6.126       63.301       -0.212       16.401       13.435       13.182      268.977      180.506      173.764        0.233        0.031       63.597        8.830        0.019      332.467        1.147      864.742
11/05/2013  01:41:00       14.864        6.848       -1.288       13.515       14.919        7.354      182.657      222.579       54.076        0.036        0.023       16.366        7.530        0.212      332.428        1.085      864.752
11/05/2013  01:42:00       17.502       -9.519       -0.611       10.081        8.773        5.900      101.618       76.963       34.816        0.031        0.011       19.923        3.535        0.031      332.467        1.148      864.768
11/05/2013  01:43:00       11.998       -9.740        3.840        7.179       12.390        5.752       51.541      153.510       33.087        0.025        0.012       15.454        3.915        0.064      332.387        1.018      864.787
11/05/2013  01:44:00       19.627      -10.190        0.443       11.855       11.963        9.229      140.534      143.105       85.168        0.043        0.018       22.115        5.188        0.055      332.493        1.191      864.805
11/05/2013  01:45:00      -10.702        5.607        8.459       10.856        9.089        7.049      117.861       82.609       49.683        0.023        0.013       12.082        5.478        0.206      332.168        0.656      864.813
11/05/2013  01:46:00      -30.743      -17.958       -2.354       10.922        9.497        5.692      119.296       90.184       32.394        0.076        0.012       35.603        5.748        0.026      331.992        0.366      864.811
11/05/2013  01:47:00       -8.309      -15.791       -0.134       14.256       16.227       12.046      203.219      263.300      145.115        0.046        0.031       17.843        9.677        0.294      332.270        0.824      864.812
11/05/2013  01:48:00      -64.308      -11.218      -10.361       16.114       13.317       13.681      259.657      177.339      187.170        0.250        0.031       65.279        4.371        0.004      331.905        0.220      864.812
11/05/2013  01:49:00      -58.520      -34.578       -5.573       10.569       14.107       10.073      111.707      198.994      101.459        0.253        0.021       67.972        6.014        0.008      331.719       -0.082      864.815
11/05/2013  01:50:00      -79.586      -35.530      -10.760       13.902       14.504       12.712      193.272      210.364      161.596        0.414        0.028       87.157       10.156        0.014      331.784        0.023      864.820
11/05/2013  01:51:00      -85.104      -40.548      -11.825       11.966       12.655       15.901      143.176      160.139      252.844        0.479        0.028       94.270        9.316        0.010      331.905        0.221      864.836
11/05/2013  01:52:00      -84.009      -49.632       -9.948       30.982       21.781       15.079      959.884      474.432      227.390        0.564        0.083       97.575       17.369        0.032      331.746       -0.041      864.849
11/05/2013  01:53:00      -92.652      -56.222       -8.392       19.575       16.115       13.689      383.161      259.703      187.387        0.632        0.042      108.376        8.478        0.006      331.652       -0.192      864.869
11/05/2013  01:54:00      -92.473      -62.850      -12.094       17.110       19.065        9.370      292.759      363.491       87.800        0.670        0.037      111.809        6.931        0.004      331.671       -0.162      864.891
11/05/2013  01:55:00      -69.708      -42.183        0.738       37.842       23.139       23.091     1432.049      535.416      533.202        0.457        0.125       81.478       20.498        0.063      331.603       -0.276      864.893
11/05/2013  01:56:00     -114.407      -36.805       -7.564       27.903       21.349       14.672      778.565      455.800      215.262        0.797        0.072      120.181        8.815        0.005      331.596       -0.287      864.888
11/05/2013  01:57:00     -104.842      -52.003       -5.913       36.169       28.391       17.382     1308.190      806.063      302.133        0.807        0.121      117.031       11.800        0.010      331.498       -0.448      864.879
11/05/2013  01:58:00      -99.682      -15.663      -12.127       18.617       21.316       14.333      346.606      454.351      205.449        0.567        0.050      100.905        8.446        0.007      331.411       -0.591      864.874
11/05/2013  01:59:00      -76.472      -49.615       -5.444       14.399       12.807       11.058      207.337      164.023      122.289        0.442        0.025       91.157        4.682        0.003      331.465       -0.503      864.868
11/05/2013  02:00:00      -66.774      -36.856        0.701       43.821       23.106       22.730     1920.313      533.886      516.673        0.439        0.149       76.270       26.910        0.124      331.442       -0.541      864.861
11/05/2013  02:01:00      -76.186      -51.393       -0.297       34.611       22.193       17.709     1197.918      492.517      313.598        0.522        0.100       91.900       12.008        0.017      331.487       -0.467      864.875
11/05/2013  02:02:00      -27.200      -28.510        6.758       36.768       24.134       13.678     1351.915      582.450      187.084        0.186        0.106       39.404       17.536        0.198      331.509       -0.430      864.887
11/05/2013  02:03:00      -77.975      -22.301       -8.528       18.069       14.815       12.365      326.506      219.477      152.895        0.367        0.035       81.101       11.701        0.021      331.498       -0.448      864.892
11/05/2013  02:04:00      -74.781      -32.891       -2.482       40.680       14.504       12.228     1654.858      210.363      149.529        0.435        0.101       81.694       16.581        0.041      331.467       -0.500      864.890
11/05/2013  02:05:00      -52.361      -31.626       -1.107       26.187       20.229       17.518      685.749      409.195      306.894        0.257        0.070       61.171        9.769        0.026      331.442       -0.540      864.881
11/05/2013  02:06:00       -4.319      -26.927       16.609       28.893       21.035       17.918      834.802      442.491      321.072        0.131        0.080       27.271       13.519        0.246      331.485       -0.470      864.884
11/05/2013  02:07:00      -45.176      -29.819        4.454       36.598       21.933       12.813     1339.434      481.062      164.162        0.247        0.099       54.130       10.598        0.038      331.441       -0.541      864.896
11/05/2013  02:08:00      -83.491      -42.024        1.951       28.601       14.970       14.588      818.021      224.088      212.819        0.500        0.063       93.471       14.001        0.022      331.424       -0.571      864.932
11/05/2013  02:09:00      -86.290      -42.985       -4.110       13.436       17.045       10.597      180.527      290.532      112.300        0.495        0.029       96.404        5.483        0.003      331.429       -0.563      864.966
11/05/2013  02:10:00      -47.833      -39.104       11.012       41.890       29.404       19.211     1754.738      864.610      369.065        0.346        0.149       61.783       22.389        0.131      331.316       -0.748      864.980
11/05/2013  02:11:00     -110.774      -92.346       -3.541       58.834       37.917       32.683     3461.460     1437.712     1068.158        1.339        0.298      144.217       30.643        0.045      331.320       -0.740      864.977
11/05/2013  02:12:00     -109.936     -125.568       -6.227       40.483       36.076       27.604     1638.912     1301.482      761.981        1.580        0.185      166.893       20.829        0.016      331.301       -0.773      864.982
11/05/2013  02:13:00     -116.923     -109.811       -8.420       52.055       44.200       25.634     2709.713     1953.680      657.112        1.556        0.266      160.404       20.541        0.016      331.277       -0.812      864.992
11/05/2013  02:14:00     -136.394     -126.081       -7.821       78.804       61.057       52.471     6209.997     3727.994     2753.247        2.362        0.635      185.741       29.599        0.025      331.174       -0.983      865.008
11/05/2013  02:15:00     -148.323     -106.207      -18.861       48.365       48.495       33.520     2339.207     2351.805     1123.588        1.972        0.291      182.427       26.087        0.020      331.139       -1.041      865.027
11/05/2013  02:16:00     -143.790     -107.700       -1.555       35.168       36.478       24.776     1236.762     1330.636      613.874        1.773        0.159      179.652       22.143        0.015      331.190       -0.955      865.045
11/05/2013  02:17:00     -112.074      -72.663        5.618       39.712       26.246       21.290     1577.040      688.861      453.275        1.030        0.136      133.569       12.889        0.009      331.284       -0.800      865.046
11/05/2013  02:18:00      -74.357      -60.817        0.123       37.542       29.745       27.443     1409.424      884.795      753.133        0.614        0.152       96.061       23.636        0.061      331.383       -0.638      865.045
11/05/2013  02:19:00      -42.107      -96.572       -2.085       58.817       61.531       38.466     3459.474     3786.004     1479.611        0.991        0.436      105.352       37.635        0.128      331.227       -0.895      865.032
11/05/2013  02:20:00     -106.593      -73.929        3.059       70.552       45.709       39.678     4977.650     2089.273     1574.354        1.274        0.432      129.721       41.133        0.101      331.354       -0.686      865.028
11/05/2013  02:21:00      -72.996      -53.878        5.747       50.570       41.703       29.131     2557.290     1739.162      848.604        0.670        0.257       90.726       31.654        0.122      331.310       -0.757      865.026
11/05/2013  02:22:00     -107.367      -62.779       -8.659       27.964       25.774       20.799      781.978      664.322      432.616        0.871        0.094      124.374       16.136        0.017      331.293       -0.784      865.016
11/05/2013  02:23:00     -113.777      -61.000       -7.685       30.234       19.188       16.273      914.070      368.188      264.824        0.914        0.077      129.098       18.288        0.020      331.291       -0.787      865.017
11/05/2013  02:24:00     -104.397      -50.677       -7.073       22.631       21.493       14.770      512.177      461.957      218.161        0.735        0.060      116.047       12.075        0.011      331.297       -0.778      865.025
11/05/2013  02:25:00      -95.183       -7.545       -1.670       30.662       24.236       17.279      940.176      587.389      298.547        0.547        0.091       95.481       15.738        0.027      331.298       -0.776      865.045
11/05/2013  02:26:00     -111.848      -12.566      -15.746       22.954       24.118       14.668      526.878      581.702      215.152        0.712        0.066      112.551       11.102        0.010      331.235       -0.882      865.070
11/05/2013  02:27:00     -104.773      -33.631       -3.848       23.250       23.248       17.990      540.556      540.479      323.634        0.676        0.070      110.038       15.052        0.019      331.193       -0.950      865.097
11/05/2013  02:28:00      -95.165      -26.620       -8.999       34.144       17.205       17.212     1165.804      296.014      296.268        0.580        0.088       98.818       19.183        0.038      331.182       -0.968      865.118
11/05/2013  02:29:00     -106.453      -30.750       -4.981       27.925       19.067       14.352      779.778      363.558      205.993        0.683        0.067      110.805       14.592        0.017      331.262       -0.836      865.126
11/05/2013  02:30:00     -114.416      -44.440       -8.067       16.241       16.049       10.886      263.759      257.566      118.505        0.789        0.032      122.743        8.211        0.004      331.274       -0.816      865.111
11/05/2013  02:31:00     -106.471      -55.860      -15.574        9.943       13.515       11.161       98.870      182.660      124.562        0.755        0.020      120.235        8.031        0.004      331.309       -0.758      865.102
11/05/2013  02:32:00      -77.990      -48.168      -18.902       15.295       17.965        9.081      233.939      322.735       82.466        0.470        0.032       91.666        5.339        0.003      331.314       -0.750      865.090
11/05/2013  02:33:00      -80.933      -42.884       -7.956       13.858       11.938        8.628      192.037      142.514       74.449        0.443        0.020       91.592        4.255        0.002      331.297       -0.780      865.064
11/05/2013  02:34:00      -91.318      -20.423      -12.319        8.379       10.775        8.254       70.208      116.109       68.126        0.458        0.013       93.574        5.501        0.003      331.416       -0.583      865.044
11/05/2013  02:35:00     -100.765      -26.348      -15.510       10.674       10.245        9.151      113.935      104.954       83.742        0.570        0.015      104.152        3.448        0.001      331.515       -0.422      865.029
11/05/2013  02:36:00      -92.440      -26.748      -16.434       12.230        8.962        9.672      149.574       80.313       93.551        0.493        0.016       96.232        8.353        0.008      331.430       -0.560      865.018
11/05/2013  02:37:00      -88.793      -18.292       -4.415       13.978       10.748        8.703      195.390      115.518       75.738        0.431        0.019       90.658        7.062        0.006      331.434       -0.554      865.019
11/05/2013  02:38:00      -92.746      -15.344       -8.842       13.856       14.173        8.995      191.999      200.884       80.911        0.469        0.024       94.006        7.418        0.006      331.436       -0.551      865.034
11/05/2013  02:39:00      -81.317      -18.252       -5.990       19.980       14.565       11.723      399.198      212.143      137.422        0.386        0.037       83.340       10.741        0.017      331.428       -0.565      865.061
11/05/2013  02:40:00      -87.230      -16.372       -9.699        9.220        9.118        7.130       85.003       83.136       50.844        0.410        0.011       88.753        5.500        0.004      331.413       -0.588      865.074
11/05/2013  02:41:00      -88.563      -11.250      -12.855       12.231       12.134       10.510      149.599      147.238      110.459        0.427        0.020       89.274        6.537        0.005      331.380       -0.642      865.083
11/05/2013  02:42:00      -99.802        0.858      -15.648       10.495        9.954        8.865      110.153       99.076       78.582        0.525        0.014       99.806        3.966        0.002      331.356       -0.681      865.086
11/05/2013  02:43:00      -89.146       -3.995      -17.084       12.900       11.282       10.522      166.401      127.279      110.711        0.433        0.020       89.235        5.267        0.003      331.299       -0.774      865.097
11/05/2013  02:44:00      -66.190      -22.619      -13.598       11.504       16.542       11.572      132.346      273.640      133.922        0.281        0.027       69.948        6.365        0.008      331.333       -0.720      865.093
11/05/2013  02:45:00      -70.247      -29.589       -2.808       19.914       18.959       10.976      396.561      359.438      120.476        0.335        0.044       76.224        7.546        0.010      331.245       -0.864      865.093
11/05/2013  02:46:00     -100.563      -35.685      -10.791       24.207       19.314       14.018      585.982      373.050      196.504        0.633        0.058      106.706       13.142        0.015      331.197       -0.944      865.101
11/05/2013  02:47:00      -98.328      -38.870      -16.474       16.739       16.946       10.207      280.206      287.183      104.193        0.606        0.034      105.732        9.172        0.008      331.226       -0.896      865.118
11/05/2013  02:48:00     -105.447      -29.015       -9.196       14.378       14.165       10.405      206.719      200.635      108.256        0.628        0.026      109.366        7.515        0.005      331.297       -0.780      865.152
11/05/2013  02:49:00      -99.319      -11.378      -15.570       13.251       15.755       12.688      175.579      248.217      160.987        0.541        0.029       99.968        9.528        0.009      331.344       -0.702      865.181
11/05/2013  02:50:00      -99.221      -17.538      -13.945       18.952       14.217       10.342      359.168      202.132      106.952        0.551        0.033      100.759        9.497        0.009      331.286       -0.796      865.206
11/05/2013  02:51:00     -118.510      -18.972      -11.986       20.726       17.034       13.543      429.558      290.169      183.406        0.773        0.045      120.019        9.880        0.007      331.279       -0.808      865.229
11/05/2013  02:52:00     -107.343      -37.518      -10.312       19.947       14.629       10.352      397.866      213.998      107.171        0.688        0.036      113.711       10.111        0.008      331.322       -0.738      865.249
11/05/2013  02:53:00      -84.099      -42.617       -2.921       15.066       14.837        9.336      226.985      220.135       87.161        0.472        0.027       94.280        7.082        0.006      331.341       -0.706      865.263
11/05/2013  02:54:00      -81.935      -42.403       -5.166       19.347       14.573       10.188      374.302      212.377      103.793        0.461        0.035       92.257       11.097        0.014      331.358       -0.678      865.277
11/05/2013  02:55:00      -94.520      -23.533      -10.822       11.502       13.068        8.643      132.287      170.785       74.695        0.499        0.019       97.405        5.419        0.003      331.408       -0.598      865.273
11/05/2013  02:56:00      -83.769      -35.732      -10.229       13.356       12.497        7.173      178.383      156.173       51.457        0.439        0.019       91.071        3.102        0.001      331.547       -0.369      865.272
11/05/2013  02:57:00      -92.828      -44.110      -12.214        7.385        9.429        7.123       54.537       88.906       50.735        0.545        0.010      102.775        4.570        0.002      331.561       -0.346      865.276
11/05/2013  02:58:00     -114.876      -52.651      -13.352       12.115       15.827        8.523      146.773      250.509       72.645        0.831        0.023      126.367        5.339        0.002      331.520       -0.412      865.288
11/05/2013  02:59:00     -109.280      -58.753       -3.001       32.652       26.397       16.514     1066.149      696.818      272.703        0.872        0.102      124.073       17.421        0.020      331.423       -0.572      865.309
11/05/2013  03:00:00      -67.590      -47.539        5.350       47.163       25.256       21.372     2224.323      637.878      456.747        0.509        0.166       82.634       24.582        0.088      331.281       -0.805      865.344
11/05/2013  03:01:00      -62.829      -47.563        8.697       44.094       30.917       27.814     1944.296      955.841      773.638        0.498        0.184       78.802       27.544        0.122      331.237       -0.876      865.384
11/05/2013  03:02:00     -104.333      -71.279        1.862       44.383       35.285       26.981     1969.825     1245.047      727.964        0.996        0.197      126.357       28.017        0.049      331.210       -0.921      865.425
11/05/2013  03:03:00     -113.044      -53.177        1.342       34.984       30.817       21.593     1223.863      949.704      466.248        0.912        0.132      124.927       16.320        0.017      331.191       -0.953      865.454
11/05/2013  03:04:00     -101.076      -76.261       11.032       52.430       40.078       26.200     2748.865     1606.274      686.455        1.060        0.252      126.618       25.082        0.039      331.164       -0.997      865.472
11/05/2013  03:05:00     -127.427      -81.124       -0.174       52.216       49.832       27.164     2726.462     2483.240      737.870        1.438        0.297      151.058       25.795        0.029      331.122       -1.066      865.487
11/05/2013  03:06:00     -111.374      -72.990        0.522       57.643       41.785       27.404     3322.687     1746.023      750.984        1.177        0.291      133.160       29.088        0.048      331.100       -1.103      865.493
11/05/2013  03:07:00     -110.804      -72.439       -0.812       43.839       30.759       29.860     1921.819      946.113      891.593        1.064        0.188      132.382       30.513        0.053      331.008       -1.253      865.506
11/05/2013  03:08:00      -98.259      -51.320        0.899       39.362       26.704       22.863     1549.396      713.084      522.706        0.754        0.139      110.854       22.850        0.042      331.056       -1.175      865.498
11/05/2013  03:09:00      -97.983      -55.493       -2.256       40.900       25.287       22.519     1672.845      639.411      507.121        0.775        0.141      112.606       19.843        0.031      331.096       -1.109      865.469
11/05/2013  03:10:00      -98.646      -59.456       -4.433       31.063       19.214       18.121      964.880      369.168      328.381        0.747        0.083      115.179        9.018        0.006      331.049       -1.187      865.451
11/05/2013  03:11:00      -97.558      -64.982       -3.757       26.771       20.494       12.467      716.665      419.997      155.432        0.752        0.065      117.218        7.987        0.005      331.061       -1.168      865.442
11/05/2013  03:12:00     -102.232      -50.048        0.050       24.517       17.925       17.866      601.098      321.290      319.192        0.710        0.062      113.825       12.281        0.012      331.075       -1.143      865.442
11/05/2013  03:13:00      -73.803      -42.285        3.033       49.489       27.253       21.909     2449.119      742.707      479.987        0.546        0.184       85.058       26.154        0.095      331.073       -1.148      865.468
11/05/2013  03:14:00     -127.023      -54.575       -3.092       28.297       28.465       19.605      800.692      810.253      384.350        1.056        0.100      138.251       17.269        0.016      331.032       -1.215      865.490
11/05/2013  03:15:00      -83.748      -66.740       -0.799       41.382       32.508       22.933     1712.440     1056.779      525.901        0.738        0.165      107.088       22.232        0.043      331.050       -1.185      865.506
11/05/2013  03:16:00      -99.956      -81.190       -2.923       28.899       27.635       20.418      835.154      763.691      416.893        0.930        0.101      128.775       13.776        0.011      331.101       -1.102      865.523
11/05/2013  03:17:00     -101.397      -75.034       -8.816       26.869       24.456       20.985      721.930      598.093      440.377        0.887        0.088      126.140       14.711        0.014      331.100       -1.103      865.542
11/05/2013  03:18:00     -105.478      -43.541       -1.075       48.758       26.446       19.108     2377.387      699.382      365.100        0.823        0.172      114.111       20.202        0.031      331.066       -1.158      865.557
11/05/2013  03:19:00     -129.684      -35.058       -5.424       21.734       23.153       15.106      472.365      536.056      228.186        0.966        0.062      134.339       10.793        0.006      331.124       -1.064      865.554
11/05/2013  03:20:00     -121.342      -49.284       -7.016       17.472       19.155       10.957      305.273      366.909      120.056        0.900        0.040      130.969        5.182        0.002      331.064       -1.164      865.552
11/05/2013  03:21:00     -118.095      -37.601       -5.477       39.561       21.882       17.759     1565.109      478.810      315.395        0.887        0.118      123.936       21.046        0.029      331.108       -1.090      865.540
11/05/2013  03:22:00     -110.170      -48.269       -6.252       27.941       18.790       14.218      780.685      353.058      202.159        0.792        0.067      120.280       16.362        0.019      331.166       -0.992      865.525
11/05/2013  03:23:00     -107.676      -64.086      -11.249       23.209       22.867       16.646      538.639      522.891      277.101        0.858        0.067      125.304       14.986        0.014      331.230       -0.887      865.527
11/05/2013  03:24:00     -114.766      -56.391       -8.675       22.256       18.490       15.844      495.315      341.881      251.032        0.876        0.054      127.872        8.321        0.004      331.267       -0.828      865.528
11/05/2013  03:25:00     -115.210      -53.460       -3.923       29.116       25.726       13.705      847.728      661.845      187.822        0.892        0.085      127.009       13.581        0.011      331.276       -0.813      865.542
11/05/2013  03:26:00     -121.671      -37.010       -0.458       26.719       28.709       18.586      713.928      824.213      345.446        0.903        0.094      127.175       12.172        0.009      331.191       -0.952      865.563
11/05/2013  03:27:00     -120.439      -29.438       -7.242       20.142       19.309       14.433      405.698      372.843      208.304        0.821        0.049      123.985       11.559        0.009      331.148       -1.023      865.584
11/05/2013  03:28:00     -108.639      -21.329       -4.470       29.393       20.252       16.900      863.922      410.134      285.609        0.692        0.078      110.713       15.176        0.019      331.095       -1.112      865.595
11/05/2013  03:29:00     -120.976      -21.712      -10.755       24.773       19.527       13.322      613.713      381.299      177.483        0.820        0.059      122.909       14.147        0.013      331.093       -1.114      865.605
11/05/2013  03:30:00     -114.228      -55.731      -18.507       16.598       22.834       15.305      275.503      521.380      234.255        0.876        0.052      127.099       13.496        0.011      331.115       -1.079      865.629
11/05/2013  03:31:00      -91.972      -47.267       -1.177       23.102       21.295       17.531      533.709      453.472      307.351        0.599        0.065      103.407       14.176        0.019      331.063       -1.163      865.672
11/05/2013  03:32:00      -37.984      -19.419       10.398       38.139       26.438       21.017     1454.613      698.959      441.729        0.226        0.130       42.660       20.969        0.242      331.124       -1.064      865.709
11/05/2013  03:33:00     -136.398       10.596      -10.991       25.543       28.245       18.786      652.441      797.805      352.912        1.032        0.090      136.809       14.068        0.011      331.289       -0.791      865.746
11/05/2013  03:34:00     -152.280      -26.752      -18.830       29.847       26.695       21.395      890.852      712.647      457.763        1.316        0.103      154.612       15.532        0.010      331.253       -0.852      865.765
11/05/2013  03:35:00     -128.852      -57.295       -1.987       28.730       33.290       19.264      825.416     1108.213      371.091        1.110        0.115      141.016       14.042        0.010      331.089       -1.121      865.763
11/05/2013  03:36:00     -120.137      -18.935      -10.687       25.000       23.324       16.517      625.000      544.018      272.813        0.817        0.072      121.620       11.852        0.009      331.117       -1.075      865.758
11/05/2013  03:37:00     -111.355      -12.718       -4.497       29.430       29.676       21.086      866.131      880.666      444.623        0.739        0.110      112.079       18.659        0.028      331.026       -1.223      865.759
11/05/2013  03:38:00     -106.344        3.173       -6.045       32.287       31.526       19.850     1042.429      993.867      394.039        0.689        0.122      106.392       14.013        0.017      331.246       -0.863      865.775
11/05/2013  03:39:00     -102.673       -0.911       -0.702       43.779       23.528       19.429     1916.560      553.550      377.479        0.669        0.142      102.677       21.188        0.043      331.387       -0.632      865.803
11/05/2013  03:40:00     -107.014      -14.715      -10.342       29.838       26.481       16.405      890.301      701.238      269.121        0.682        0.093      108.021       15.698        0.021      331.374       -0.653      865.836
11/05/2013  03:41:00     -108.370       -6.105      -10.702       34.187       27.285       16.717     1168.739      744.470      279.469        0.704        0.110      108.542       15.110        0.019      331.323       -0.736      865.859
11/05/2013  03:42:00      -87.256      -19.589       -2.168       30.320       28.232       21.240      919.307      797.022      451.157        0.508        0.108       89.428       17.837        0.040      331.297       -0.778      865.861
11/05/2013  03:43:00      -73.631      -30.953        0.396       39.708       33.162       18.036     1576.739     1099.748      325.311        0.469        0.150       79.872       16.354        0.042      331.274       -0.815      865.852
11/05/2013  03:44:00      -93.158       -7.229       -2.015       45.196       30.989       22.447     2042.647      960.289      503.880        0.612        0.175       93.438       22.935        0.060      331.212       -0.920      865.842
11/05/2013  03:45:00      -69.275      -21.954        1.024       27.629       23.450       15.601      763.386      549.887      243.392        0.342        0.078       72.671       13.687        0.035      331.205       -0.930      865.839
11/05/2013  03:46:00      -91.001      -31.937       -1.945       18.746       19.370       17.862      351.402      375.209      319.061        0.518        0.052       96.442       12.464        0.017      331.192       -0.952      865.842
11/05/2013  03:47:00      -76.776      -35.064       -2.069       22.898       17.619       12.086      524.322      310.431      146.079        0.405        0.049       84.404       10.982        0.017      331.167       -0.993      865.857
11/05/2013  03:48:00      -94.659      -33.681       -2.214       18.257       17.268       11.232      333.336      298.184      126.150        0.543        0.038      100.472        6.983        0.005      331.157       -1.008      865.870
11/05/2013  03:49:00     -109.415      -18.447       -3.759       30.064       21.582       15.658      903.834      465.783      245.181        0.697        0.081      110.959       16.284        0.022      331.090       -1.120      865.892
11/05/2013  03:50:00     -116.992      -12.976      -14.347       22.289       22.043       14.092      496.791      485.903      198.574        0.762        0.059      117.709       10.835        0.008      331.117       -1.076      865.920
11/05/2013  03:51:00      -90.426      -11.076       -7.696       27.730       22.484       15.869      768.933      505.520      251.841        0.494        0.076       91.102       13.013        0.020      331.071       -1.151      865.934
11/05/2013  03:52:00      -69.066      -19.093        4.864       27.533       17.464       15.901      758.075      304.981      252.837        0.324        0.066       71.657       12.792        0.032      331.070       -1.151      865.943
11/05/2013  03:53:00      -61.035      -31.929       -0.124       23.110       19.650       11.958      534.073      386.114      142.982        0.290        0.053       68.882        7.603        0.012      331.157       -1.009      865.957
11/05/2013  03:54:00      -41.454      -32.569        3.430       22.680       18.509       17.532      514.376      342.593      307.367        0.198        0.058       52.718       15.095        0.082      331.201       -0.937      865.974
11/05/2013  03:55:00      -47.879      -32.394        1.920       29.355       15.303       14.321      861.734      234.168      205.085        0.232        0.065       57.808        4.571        0.006      331.216       -0.912      865.975
11/05/2013  03:56:00      -29.318      -34.625        4.171       25.402       19.149       14.768      645.257      366.695      218.108        0.165        0.062       45.370       15.185        0.112      331.192       -0.950      865.969
11/05/2013  03:57:00      -60.134      -35.161        4.506       37.037       18.075       14.809     1371.773      326.703      219.313        0.339        0.096       69.659       14.021        0.041      331.160       -1.004      865.957
11/05/2013  03:58:00      -19.264      -19.749       15.731       35.432       21.676       14.801     1255.395      469.862      219.066        0.148        0.097       27.589       17.869        0.419      331.185       -0.963      865.960
11/05/2013  03:59:00      -23.931      -21.267       12.480       27.491       17.505       15.927      755.734      306.431      253.657        0.125        0.066       32.015        9.819        0.094      331.113       -1.083      865.991
11/05/2013  04:00:00      -25.651      -32.315        4.720       23.452       21.656       14.363      549.981      468.978      206.300        0.147        0.061       41.259       14.835        0.129      331.174       -0.981      866.014
11/05/2013  04:01:00      -33.067      -32.347       -2.663       33.511       22.716       13.539     1122.984      516.026      183.305        0.198        0.091       46.257       10.141        0.048      331.156       -1.010      866.041
11/05/2013  04:02:00      -52.846      -28.120       -5.122       21.087       24.886       17.047      444.656      619.310      290.584        0.248        0.068       59.862        9.554        0.025      331.094       -1.112      866.042
11/05/2013  04:03:00      -20.725      -29.508        3.946       16.980       25.413       13.354      288.327      645.844      178.318        0.121        0.056       36.059       11.548        0.103      331.172       -0.985      866.040
11/05/2013  04:04:00      -45.928      -44.577        2.855       25.607       23.437       12.833      655.741      549.305      164.685        0.274        0.068       64.004       12.430        0.038      331.185       -0.962      866.031
11/05/2013  04:05:00      -33.562      -37.968        4.171       24.927       30.152       17.389      621.375      909.161      302.372        0.221        0.092       50.676       10.930        0.047      331.086       -1.125      866.029
11/05/2013  04:06:00      -57.320      -54.657      -17.143       37.202       34.965       22.210     1383.953     1222.538      493.305        0.483        0.155       79.202       14.873        0.035      331.037       -1.207      866.023
11/05/2013  04:07:00      -69.207      -20.712       -5.641       51.566       21.698       17.983     2659.005      470.789      323.389        0.435        0.173       72.240        9.383        0.017      330.869       -1.483      866.019
11/05/2013  04:08:00      -66.148      -17.821       -4.631       44.361       26.533       31.304     1967.896      704.010      979.963        0.418        0.183       68.506       16.863        0.061      330.804       -1.588      866.038
11/05/2013  04:09:00      -60.930      -18.992        9.759       54.922       46.639       26.641     3016.385     2175.234      709.762        0.503        0.295       63.821       27.607        0.187      330.773       -1.639      866.085
11/05/2013  04:10:00     -106.017      -88.503        2.994       66.266       52.227       31.366     4391.240     2727.685      983.815        1.359        0.405      138.103       34.189        0.061      330.776       -1.635      866.131
11/05/2013  04:11:00     -122.836      -78.127        0.527       52.681       43.344       27.658     2775.265     1878.667      764.976        1.330        0.271      145.577       18.813        0.017      330.844       -1.523      866.154
11/05/2013  04:12:00     -142.772     -110.673       -5.339       43.605       44.197       33.409     1901.414     1953.386     1116.128        1.882        0.249      180.644       23.195        0.016      330.818       -1.566      866.169
11/05/2013  04:13:00     -125.586     -110.355       -7.834       42.453       34.622       29.084     1802.247     1198.705      845.882        1.593        0.192      167.182       27.646        0.027      330.830       -1.546      866.180
11/05/2013  04:14:00      -75.965      -71.808       -1.692       51.019       37.314       22.295     2602.893     1392.362      497.050        0.771        0.225      104.533       20.964        0.040      330.860       -1.497      866.184
11/05/2013  04:15:00      -69.459      -66.458       -0.681       50.029       33.548       27.621     2502.920     1125.471      762.939        0.682        0.220       96.131       26.941        0.079      330.841       -1.526      866.190
11/05/2013  04:16:00      -83.243      -60.170       -8.648       26.711       22.647       15.350      713.466      512.877      235.617        0.604        0.073      102.713        9.877        0.009      330.893       -1.442      866.179
11/05/2013  04:17:00      -70.103      -28.728       -2.716       26.675       21.890       13.870      711.561      479.174      192.389        0.356        0.069       75.760       12.431        0.027      330.819       -1.565      866.160
11/05/2013  04:18:00     -109.511      -42.117       -4.098       35.984       27.465       16.987     1294.880      754.322      288.557        0.806        0.117      117.331       11.337        0.009      330.794       -1.607      866.123
11/05/2013  04:19:00     -112.314      -46.100       -1.577       19.474       20.943       15.034      379.239      438.606      226.016        0.789        0.052      121.407        7.998        0.004      330.711       -1.741      866.088
11/05/2013  04:20:00      -88.418      -33.234      -18.924       20.293       18.080       12.688      411.809      326.876      160.979        0.509        0.045       94.457        5.892        0.004      330.793       -1.608      866.062
11/05/2013  04:21:00      -90.890      -16.364       -9.824       16.408       14.092       11.906      269.210      198.573      141.763        0.462        0.030       92.352        8.338        0.008      330.795       -1.605      866.051
11/05/2013  04:22:00      -84.995      -24.031       -9.014       19.665       12.338        9.334      386.701      152.223       87.128        0.425        0.031       88.327        7.769        0.008      330.794       -1.605      866.054
11/05/2013  04:23:00      -99.380      -30.812       -5.401       15.527       14.872        9.957      241.097      221.176       99.136        0.571        0.028      104.047        4.695        0.002      330.770       -1.644      866.057
11/05/2013  04:24:00      -77.567      -47.875       -5.031       27.632       17.229       10.873      763.542      296.842      118.224        0.476        0.059       91.152        9.833        0.012      330.787       -1.617      866.053
11/05/2013  04:25:00      -58.263      -36.748        2.432       27.080       17.294       19.441      733.306      299.071      377.964        0.308        0.071       68.883       17.092        0.062      330.788       -1.616      866.053
11/05/2013  04:26:00      -61.145      -30.716        0.049       21.944       18.927       14.395      481.551      358.226      207.218        0.286        0.052       68.426       11.002        0.026      330.750       -1.677      866.060
11/05/2013  04:27:00      -55.032      -31.563        0.386       16.334       11.766        8.118      266.804      138.442       65.905        0.225        0.024       63.441        5.732        0.008      330.761       -1.659      866.089
11/05/2013  04:28:00      -62.535      -16.891       -7.455       11.991       14.086       10.825      143.779      198.429      117.176        0.236        0.023       64.776        7.083        0.012      330.802       -1.591      866.124
11/05/2013  04:29:00      -57.825      -22.055        0.984       15.130       13.933       12.358      228.914      194.119      152.720        0.220        0.029       61.888       11.170        0.033      330.848       -1.517      866.132
11/05/2013  04:30:00      -24.040      -19.600        7.884       27.713       17.398       13.800      767.997      302.689      190.429        0.114        0.063       31.017       16.092        0.269      330.892       -1.445      866.132
11/05/2013  04:31:00      -14.566      -12.966        9.671       20.341       12.901       12.141      413.769      166.442      147.401        0.060        0.036       19.501       10.293        0.279      330.928       -1.384      866.126
11/05/2013  04:32:00      -12.358      -10.488        6.248       21.474       11.366       10.893      461.112      129.187      118.647        0.051        0.035       16.208       11.766        0.527      330.900       -1.430      866.119
11/05/2013  04:33:00      -39.279      -18.621       -4.629       22.451       13.033       11.985      504.045      169.871      143.643        0.136        0.041       43.469       12.335        0.081      330.948       -1.352      866.125
11/05/2013  04:34:00      -52.631       -5.425       -3.688       14.218       13.122        8.685      202.163      172.179       75.430        0.163        0.022       52.909        5.563        0.011      330.976       -1.307      866.136
11/05/2013  04:35:00      -56.592       -4.723       -5.226       16.613       10.620       11.030      275.998      112.775      121.652        0.188        0.026       56.789        9.352        0.027      330.981       -1.299      866.154
11/05/2013  04:36:00      -40.556       -9.676       -4.346        8.745        9.900        8.820       76.472       98.019       77.798        0.100        0.013       41.694        6.288        0.023      330.981       -1.299      866.172
11/05/2013  04:37:00      -47.287        5.409       -4.312       16.012       13.389        8.002      256.378      179.252       64.038        0.139        0.025       47.596        6.028        0.016      330.871       -1.479      866.177
11/05/2013  04:38:00      -46.885        4.594       -4.582       15.507       19.896       11.480      240.454      395.860      131.792        0.150        0.038       47.109        9.921        0.044      330.807       -1.583      866.183
11/05/2013  04:39:00      -54.660       -4.764       -2.202       17.528       12.764        7.942      307.214      162.922       63.071        0.177        0.027       54.867        6.880        0.016      330.817       -1.569      866.195
11/05/2013  04:40:00      -52.878      -15.790       -1.794       18.870       15.593       10.034      356.087      243.131      100.687        0.187        0.035       55.185        9.420        0.029      330.771       -1.644      866.221
11/05/2013  04:41:00      -60.355      -13.090       -6.519        9.721       12.554        8.585       94.506      157.611       73.710        0.209        0.016       61.758        2.199        0.001      330.733       -1.704      866.263
11/05/2013  04:42:00      -44.320        6.975       -9.780       15.763       17.534       11.164      248.459      307.441      124.632        0.139        0.034       44.865        8.413        0.035      330.740       -1.694      866.300
11/05/2013  04:43:00      -63.559       25.932       -8.058       25.542       21.354       16.815      652.412      455.988      282.744        0.308        0.070       68.646       11.921        0.030      330.770       -1.646      866.320
11/05/2013  04:44:00      -74.331       22.426      -12.285       17.957       16.452       13.402      322.461      270.666      179.610        0.348        0.039       77.640       10.038        0.017      330.781       -1.626      866.331
11/05/2013  04:45:00      -63.079       -5.999      -20.583       18.938       16.322       11.266      358.646      266.414      126.914        0.260        0.038       63.363        7.776        0.015      330.769       -1.646      866.349
11/05/2013  04:46:00      -45.359       -9.854       -7.488       18.011       19.892       11.680      324.381      395.701      136.422        0.153        0.043       46.417        8.702        0.035      330.714       -1.736      866.376
11/05/2013  04:47:00      -20.237       -8.631       -1.167       20.114       13.315       16.111      404.574      177.281      259.556        0.066        0.042       22.001       16.724        0.578      330.722       -1.724      866.387
11/05/2013  04:48:00       -6.404       15.384        3.992       20.408       28.865       15.584      416.493      833.180      242.866        0.089        0.075       16.664       13.675        0.674      330.827       -1.552      866.395
11/05/2013  04:49:00        6.895       32.850        7.257       20.413       36.118       17.443      416.689     1304.512      304.261        0.160        0.101       33.566       16.179        0.232      330.850       -1.514      866.393
11/05/2013  04:50:00       18.044       88.774       -8.983       20.087       30.196       17.682      403.468      911.821      312.667        0.496        0.081       90.589       13.257        0.021      330.752       -1.675      866.380
11/05/2013  04:51:00       21.469       52.472       -8.380       20.344       22.466       12.451      413.883      504.736      155.018        0.218        0.054       56.694       11.145        0.039      330.681       -1.791      866.361
11/05/2013  04:52:00       19.047       47.819       -7.801       20.960       25.460       12.873      439.328      648.202      165.713        0.198        0.063       51.473       14.150        0.076      330.632       -1.871      866.338
11/05/2013  04:53:00        5.697       91.312      -16.666       16.739       18.852        8.986      280.186      355.414       80.743        0.468        0.036       91.490        4.915        0.003      330.608       -1.910      866.322
11/05/2013  04:54:00       -9.594       88.641       -8.324       12.760       26.133       12.086      162.830      682.919      146.061        0.451        0.050       89.158       14.127        0.025      330.676       -1.799      866.313
11/05/2013  04:55:00      -15.123       85.006       -6.368       18.078       30.237       15.323      326.797      914.284      234.804        0.449        0.074       86.340       13.906        0.026      330.825       -1.554      866.317
11/05/2013  04:56:00      -23.428        8.634        1.854       23.404       17.832       12.887      547.730      317.981      166.064        0.083        0.052       24.968       10.998        0.194      330.652       -1.837      866.328
11/05/2013  04:57:00      -64.038      -18.953       -7.176       10.370       12.145        9.790      107.533      147.490       95.850        0.243        0.018       66.784        7.289        0.012      330.635       -1.865      866.343
11/05/2013  04:58:00      -71.731      -14.166      -11.526        9.502       14.168       10.232       90.285      200.725      104.696        0.294        0.020       73.116        6.375        0.008      330.656       -1.831      866.359
11/05/2013  04:59:00      -48.005      -17.917       -4.499       16.886       12.691       10.419      285.139      161.054      108.552        0.160        0.028       51.240        8.295        0.026      330.587       -1.944      866.362
11/05/2013  05:00:00      -83.970       -2.990      -14.701       10.987        9.762        8.510      120.713       95.299       72.428        0.378        0.014       84.023        5.647        0.005      330.556       -1.997      866.362
11/05/2013  05:01:00      -76.252      -10.578      -11.179       15.112       10.971       11.215      228.364      120.366      125.766        0.326        0.024       76.982        8.697        0.013      330.564       -1.982      866.372
11/05/2013  05:02:00      -91.232      -15.003      -13.085       13.150       11.799       10.533      172.925      139.221      110.949        0.457        0.021       92.457        5.801        0.004      330.547       -2.011      866.414
11/05/2013  05:03:00      -88.972       -8.683       -9.511       19.680       11.771       12.346      387.286      138.550      152.434        0.438        0.034       89.395        9.895        0.012      330.548       -2.008      866.455
11/05/2013  05:04:00      -84.925      -10.034       -7.210       19.529       15.719       13.728      381.369      247.102      188.457        0.409        0.041       85.515        9.777        0.013      330.530       -2.039      866.486
11/05/2013  05:05:00      -68.154      -19.762      -10.048       20.400       12.960        9.380      416.141      167.971       87.988        0.290        0.034       70.961        4.519        0.004      330.557       -1.993      866.503
11/05/2013  05:06:00      -63.633      -29.573       -3.335       14.304       14.960        8.999      204.600      223.796       80.982        0.272        0.025       70.169        5.252        0.006      330.646       -1.847      866.519
11/05/2013  05:07:00      -78.760      -39.102       -7.146       15.363        9.684        9.529      236.020       93.784       90.801        0.410        0.021       87.932        8.891        0.010      330.656       -1.832      866.546
11/05/2013  05:08:00      -79.631      -35.705       -5.841       13.816       14.147        9.757      190.879      200.146       95.195        0.407        0.024       87.270        5.615        0.004      330.679       -1.794      866.575
11/05/2013  05:09:00      -91.588      -32.181       -8.896       21.164       16.181       10.698      447.904      261.836      114.450        0.516        0.041       97.077        8.847        0.008      330.697       -1.763      866.598
11/05/2013  05:10:00      -93.972      -32.619       -6.759       13.955       20.141       12.076      194.751      405.673      145.830        0.534        0.037       99.472        8.104        0.007      330.647       -1.846      866.628
11/05/2013  05:11:00      -84.497      -32.423       -3.739       21.767       26.542       15.078      473.798      704.485      227.347        0.481        0.070       90.504       13.465        0.022      330.653       -1.836      866.647
11/05/2013  05:12:00      -82.348      -25.592       -3.580       25.292       20.214       11.885      639.669      408.615      141.261        0.432        0.059       86.233       11.985        0.019      330.678       -1.797      866.654
11/05/2013  05:13:00      -70.666      -40.525       -2.232       28.384       17.314       13.750      805.625      299.784      189.074        0.397        0.065       81.461       12.939        0.025      330.725       -1.719      866.636
11/05/2013  05:14:00      -31.219      -23.189        5.914       36.620       19.614       11.239     1341.035      384.716      126.322        0.170        0.093       38.889       15.208        0.153      330.680       -1.793      866.602
11/05/2013  05:15:00      -28.597      -43.761        5.291       41.544       36.174       26.317     1725.939     1308.580      692.601        0.324        0.186       52.277       23.304        0.199      330.695       -1.768      866.551
11/05/2013  05:16:00      -67.313      -80.373       -0.799       29.770       32.845       21.258      886.224     1078.814      451.917        0.670        0.121      104.837       19.840        0.036      330.681       -1.791      866.507
11/05/2013  05:17:00      -49.442      -54.773       -8.659       28.335       24.871       18.979      802.885      618.583      360.190        0.365        0.089       73.787       17.647        0.057      330.771       -1.645      866.478
11/05/2013  05:18:00      -30.455      -69.113       -0.704       32.531       44.651       18.036     1058.255     1993.711      325.312        0.454        0.169       75.526       18.820        0.062      330.762       -1.657      866.470
11/05/2013  05:19:00      -18.635      -31.632       -4.513       23.964       36.784       22.598      574.287     1353.041      510.674        0.190        0.122       36.713       20.720        0.319      330.718       -1.730      866.482
11/05/2013  05:20:00      -43.403      -19.962       -0.909       37.217       26.311       15.930     1385.076      692.271      253.752        0.231        0.117       47.774       19.190        0.161      330.727       -1.715      866.512
11/05/2013  05:21:00      -29.245      -20.014        4.854       24.487       24.002       18.725      599.601      576.100      350.613        0.140        0.076       35.438        8.735        0.061      330.676       -1.798      866.551
11/05/2013  05:22:00      -67.489      -43.050        0.375       39.649       33.607       17.149     1572.062     1129.419      294.086        0.470        0.150       80.050       16.117        0.041      330.681       -1.790      866.586
11/05/2013  05:23:00      -67.923      -49.579        5.691       38.914       27.840       25.134     1514.279      775.059      631.713        0.501        0.146       84.093       16.111        0.037      330.622       -1.888      866.612
11/05/2013  05:24:00      -97.760      -61.047        4.890       49.916       49.283       30.427     2491.605     2428.821      925.792        0.958        0.292      115.255       32.686        0.080      330.547       -2.010      866.617
11/05/2013  05:25:00     -127.516      -86.705       -2.699       41.249       42.815       24.040     1701.491     1833.101      577.903        1.395        0.206      154.201       17.487        0.013      330.550       -2.006      866.625
11/05/2013  05:26:00      -91.394      -81.138        4.135       44.089       50.286       28.278     1943.867     2528.696      799.640        1.011        0.264      122.214       27.971        0.052      330.507       -2.076      866.626
11/05/2013  05:27:00      -90.486      -66.495        1.130       31.069       32.349       17.965      965.279     1046.426      322.733        0.747        0.117      112.291       15.559        0.019      330.575       -1.965      866.624
11/05/2013  05:28:00     -101.173      -40.786       -8.823       19.748       21.183       14.304      389.989      448.727      204.612        0.651        0.052      109.085       12.169        0.012      330.614       -1.900      866.628
11/05/2013  05:29:00      -68.154      -36.550       -6.453       17.915       16.249       13.705      320.935      264.036      187.820        0.340        0.039       77.336       10.617        0.019      330.673       -1.804      866.625
11/05/2013  05:30:00      -53.677      -15.046       -8.389       17.412       23.399       10.813      303.178      547.492      116.925        0.207        0.048       55.746        3.052        0.003      330.645       -1.849      866.609
11/05/2013  05:31:00      -54.370      -25.914       -5.239       13.034       16.483       10.372      169.873      271.690      107.574        0.210        0.027       60.230        7.928        0.017      330.621       -1.888      866.592
11/05/2013  05:32:00      -42.794      -14.930        0.390       21.826       23.716       11.032      476.380      562.471      121.701        0.161        0.058       45.324        9.749        0.046      330.605       -1.916      866.573
11/05/2013  05:33:00      -49.301        3.936       -6.051       15.996       12.311       10.382      255.882      151.572      107.780        0.150        0.026       49.458        3.644        0.005      330.410       -2.236      866.550
11/05/2013  05:34:00      -43.742        6.970       -4.699       16.278       11.522       11.220      264.975      132.767      125.899        0.125        0.026       44.294        9.727        0.048      330.360       -2.317      866.540
11/05/2013  05:35:00      -45.047        3.117      -10.632       15.867       14.152        9.773      251.759      200.276       95.515        0.135        0.027       45.154        8.415        0.035      330.431       -2.200      866.537
11/05/2013  05:36:00      -76.436        2.864       -8.100       29.351       14.211        8.987      861.501      201.942       80.765        0.353        0.057       76.490        7.981        0.011      330.476       -2.128      866.536
11/05/2013  05:37:00      -79.110      -17.056       -3.427       31.064       19.621       17.393      964.962      385.003      302.505        0.411        0.083       80.927       15.694        0.038      330.491       -2.102      866.545
11/05/2013  05:38:00      -72.995      -28.870        3.202       26.521       22.464       13.579      703.352      504.645      184.399        0.378        0.070       78.497       12.849        0.027      330.477       -2.126      866.556
11/05/2013  05:39:00      -66.637      -11.584        4.845       28.036       18.156       19.702      786.022      329.633      388.165        0.305        0.075       67.636       19.072        0.080      330.429       -2.206      866.572
11/05/2013  05:40:00      -78.022       -3.439       -2.007       37.583       15.078       17.656     1412.481      227.336      311.747        0.403        0.098       78.097       20.210        0.067      330.422       -2.217      866.564
11/05/2013  05:41:00      -80.727       -4.345       -2.846       15.344       14.673       11.342      235.436      215.303      128.634        0.356        0.029       80.844        8.104        0.010      330.477       -2.124      866.548
11/05/2013  05:42:00      -50.076        0.897       -1.471       31.037       11.554       10.524      963.294      133.501      110.754        0.186        0.060       50.084       13.427        0.072      330.503       -2.082      866.524
11/05/2013  05:43:00       -1.996       -1.713        6.513       14.232        6.693        6.310      202.563       44.793       39.813        0.017        0.014        2.630        8.012        9.279      330.460       -2.154      866.497
11/05/2013  05:44:00      -22.042      -18.003       -4.861       12.465       12.412        8.432      155.366      154.055       71.099        0.061        0.019       28.460        4.676        0.027      330.699       -1.762      866.479
11/05/2013  05:45:00      -19.974       -0.359        3.575       10.770        5.120        8.148      115.995       26.212       66.392        0.031        0.010       19.977        4.862        0.059      330.706       -1.750      866.473
11/05/2013  05:46:00       -6.052        8.754       -2.566        9.265        9.051        6.398       85.838       81.924       40.935        0.016        0.010       10.642        5.301        0.248      330.700       -1.759      866.486
11/05/2013  05:47:00       10.082       15.267        2.575        9.316        8.767        9.693       86.784       76.867       93.960        0.030        0.013       18.296        5.004        0.075      330.657       -1.830      866.505
11/05/2013  05:48:00       -4.149       18.909        2.360        5.089        8.543        5.710       25.898       72.982       32.604        0.026        0.007       19.359        3.565        0.034      330.663       -1.820      866.528
11/05/2013  05:49:00       -0.677        9.952        3.995        7.105       12.667        8.298       50.482      160.443       68.854        0.020        0.014        9.975        7.977        0.640      330.586       -1.947      866.545
11/05/2013  05:50:00      -15.052        1.816       -2.419       13.478        5.384        2.910      181.655       28.987        8.467        0.023        0.011       15.161        1.947        0.016      330.600       -1.923      866.550
11/05/2013  05:51:00      -54.983        5.472       -1.959       12.467        9.877        5.742      155.420       97.556       32.970        0.167        0.014       55.255        5.010        0.008      330.587       -1.945      866.554
11/05/2013  05:52:00      -85.411       -4.334       -5.186       28.828       12.931       13.659      831.034      167.217      186.566        0.426        0.059       85.520       15.309        0.032      330.434       -2.197      866.563
11/05/2013  05:53:00      -91.668       -3.811      -10.627       28.208       22.070       16.848      795.687      487.067      283.846        0.505        0.078       91.747       14.830        0.026      330.323       -2.377      866.582
11/05/2013  05:54:00      -44.799      -10.598        0.006       26.106       24.026       12.855      681.513      577.265      165.250        0.177        0.071       46.035       10.665        0.054      330.318       -2.385      866.619
11/05/2013  05:55:00      -53.839      -30.373       -1.811       28.019       28.000       17.196      785.069      784.022      295.714        0.284        0.093       61.816       15.905        0.066      330.205       -2.570      866.655
11/05/2013  05:56:00      -83.240      -19.582      -13.030       33.827       31.792       18.827     1144.275     1010.715      354.472        0.500        0.125       85.512       15.528        0.033      330.183       -2.608      866.672
11/05/2013  05:57:00      -53.478      -19.961        4.021       29.232       28.172       19.618      854.500      793.648      384.879        0.265        0.102       57.082       14.048        0.061      330.241       -2.512      866.666
11/05/2013  05:58:00      -47.456      -10.278       -1.554       36.109       21.749       17.127     1303.887      473.005      293.342        0.221        0.104       48.556       16.669        0.118      330.289       -2.433      866.658
11/05/2013  05:59:00      -75.825       -1.608       -7.212       20.406       16.296        9.737      416.388      265.553       94.806        0.329        0.039       75.842        5.938        0.006      330.299       -2.417      866.657
11/05/2013  06:00:00      -64.536       -5.150       -4.970       15.496       10.941       10.738      240.134      119.714      115.298        0.235        0.024       64.741        7.552        0.014      330.370       -2.302      866.651
11/05/2013  06:01:00      -54.625        2.797      -12.994       13.208        5.976        8.139      174.450       35.717       66.251        0.172        0.014       54.696        4.939        0.008      330.389       -2.271      866.648
11/05/2013  06:02:00      -45.580        2.930       -5.036       10.698        7.185        9.462      114.445       51.628       89.533        0.118        0.013       45.674        2.515        0.003      330.361       -2.316      866.666
11/05/2013  06:03:00      -56.232       -5.568       -9.934       13.493        8.385        7.760      182.069       70.301       60.219        0.180        0.016       56.507        3.720        0.004      330.465       -2.146      866.672
11/05/2013  06:04:00      -68.995      -10.462       -9.155       14.426       12.420       11.105      208.123      154.246      123.329        0.272        0.024       69.783        6.362        0.008      330.467       -2.141      866.691
11/05/2013  06:05:00      -65.353      -12.098       -7.843       25.028       16.679       13.446      626.393      278.204      180.784        0.278        0.054       66.463       15.010        0.051      330.476       -2.127      866.704
11/05/2013  06:06:00      -84.039       -9.655       -7.893       14.118       17.932       10.801      199.321      321.571      116.665        0.393        0.032       84.592        7.979        0.009      330.407       -2.240      866.713
11/05/2013  06:07:00     -111.910      -10.575       -8.290       23.533       16.184       12.275      553.809      261.937      150.669        0.684        0.048      112.408        8.821        0.006      330.343       -2.344      866.706
11/05/2013  06:08:00     -100.292       -5.325       -7.815       33.748       18.155       16.694     1138.896      329.606      278.678        0.595        0.087      100.434       17.310        0.030      330.234       -2.523      866.704
11/05/2013  06:09:00      -90.302       -8.793        1.887       31.647       24.490       21.091     1001.545      599.757      444.844        0.514        0.102       90.729       19.114        0.044      330.187       -2.601      866.721
11/05/2013  06:10:00      -86.205       -9.060       -7.160       26.038       18.661       12.088      678.000      348.217      146.129        0.437        0.059       86.680       11.202        0.017      330.186       -2.602      866.749
11/05/2013  06:11:00     -102.279        4.294      -12.042       28.009       20.319       17.621      784.506      412.879      310.490        0.607        0.075      102.369       15.532        0.023      330.214       -2.557      866.781
11/05/2013  06:12:00      -89.751       -6.547       -6.135       27.957       14.385       12.357      781.576      206.920      152.694        0.464        0.057       89.989       12.536        0.019      330.256       -2.488      866.806
11/05/2013  06:13:00      -83.379       -9.821       -4.996       26.122       20.676       16.396      682.385      427.489      268.832        0.423        0.069       83.955       14.525        0.030      330.251       -2.495      866.825
11/05/2013  06:14:00      -82.212      -10.016       -7.162       30.544       14.549       12.975      932.931      211.661      168.361        0.411        0.066       82.820       13.349        0.026      330.260       -2.480      866.832
11/05/2013  06:15:00      -90.094       -1.148      -13.356       15.980       10.004       10.530      255.350      100.081      110.876        0.438        0.023       90.101        8.359        0.009      330.263       -2.475      866.836
11/05/2013  06:16:00      -77.619      -15.388       -7.745       15.023       11.761       10.772      225.699      138.324      116.027        0.340        0.024       79.130        5.761        0.005      330.313       -2.395      866.835
11/05/2013  06:17:00      -96.856      -22.277      -11.420       14.208       14.213        9.337      201.854      202.019       87.170        0.525        0.025       99.385        6.800        0.005      330.312       -2.396      866.820
11/05/2013  06:18:00      -83.116      -30.648       -9.664       14.179       14.120       13.607      201.034      199.372      185.163        0.426        0.029       88.586        8.638        0.010      330.334       -2.361      866.809
11/05/2013  06:19:00      -44.458      -22.240       -5.114       26.810       13.046       13.663      718.757      170.199      186.677        0.179        0.054       49.711        8.359        0.028      330.382       -2.281      866.794
11/05/2013  06:20:00      -63.189      -17.093       -5.403        9.112       11.327       12.165       83.029      128.305      147.988        0.234        0.018       65.460        7.199        0.012      330.344       -2.344      866.797
11/05/2013  06:21:00      -47.153      -19.595       -8.852        8.675       11.033        9.864       75.254      121.728       97.294        0.149        0.015       51.063        4.255        0.007      330.419       -2.221      866.798
11/05/2013  06:22:00      -56.173       -2.690       -8.685       16.660        8.463        7.857      277.549       71.620       61.725        0.182        0.021       56.237        4.173        0.006      330.418       -2.221      866.807
11/05/2013  06:23:00      -72.979       -7.212      -10.014        9.855        8.504        9.483       97.118       72.310       89.925        0.287        0.013       73.334        3.562        0.002      330.316       -2.389      866.855
11/05/2013  06:24:00      -83.836       -4.022      -11.003       10.077        8.886        8.752      101.552       78.953       76.594        0.371        0.013       83.932        5.181        0.004      330.275       -2.458      866.897
11/05/2013  06:25:00      -93.480       -9.878      -13.357       10.324        9.026        8.819      106.581       81.470       77.769        0.464        0.013       94.001        4.872        0.003      330.236       -2.518      866.933
11/05/2013  06:26:00      -93.071      -14.827      -12.920       10.528       10.624        7.402      110.840      112.872       54.782        0.466        0.014       94.245        4.964        0.003      330.253       -2.492      866.947
11/05/2013  06:27:00     -112.125       -8.753      -13.989       16.099       13.034        9.943      259.176      169.873       98.860        0.669        0.026      112.466        6.153        0.003      330.185       -2.604      866.957
11/05/2013  06:28:00      -96.403      -12.115       -8.506       30.845       18.013       16.078      951.419      324.455      258.515        0.552        0.077       97.162       14.922        0.024      330.169       -2.629      866.971
11/05/2013  06:29:00     -112.917       -0.386      -20.213       15.982       12.064       12.596      255.412      145.530      158.659        0.686        0.028      112.918        6.092        0.003      330.119       -2.710      866.996
11/05/2013  06:30:00     -114.935       -1.031      -20.598       16.985       21.180       13.505      288.492      448.600      182.374        0.728        0.046      114.939        7.616        0.004      330.113       -2.723      867.020
11/05/2013  06:31:00     -103.291      -11.418       -8.783       14.690       19.644       13.365      215.789      385.891      178.631        0.583        0.039      103.920        9.710        0.009      330.184       -2.606      867.051
11/05/2013  06:32:00     -121.542      -25.583       -9.932       26.656       28.613       16.297      710.565      818.718      265.591        0.866        0.090      124.205       13.177        0.011      330.171       -2.627      867.072
11/05/2013  06:33:00     -112.684      -40.589       -2.190       20.656       26.086       13.479      426.676      680.503      181.695        0.782        0.064      119.771       10.585        0.008      330.241       -2.513      867.067
11/05/2013  06:34:00     -114.214      -34.688       -6.719       29.252       30.548       16.024      855.677      933.199      256.763        0.817        0.102      119.366       11.386        0.009      330.220       -2.547      867.053
11/05/2013  06:35:00     -109.408      -27.845       -4.696       40.963       24.544       20.615     1677.928      602.402      424.996        0.774        0.135      112.895       23.801        0.044      330.089       -2.761      867.038
11/05/2013  06:36:00      -88.681      -37.386        0.361       30.030       20.244       13.499      901.771      409.803      182.221        0.538        0.075       96.239       13.588        0.020      330.157       -2.651      867.028
11/05/2013  06:37:00      -71.594      -10.106        0.797       32.448       22.734       19.503     1052.875      516.819      380.358        0.359        0.098       72.304       15.860        0.048      330.108       -2.731      867.022
11/05/2013  06:38:00      -84.766      -21.832       -1.873       36.401       20.964       13.013     1325.062      439.510      169.333        0.480        0.097       87.532       15.280        0.030      330.130       -2.696      867.017
11/05/2013  06:39:00      -76.441      -19.858       -4.687       25.110       25.367       15.459      630.493      643.470      238.976        0.389        0.076       78.978       15.134        0.037      330.148       -2.665      867.012
11/05/2013  06:40:00      -88.317      -35.361       -0.472       31.801       18.951       20.007     1011.307      359.148      400.298        0.541        0.089       95.133       20.953        0.049      330.320       -2.383      866.998
11/05/2013  06:41:00      -77.366      -41.795       -2.623       32.009       23.744       15.343     1024.608      563.791      235.415        0.478        0.091       87.933       11.420        0.017      330.355       -2.325      866.990
11/05/2013  06:42:00      -54.557      -37.910        0.551       36.952       20.052       15.444     1365.471      402.101      238.526        0.321        0.100       66.435       17.512        0.069      330.379       -2.287      866.986
11/05/2013  06:43:00      -96.343      -53.666       -4.217       22.554       18.075       18.715      508.705      326.690      350.252        0.668        0.059      110.281       14.214        0.017      330.363       -2.312      866.999
11/05/2013  06:44:00      -92.069      -53.388       -5.320       22.062       16.080       13.955      486.725      258.571      194.728        0.615        0.047      106.428       10.820        0.010      330.368       -2.305      867.015
11/05/2013  06:45:00     -112.924      -54.114      -14.957       16.365       14.372       13.397      267.829      206.563      179.490        0.828        0.033      125.220        8.530        0.005      330.422       -2.216      867.029
11/05/2013  06:46:00     -105.289      -52.641       -6.497       20.165       17.311       14.804      406.622      299.670      219.147        0.741        0.046      117.715       12.702        0.012      330.411       -2.234      867.030
11/05/2013  06:47:00      -92.653      -43.949       -3.109       32.260       22.079       20.919     1040.707      487.493      437.606        0.625        0.098      102.548       15.618        0.023      330.336       -2.356      867.033
11/05/2013  06:48:00      -78.615      -39.124        4.335       38.747       27.284       19.972     1501.322      744.405      398.867        0.519        0.132       87.812       17.813        0.041      330.404       -2.244      867.025
11/05/2013  06:49:00     -103.897      -51.782      -12.956       13.939       19.790       13.266      194.288      391.633      175.994        0.720        0.038      116.086        6.718        0.003      330.410       -2.234      867.030
11/05/2013  06:50:00      -48.681      -29.034       -2.859       24.838       26.563       18.097      616.905      705.617      327.504        0.244        0.083       56.682       14.953        0.070      330.409       -2.237      867.057
11/05/2013  06:51:00      -84.316      -10.339      -10.756       25.059       15.466       18.986      627.974      239.185      360.461        0.428        0.061       84.947       16.099        0.036      330.332       -2.364      867.075
11/05/2013  06:52:00      -98.240      -42.891      -12.029       20.718       24.338       14.924      429.255      592.323      222.722        0.644        0.062      107.195        7.818        0.005      330.371       -2.300      867.103
11/05/2013  06:53:00     -115.186      -46.415       -3.091       36.056       24.617       16.875     1300.006      606.003      284.771        0.881        0.110      124.186       18.590        0.022      330.401       -2.250      867.103
11/05/2013  06:54:00     -122.949      -38.429       -1.710       25.165       26.334       17.644      633.282      693.475      311.311        0.912        0.082      128.814       14.393        0.012      330.415       -2.227      867.089
11/05/2013  06:55:00      -91.907      -45.713        3.866       38.031       30.666       20.618     1446.327      940.416      425.109        0.668        0.141      102.648       17.875        0.030      330.514       -2.064      867.083
11/05/2013  06:56:00      -88.084      -35.495        1.497       28.011       28.152       15.735      784.611      792.556      247.606        0.542        0.091       94.966       12.468        0.017      330.540       -2.021      867.098
11/05/2013  06:57:00      -64.000      -35.288        4.551       36.755       24.093       17.681     1350.902      580.451      312.626        0.380        0.112       73.084       12.921        0.031      330.602       -1.919      867.127
11/05/2013  06:58:00      -94.263      -48.251       -4.859       19.802       20.448       17.559      392.101      418.128      308.322        0.618        0.056      105.894       13.586        0.016      330.658       -1.826      867.153
11/05/2013  06:59:00      -76.919      -38.899       -4.368       19.570       25.625       15.775      382.971      656.665      248.846        0.437        0.064       86.196       12.088        0.020      330.686       -1.784      867.165
11/05/2013  07:00:00      -88.466      -43.152       -5.631       24.834       23.634       14.065      616.722      558.548      197.813        0.555        0.069       98.429        9.744        0.010      330.747       -1.683      867.172
11/05/2013  07:01:00     -113.468      -46.834       -9.019       20.321       19.356       15.723      412.959      374.654      247.228        0.809        0.052      122.753       10.498        0.007      330.815       -1.572      867.214
11/05/2013  07:02:00     -108.111      -48.405        0.940       50.127       31.534       19.058     2512.743      994.368      363.206        0.895        0.194      118.453       24.149        0.042      330.817       -1.568      867.270
11/05/2013  07:03:00      -89.993      -24.361        0.561       33.616       27.124       19.232     1130.033      735.691      369.866        0.546        0.112       93.232       16.813        0.033      330.788       -1.615      867.336
11/05/2013  07:04:00     -114.546       -2.223       -8.586       39.484       21.389       18.986     1558.978      457.504      360.483        0.779        0.119      114.568       18.580        0.026      330.711       -1.739      867.385
11/05/2013  07:05:00      -90.698      -10.873       -3.043       27.900       23.971       20.034      778.412      574.613      401.371        0.505        0.088       91.348       17.628        0.037      330.664       -1.818      867.416
11/05/2013  07:06:00     -125.488       22.028      -10.140       34.614       23.400       15.412     1198.122      547.567      237.517        0.916        0.099      127.406       14.263        0.013      330.648       -1.843      867.417
11/05/2013  07:07:00     -106.432       11.066       -8.987       18.077       16.566       12.603      326.766      274.423      158.830        0.615        0.038      107.006        8.408        0.006      330.653       -1.837      867.428
11/05/2013  07:08:00      -97.827        4.186      -13.062       24.838       17.814       17.315      616.915      317.350      299.812        0.550        0.062       97.917       13.072        0.018      330.688       -1.778      867.439
11/05/2013  07:09:00     -119.066        6.223      -13.713       26.678       21.080       15.700      711.717      444.385      246.505        0.790        0.070      119.228       14.563        0.015      330.688       -1.778      867.459
11/05/2013  07:10:00     -113.238        8.171       -7.816       22.255       19.634       16.528      495.271      385.512      273.189        0.705        0.058      113.532       14.082        0.015      330.728       -1.712      867.461
11/05/2013  07:11:00     -106.945       26.993      -11.721       34.946       26.978       18.250     1221.243      727.795      333.078        0.729        0.114      110.299       15.008        0.019      330.691       -1.774      867.464
11/05/2013  07:12:00     -108.739       10.013      -15.766       22.825       27.659       13.965      520.997      765.035      195.030        0.683        0.074      109.199        8.847        0.007      330.756       -1.669      867.488
11/05/2013  07:13:00      -90.645       -8.538        0.727       33.103       29.841       16.743     1095.784      890.466      280.322        0.528        0.113       91.047       17.339        0.036      330.782       -1.625      867.514
11/05/2013  07:14:00      -91.077       -3.302       -3.593       31.626       21.515       17.591     1000.198      462.884      309.448        0.505        0.089       91.137       18.618        0.042      330.833       -1.541      867.532
11/05/2013  07:15:00      -81.343        6.294       -5.557       24.378       16.436       16.270      594.308      270.130      264.719        0.391        0.056       81.586       17.442        0.046      330.911       -1.412      867.542
11/05/2013  07:16:00      -36.720       -7.467       -3.770       24.776       11.248       10.146      613.858      126.520      102.943        0.113        0.042       37.472       10.214        0.074      331.041       -1.199      867.552
11/05/2013  07:17:00       -5.222       12.895       -6.083        8.724       10.582       10.505       76.113      111.985      110.349        0.026        0.015       13.912        6.682        0.231      331.258       -0.843      867.553
11/05/2013  07:18:00        0.528       19.979        8.243       11.211       12.303       10.409      125.688      151.354      108.344        0.043        0.019       19.986        3.512        0.031      331.294       -0.783      867.555
11/05/2013  07:19:00        3.434       16.187       24.911        7.384       11.228        8.217       54.520      126.069       67.523        0.057        0.012       16.547        3.482        0.044      331.500       -0.445      867.554
11/05/2013  07:20:00       -6.782       14.253       14.652       11.311       11.757        9.152      127.929      138.238       83.760        0.041        0.017       15.785        5.003        0.100      331.479       -0.479      867.533
11/05/2013  07:21:00       -4.013       15.486       25.955       12.484       15.855       14.317      155.852      251.392      204.978        0.077        0.031       15.998       14.203        0.788      331.577       -0.317      867.507
11/05/2013  07:22:00       12.013       29.884       36.591       17.444       16.740        6.192      304.278      280.232       38.341        0.150        0.031       32.208        4.932        0.023      331.639       -0.215      867.495
11/05/2013  07:23:00       -4.787       20.428       40.400        5.520       12.259        6.969       30.473      150.274       48.572        0.115        0.011       20.981        5.966        0.081      331.655       -0.189      867.500
11/05/2013  07:24:00        0.688       17.513       35.474        9.494       17.560        8.684       90.128      308.363       75.419        0.102        0.024       17.526       10.046        0.329      331.720       -0.083      867.511
11/05/2013  07:25:00       21.691      -32.136       10.770       24.441       37.054       24.215      597.369     1372.977      586.380        0.209        0.128       38.771       24.991        0.415      331.686       -0.138      867.526
11/05/2013  07:26:00       16.011      -69.540       -4.495       23.746       26.327       13.252      563.891      693.128      175.614        0.327        0.072       71.359        9.563        0.018      331.677       -0.153      867.526
11/05/2013  07:27:00      -32.559      -31.516        3.395       21.370       14.185       14.487      456.681      201.226      209.867        0.147        0.043       45.314        6.634        0.021      331.504       -0.439      867.497
11/05/2013  07:28:00      -43.191      -16.680       -9.137       10.913        8.859        8.131      119.093       78.477       66.121        0.125        0.013       46.300        4.870        0.011      331.352       -0.688      867.483
11/05/2013  07:29:00      -18.037       -9.432       11.020       30.266       22.237       19.286      916.004      494.494      371.939        0.116        0.089       20.355       21.884        1.156      331.599       -0.282      867.495
11/05/2013  07:30:00        0.925       -5.096       11.624       15.975       15.307       15.769      255.190      234.291      248.666        0.045        0.037        5.179       10.581        4.174      331.783        0.021      867.521
11/05/2013  07:31:00      -25.346       -7.915        2.242       28.157       22.567       14.261      792.832      509.276      203.380        0.111        0.075       26.553        7.360        0.077      331.577       -0.318      867.555
11/05/2013  07:32:00      -33.749        2.265       -5.983       23.519       18.602       15.069      553.136      346.048      227.070        0.115        0.056       33.825        9.246        0.075      331.560       -0.347      867.585
11/05/2013  07:33:00      -11.306       22.092       18.054       36.350       31.186       16.219     1321.295      972.597      263.040        0.175        0.128       24.817       22.466        0.820      331.652       -0.196      867.613
11/05/2013  07:34:00        0.639       51.417       24.652       24.579       34.103       27.938      604.139     1162.990      780.543        0.290        0.127       51.421       19.066        0.137      331.896        0.209      867.645
11/05/2013  07:35:00      -33.767       37.132       40.006       24.929       22.810       25.753      621.440      520.288      663.238        0.296        0.090       50.189       18.164        0.131      331.730       -0.066      867.685
11/05/2013  07:36:00      -16.017       15.054       13.004       12.838       14.331       16.833      164.809      205.369      283.354        0.065        0.033       21.981        9.957        0.205      331.862        0.152      867.713
11/05/2013  07:37:00      -13.404       21.413       35.207       15.238       25.770       22.081      232.201      664.109      487.556        0.163        0.069       25.263       20.145        0.636      331.966        0.322      867.733
11/05/2013  07:38:00       -5.556        4.277       37.126       10.337       28.523       16.386      106.850      813.564      268.501        0.131        0.059        7.012       16.227        5.355      332.119        0.575      867.739
11/05/2013  07:39:00       -3.750       16.010       25.905        9.712       14.215       16.844       94.325      202.054      283.733        0.076        0.029       16.444        9.699        0.348      332.082        0.512      867.744
11/05/2013  07:40:00      -16.375       -2.197        7.556       10.852        5.757        7.166      117.776       33.141       51.354        0.027        0.010       16.522        3.939        0.057      331.875        0.174      867.751
11/05/2013  07:41:00       -0.497        5.792       19.826       30.493       19.008       22.296      929.846      361.310      497.120        0.111        0.089        5.814       13.859        5.682      332.043        0.450      867.766
11/05/2013  07:42:00      -20.931      -12.753       14.348       19.054       26.393       13.723      363.060      696.612      188.320        0.103        0.062       24.510       14.861        0.368      331.818        0.079      867.774
11/05/2013  07:43:00      -24.222      -10.774       11.948       19.934       27.332       23.586      397.372      747.060      556.277        0.127        0.085       26.510       20.993        0.627      331.893        0.202      867.783
11/05/2013  07:44:00       18.834      -66.252      -10.511       20.222       25.798       17.066      408.914      665.523      291.240        0.311        0.068       68.877       14.986        0.047      331.766       -0.006      867.795
11/05/2013  07:45:00       -1.902        5.137      -11.230       18.164       13.584       13.267      329.921      184.531      176.010        0.042        0.035        5.478       11.267        4.230      331.968        0.326      867.813
11/05/2013  07:46:00       -2.009       12.070        7.506       19.779       13.091       11.924      391.202      171.380      142.190        0.046        0.035       12.236        8.857        0.524      332.022        0.415      867.837
11/05/2013  07:47:00      -26.044       16.085        6.151       11.891       11.769       18.315      141.394      138.518      335.444        0.079        0.031       30.611        5.966        0.038      331.808        0.062      867.849
11/05/2013  07:48:00      -25.872       17.593       -8.316       18.603       17.243        9.522      346.056      297.312       90.672        0.089        0.037       31.287        8.449        0.073      331.895        0.204      867.852
11/05/2013  07:49:00      -54.214       16.959       -5.067       13.841       11.494       10.094      191.564      132.101      101.881        0.184        0.021       56.805        6.597        0.013      331.710       -0.097      867.839
11/05/2013  07:50:00      -26.802        5.361        1.940        9.567        8.198        8.127       91.524       67.214       66.055        0.049        0.011       27.332        5.398        0.039      331.856        0.142      867.833
11/05/2013  07:51:00      -27.424       -7.366       -8.064       12.965        9.052       11.147      168.093       81.943      124.253        0.062        0.019       28.396        6.197        0.048      331.970        0.328      867.834
11/05/2013  07:52:00        1.648       18.249        9.962       13.412       32.661       14.630      179.881     1066.717      214.033        0.095        0.073       18.323       14.085        0.591      332.455        1.128      867.849
11/05/2013  07:53:00       59.751       30.747       14.279       33.851       18.908       24.155     1145.885      357.496      583.462        0.340        0.104       67.198       17.195        0.065      332.144        0.615      867.861
11/05/2013  07:54:00       60.609       42.323       11.862       19.655       21.120       23.127      386.326      446.062      534.880        0.349        0.068       73.923       10.565        0.020      331.991        0.364      867.881
11/05/2013  07:55:00       22.295       36.554        0.426       16.648       17.742       13.691      277.146      314.780      187.437        0.131        0.039       42.816        5.368        0.016      332.073        0.500      867.882
11/05/2013  07:56:00       26.060       28.832       18.303       26.800       27.704       26.655      718.231      767.493      710.488        0.202        0.110       38.863       12.464        0.103      332.285        0.849      867.873
11/05/2013  07:57:00       34.047       51.289       -1.217       29.558       16.545       21.392      873.683      273.729      457.636        0.270        0.080       61.561       10.735        0.030      332.190        0.691      867.865
11/05/2013  07:58:00       -4.559       13.723       19.853       15.216       17.798       13.451      231.516      316.784      180.934        0.067        0.036       14.460       12.232        0.716      332.645        1.442      867.863
11/05/2013  07:59:00       -4.717        6.399       25.141       20.858       16.968       12.557      435.062      287.919      157.680        0.079        0.044        7.949        7.441        0.876      332.618        1.397      867.865
11/05/2013  08:00:00      -15.273      -16.674       13.625       13.978       15.572        9.741      195.391      242.502       94.888        0.061        0.027       22.612        8.084        0.128      332.387        1.018      867.880
11/05/2013  08:01:00      -18.899       -5.069       22.843       10.171       23.325       20.866      103.441      544.058      435.377        0.099        0.054       19.567       19.659        1.009      332.537        1.264      867.880
11/05/2013  08:02:00        0.748       23.947       38.306       16.259       24.810       19.399      264.364      615.559      376.325        0.165        0.063       23.959       12.728        0.282      332.835        1.755      867.876
11/05/2013  08:03:00       43.891       25.337        9.191       44.723       21.599       26.601     2000.106      466.538      707.636        0.291        0.159       50.679       28.237        0.310      332.525        1.245      867.867
11/05/2013  08:04:00       66.550       62.458        3.503       31.653       28.573       25.129     1001.910      816.422      631.465        0.540        0.122       91.269       15.535        0.029      332.194        0.698      867.861
11/05/2013  08:05:00       57.014       59.092       31.242       33.378       31.053       30.193     1114.088      964.314      911.628        0.535        0.150       82.112       19.220        0.055      332.378        1.001      867.875
11/05/2013  08:06:00       21.741       37.041       47.356       26.523       27.108       19.030      703.466      734.836      362.138        0.294        0.090       42.950        8.664        0.041      332.838        1.762      867.900
11/05/2013  08:07:00       -1.557       22.276       41.281       30.840       24.305       14.363      951.078      590.751      206.296        0.198        0.087       22.331       11.189        0.251      332.881        1.833      867.905
11/05/2013  08:08:00       -4.911        6.649       36.064       22.121       33.665       19.730      489.347     1133.322      389.281        0.169        0.101        8.266       18.842        5.195      332.830        1.748      867.900
11/05/2013  08:09:00        7.463       22.477        8.270       21.354       24.680       25.938      455.993      609.122      672.792        0.118        0.087       23.684       22.434        0.897      332.854        1.787      867.883
11/05/2013  08:10:00       22.763       32.381       42.414       33.880       24.471       22.147     1147.830      598.829      490.506        0.280        0.112       39.582       18.671        0.223      332.735        1.591      867.860
11/05/2013  08:11:00       26.908       57.671       57.212       30.463       25.342       19.017      927.998      642.209      361.660        0.463        0.097       63.640        8.191        0.017      332.612        1.387      867.841
11/05/2013  08:12:00       15.058       54.151       69.694       21.816       43.791       18.267      475.946     1917.694      333.696        0.537        0.136       56.206       17.467        0.097      332.643        1.440      867.827
11/05/2013  08:13:00       28.558       38.301       52.077       31.145       31.822       25.679      969.998     1012.612      659.390        0.382        0.132       47.776       21.335        0.199      332.629        1.416      867.821
11/05/2013  08:14:00       32.088       59.483       51.931       36.615       34.001       32.877     1340.674     1156.075     1080.895        0.542        0.179       67.586       33.198        0.241      332.582        1.339      867.824
11/05/2013  08:15:00       63.399       27.447       32.714       30.520       21.428       27.340      931.446      459.177      747.480        0.399        0.107       69.085       20.453        0.088      332.502        1.207      867.826
11/05/2013  08:16:00       36.139       80.443       63.112       41.674       31.387       33.803     1736.759      985.150     1142.626        0.781        0.193       88.188       30.421        0.119      332.664        1.475      867.821
11/05/2013  08:17:00       75.212       85.297       80.374       54.909       56.522       48.797     3015.047     3194.792     2381.137        1.399        0.430      113.721       44.697        0.154      332.575        1.327      867.824
11/05/2013  08:18:00       69.035       92.169       87.224       46.874       40.823       34.805     2197.140     1666.498     1211.386        1.297        0.254      115.157       27.921        0.059      332.559        1.301      867.835
11/05/2013  08:19:00      107.470       95.478       65.358       31.038       23.925       28.932      963.371      572.408      837.088        1.365        0.119      143.756       21.027        0.021      332.405        1.047      867.850
11/05/2013  08:20:00       69.125       67.093       41.847       35.610       33.821       36.935     1268.038     1143.835     1364.207        0.740        0.189       96.332       26.255        0.074      332.531        1.254      867.857
11/05/2013  08:21:00       80.950       58.567        6.633       27.358       26.535       28.354      748.470      704.131      803.941        0.614        0.113       99.916       15.668        0.025      332.463        1.142      867.859
11/05/2013  08:22:00       58.942       59.689       19.054       34.636       32.881       32.926     1199.667     1081.169     1084.133        0.538        0.168       83.887       22.268        0.070      332.712        1.554      867.846
11/05/2013  08:23:00       58.013       27.157      -11.001       34.953       44.998       31.907     1221.719     2024.804     1018.068        0.424        0.213       64.055       12.067        0.035      332.743        1.604      867.841
11/05/2013  08:24:00       -5.967      -17.903       28.514       26.399       35.817       22.673      696.931     1282.882      514.066        0.183        0.125       18.871       10.015        0.282      333.240        2.425      867.821
11/05/2013  08:25:00       -7.542       34.062       76.131       25.302       57.560       35.101      640.196     3313.208     1232.062        0.610        0.259       34.887       38.424        1.213      333.156        2.286      867.801
11/05/2013  08:26:00       13.661       62.474       85.995       31.402       35.925       21.395      986.112     1290.613      457.737        0.711        0.137       63.951       18.878        0.087      333.060        2.127      867.772
11/05/2013  08:27:00       60.905       78.859       71.495       46.701       37.302       41.016     2181.020     1391.463     1682.307        1.015        0.263       99.640       21.647        0.047      332.857        1.792      867.732
11/05/2013  08:28:00       84.395       86.763       88.650       56.326       59.152       45.387     3172.577     3499.008     2059.956        1.562        0.437      121.039       40.935        0.114      332.732        1.586      867.695
11/05/2013  08:29:00       57.982      -19.404       41.620       47.075       52.930       42.504     2216.032     2801.636     1806.614        0.615        0.341       61.143       31.234        0.261      333.027        2.073      867.681
11/05/2013  08:30:00       20.277       27.082       58.028       50.398       74.881       50.430     2539.991     5607.194     2543.156        0.760        0.535       33.832       61.126        3.264      333.040        2.096      867.692
11/05/2013  08:31:00       20.775       -2.129       41.477       37.223       47.144       34.418     1385.552     2222.516     1184.596        0.347        0.240       20.884       37.423        3.211      333.149        2.275      867.711
11/05/2013  08:32:00       64.259       68.737       59.860       44.554       30.745       32.891     1985.029      945.245     1081.798        0.822        0.201       94.096       29.271        0.097      332.835        1.756      867.730
11/05/2013  08:33:00       69.596       52.464       10.506       22.782       31.379       24.117      519.029      984.634      581.623        0.490        0.104       87.155       22.420        0.066      332.707        1.544      867.757
11/05/2013  08:34:00       22.554      -36.283       17.299       26.981       35.326       23.551      727.972     1247.946      554.638        0.233        0.127       42.722       15.117        0.125      333.109        2.208      867.782
11/05/2013  08:35:00        5.020       22.056       21.940       30.428       37.239       39.230      925.891     1386.729     1539.010        0.242        0.193       22.620       25.691        1.290      333.092        2.182      867.810
11/05/2013  08:36:00       44.241       51.014       63.643       43.806       34.315       27.475     1918.955     1177.513      754.898        0.623        0.193       67.526       18.218        0.073      333.194        2.349      867.821
11/05/2013  08:37:00       63.766       43.639       31.969       42.354       33.950       31.476     1793.820     1152.598      990.761        0.546        0.197       77.269       26.037        0.114      333.091        2.180      867.848
11/05/2013  08:38:00        5.676       26.638       67.925       28.552       38.359       18.916      815.231     1471.436      357.801        0.400        0.132       27.236       17.634        0.419      333.428        2.735      867.867
11/05/2013  08:39:00       24.380       -0.924       61.337       40.898       65.452       30.138     1672.633     4284.001      908.295        0.561        0.343       24.397       35.390        2.104      333.531        2.906      867.884
11/05/2013  08:40:00       30.537       41.751       45.326       46.576       49.296       39.235     2169.336     2430.083     1539.408        0.543        0.307       51.727       32.999        0.407      333.333        2.579      867.899
11/05/2013  08:41:00      101.916       54.420        9.955       54.086       43.610       41.211     2925.302     1901.793     1698.366        0.999        0.326      115.535       29.875        0.067      332.990        2.011      867.910
11/05/2013  08:42:00       80.886       61.964       10.730       52.497       37.693       37.434     2755.906     1420.751     1401.297        0.804        0.279      101.893       25.015        0.060      333.280        2.491      867.920
11/05/2013  08:43:00      105.688       54.219       -1.642       36.160       31.440       32.182     1307.576      988.452     1035.712        0.872        0.167      118.784       20.237        0.029      333.063        2.133      867.914
11/05/2013  08:44:00       61.387       75.392       37.339       63.814       56.825       56.009     4072.220     3229.080     3137.038        1.064        0.522       97.223       35.259        0.132      333.245        2.434      867.890
11/05/2013  08:45:00       40.373       89.683      107.733       40.496       39.152       19.982     1639.947     1532.844      399.277        1.243        0.179       98.351       20.089        0.042      333.172        2.312      867.861
11/05/2013  08:46:00       69.963       64.313       81.339       52.631       40.757       33.813     2770.040     1661.098     1143.348        1.061        0.279       95.031       31.762        0.112      333.116        2.221      867.834
11/05/2013  08:47:00      105.883       77.000       41.750       24.182       31.275       36.650      584.766      978.099     1343.201        1.089        0.145      130.921       20.950        0.026      332.930        1.913      867.813
11/05/2013  08:48:00      102.420       60.919       31.030       18.064       17.825       24.717      326.318      317.717      610.907        0.821        0.063      119.167       14.956        0.016      332.894        1.853      867.802
11/05/2013  08:49:00       89.669       95.345       70.209       50.419       33.227       39.204     2542.062     1104.011     1536.971        1.362        0.259      130.886       33.390        0.065      333.226        2.402      867.812
11/05/2013  08:50:00       30.343       95.216       93.025       46.846       47.434       37.844     2194.530     2249.950     1432.143        1.226        0.294       99.934       26.251        0.069      333.351        2.610      867.816
11/05/2013  08:51:00       78.406      103.382       78.957       45.002       33.378       40.358     2025.174     1114.094     1628.797        1.392        0.238      129.751       29.310        0.051      333.145        2.269      867.825
11/05/2013  08:52:00       61.076       56.496       45.921       33.523       27.700       34.344     1123.796      767.306     1179.518        0.605        0.154       83.199       21.561        0.067      333.235        2.416      867.825
11/05/2013  08:53:00       29.625       48.288       26.582       29.294       23.901       28.161      858.166      571.251      793.061        0.307        0.111       56.651       17.331        0.094      333.414        2.713      867.831
11/05/2013  08:54:00       53.613       45.061        9.785       25.066       21.403       26.660      628.280      458.094      710.759        0.340        0.090       70.034       13.046        0.035      333.603        3.025      867.833
11/05/2013  08:55:00       66.923       52.902        1.008       21.752       34.700       28.492      473.129     1204.086      811.816        0.488        0.124       85.308       13.240        0.024      333.567        2.967      867.833
11/05/2013  08:56:00       45.511       36.331        3.837       21.255       18.833       23.844      451.777      354.677      568.531        0.239        0.069       58.234       11.572        0.039      333.716        3.214      867.832
11/05/2013  08:57:00       17.644       44.646       17.792       39.126       37.991       32.082     1530.836     1443.330     1029.269        0.331        0.200       48.006       19.191        0.160      333.934        3.574      867.837
11/05/2013  08:58:00       51.068       34.812        5.875       34.843       21.827       25.620     1214.058      476.426      656.406        0.310        0.117       61.805       14.727        0.057      333.578        2.983      867.840
11/05/2013  08:59:00       47.546       32.331      -10.472       37.567       42.806       17.784     1411.300     1832.331      316.270        0.349        0.178       57.497       17.384        0.091      333.810        3.370      867.839
11/05/2013  09:00:00       17.018       33.102       37.323       40.844       36.302       33.738     1668.256     1317.842     1138.256        0.345        0.206       37.221       25.488        0.469      334.057        3.779      867.835
11/05/2013  09:01:00       33.763       29.520       27.091       38.677       40.232       25.031     1495.904     1618.584      626.563        0.324        0.187       44.848       17.913        0.160      333.918        3.549      867.829
11/05/2013  09:02:00       -3.695      -12.733        5.915       16.951       39.162       22.301      287.350     1533.701      497.349        0.126        0.116       13.258       17.705        1.783      334.229        4.065      867.829
11/05/2013  09:03:00      -18.400       27.219       27.945       22.149       26.827       19.292      490.562      719.705      372.177        0.172        0.079       32.855       14.512        0.195      334.176        3.977      867.842
11/05/2013  09:04:00       -9.634       13.315       28.477       27.886       20.359       19.538      777.625      414.498      381.729        0.133        0.079       16.434       11.438        0.484      334.252        4.103      867.855
11/05/2013  09:05:00       39.722       49.675       10.227       54.485       40.427       38.655     2968.576     1634.302     1494.195        0.512        0.305       63.604       20.261        0.101      333.766        3.295      867.866
11/05/2013  09:06:00       60.582       37.055        7.604       45.151       25.207       26.813     2038.575      635.385      718.946        0.425        0.170       71.016       20.098        0.080      333.848        3.432      867.880
11/05/2013  09:07:00       53.148       77.826        3.038       26.022       37.337       33.202      677.125     1394.089     1102.354        0.603        0.159       94.242       26.384        0.078      333.729        3.234      867.893
11/05/2013  09:08:00       76.395       52.918       -9.026       32.344       26.275       28.545     1046.156      690.354      814.819        0.563        0.128       92.933       12.735        0.019      333.680        3.153      867.894
11/05/2013  09:09:00       51.436       49.118       -4.438       46.849       51.419       35.786     2194.836     2643.947     1280.667        0.560        0.306       71.121       28.702        0.163      333.758        3.282      867.907
11/05/2013  09:10:00       23.612      113.525      -17.606       29.574       52.034       30.423      874.619     2707.586      925.532        0.913        0.225      115.954       26.715        0.053      333.501        2.859      867.930
11/05/2013  09:11:00      -12.562       77.644        0.056       22.712       37.756       23.241      515.845     1425.528      540.166        0.433        0.124       78.654       20.670        0.069      333.921        3.553      867.960
11/05/2013  09:12:00        4.339      117.911      -16.218       18.877       39.716       21.006      356.322     1577.341      441.235        0.828        0.119      117.991       22.338        0.036      333.625        3.063      867.991
11/05/2013  09:13:00      -15.421       47.216        7.363       22.089       44.288       21.809      487.911     1961.448      475.626        0.272        0.146       49.671       23.238        0.219      334.025        3.726      868.016
11/05/2013  09:14:00        7.163        8.054       21.198       24.514       17.607       22.001      600.934      310.006      484.041        0.098        0.070       10.778       14.163        1.727      334.301        4.184      868.022
11/05/2013  09:15:00      -48.161       24.949       -8.729       29.350       15.819       13.566      861.439      250.240      184.041        0.216        0.065       54.240        8.657        0.025      333.754        3.276      868.023
11/05/2013  09:16:00       18.685       33.510       14.703       90.658       25.022       25.253     8218.882      626.076      637.706        0.558        0.474       38.368       11.733        0.094      334.068        3.798      868.036
11/05/2013  09:17:00      116.083       48.305        3.565       56.867       34.116       34.194     3233.899     1163.922     1169.209        1.069        0.278      125.732       19.937        0.025      333.836        3.410      868.039
11/05/2013  09:18:00       69.469       45.531       -2.912       50.647       31.447       24.677     2565.099      988.935      608.953        0.553        0.208       83.060       21.092        0.064      333.918        3.548      868.033
11/05/2013  09:19:00       -1.670       78.497      -18.442       22.407       39.850       16.530      502.069     1588.060      273.242        0.443        0.118       78.515        9.909        0.016      334.099        3.847      868.032
11/05/2013  09:20:00      -32.027       71.883      -13.741       45.348       33.395       22.290     2056.445     1115.237      496.866        0.502        0.183       78.695       21.301        0.073      334.106        3.860      868.035
11/05/2013  09:21:00      -49.272       34.101       15.420       56.401       37.339       29.643     3181.118     1394.200      878.711        0.464        0.273       59.921       18.452        0.095      334.405        4.357      868.039
11/05/2013  09:22:00      -46.008       54.842       -4.783       37.217       31.620       29.610     1385.070      999.830      876.747        0.420        0.163       71.585       20.681        0.083      333.994        3.674      868.034
11/05/2013  09:23:00       29.631       52.988        4.082       39.903       50.705       39.496     1592.271     2571.040     1559.914        0.471        0.286       60.710       30.266        0.249      334.414        4.373      868.028
11/05/2013  09:24:00       43.327       45.796       16.237       52.936       53.611       33.175     2802.236     2874.087     1100.583        0.551        0.339       63.044       24.764        0.154      334.213        4.038      868.020
11/05/2013  09:25:00       23.376       99.081      -13.345       33.326       46.244       30.702     1110.609     2138.552      942.621        0.737        0.210      101.801       27.474        0.073      334.023        3.722      868.011
11/05/2013  09:26:00       -1.887       17.021      -10.750       16.854       42.350       19.008      284.049     1793.518      361.299        0.142        0.122       17.126       12.759        0.555      334.078        3.815      868.014
11/05/2013  09:27:00       11.579       85.976      -22.342       23.248       36.915       17.531      540.463     1362.734      307.340        0.512        0.111       86.752        8.376        0.009      333.927        3.563      868.023
11/05/2013  09:28:00       20.037       39.327       -5.486       29.201       24.281       24.921      852.698      589.567      621.066        0.202        0.103       44.137       15.722        0.127      334.436        4.409      868.036
11/05/2013  09:29:00       47.027       74.937       -4.884       33.931       38.607       33.419     1151.322     1490.499     1116.812        0.580        0.188       88.471       26.158        0.087      334.292        4.169      868.044
11/05/2013  09:30:00       46.673       53.539        2.809       27.914       27.411       20.380      779.213      751.340      415.364        0.350        0.097       71.027        8.865        0.016      334.480        4.481      868.060
11/05/2013  09:31:00        1.032       41.112       48.034       24.114       37.330       39.704      581.477     1393.506     1576.371        0.377        0.178       41.125       24.100        0.343      335.070        5.460      868.059
11/05/2013  09:32:00       -3.738       54.335       94.448       37.778       48.835       38.175     1427.179     2384.872     1457.340        0.858        0.263       54.463       35.657        0.429      334.768        4.958      868.041
11/05/2013  09:33:00       -4.829       91.640      107.181       32.131       51.579       28.956     1032.407     2660.389      838.455        1.222        0.227       91.767       28.613        0.097      334.605        4.687      868.033
11/05/2013  09:34:00       20.285       90.097       91.353       45.233       35.501       33.139     2046.043     1260.342     1098.226        1.064        0.220       92.352       33.245        0.130      334.528        4.559      868.026
11/05/2013  09:35:00       61.119       96.902       68.125       53.666       33.356       30.518     2880.014     1112.626      931.327        1.134        0.246      114.566       25.228        0.048      334.583        4.651      868.033
11/05/2013  09:36:00       28.470       51.004       24.695       28.033       28.473       34.364      785.870      810.738     1180.894        0.340        0.139       58.412       21.589        0.137      334.542        4.582      868.053
11/05/2013  09:37:00        7.765       45.499       51.147       32.336       48.075       39.806     1045.647     2311.231     1584.534        0.484        0.247       46.157       33.713        0.533      334.859        5.110      868.056
11/05/2013  09:38:00        9.352       16.832       53.122       32.551       41.731       26.651     1059.548     1741.485      710.278        0.335        0.176       19.255       13.261        0.474      335.116        5.538      868.070
11/05/2013  09:39:00       45.520      101.052      103.440       50.595       37.236       40.617     2559.897     1386.497     1649.737        1.429        0.280      110.831       36.644        0.109      334.647        4.758      868.091
11/05/2013  09:40:00      124.974       94.731       45.461       60.511       33.503       50.120     3661.636     1122.453     2512.043        1.698        0.365      156.820       45.532        0.084      334.302        4.183      868.111
11/05/2013  09:41:00      145.596       76.319        7.830       47.956       47.632       28.141     2299.825     2268.820      791.936        1.622        0.268      164.386       20.914        0.016      334.209        4.030      868.121
11/05/2013  09:42:00       36.728       44.735        5.845       38.889       37.921       22.847     1512.378     1437.994      521.984        0.343        0.174       57.881       19.467        0.113      334.308        4.193      868.098
11/05/2013  09:43:00       25.295       44.649       47.885       39.903       37.481       38.967     1592.214     1404.808     1518.458        0.472        0.226       51.317       18.597        0.131      334.981        5.313      868.075
11/05/2013  09:44:00       83.807       76.413       78.995       53.251       54.665       46.603     2835.704     2988.240     2171.832        1.355        0.400      113.413       39.494        0.121      334.623        4.718      868.051
11/05/2013  09:45:00       63.694      -18.527       19.700       44.469       93.720       37.586     1977.507     8783.350     1412.681        0.848        0.609       66.334       28.983        0.191      334.577        4.641      868.021
11/05/2013  09:46:00       83.733        3.502       48.807       72.317      101.710       63.777     5229.702    10344.912     4067.489        1.452        0.982       83.806       75.016        0.801      334.805        5.020      868.010
11/05/2013  09:47:00       78.417      -11.478       54.122       57.794      110.670       63.076     3340.137    12247.811     3978.616        1.439        0.978       79.252       74.952        0.894      334.712        4.864      868.004
11/05/2013  09:48:00       49.957       55.382      103.317       54.687       81.209       39.271     2990.625     6594.928     1542.174        1.368        0.556       74.585       46.049        0.381      334.762        4.948      868.017
11/05/2013  09:49:00       65.342       85.942       94.514       63.985       60.616       46.310     4094.082     3674.295     2144.661        1.525        0.496      107.962       48.331        0.200      334.611        4.697      868.028
11/05/2013  09:50:00       75.245       61.632       54.074       35.519       28.630       33.192     1261.573      819.705     1101.676        0.778        0.159       97.264       23.055        0.056      334.484        4.487      868.028
11/05/2013  09:51:00       70.350       68.247       53.280       32.510       28.222       24.633     1056.870      796.491      606.770        0.745        0.123       98.014       15.351        0.025      334.611        4.697      868.015
11/05/2013  09:52:00        8.833       25.311       32.491       27.557       31.707       21.344      759.370     1005.317      455.573        0.200        0.111       26.808        9.438        0.124      335.253        5.766      867.998
11/05/2013  09:53:00       59.455     -116.865       -8.357       50.881       54.196       33.347     2588.908     2937.156     1112.044        1.195        0.332      131.120       29.024        0.049      334.781        4.981      867.998
11/05/2013  09:54:00       52.259     -116.317      -17.940       35.088       53.658       30.080     1231.182     2879.173      904.811        1.080        0.251      127.517       21.800        0.029      334.991        5.328      868.001
11/05/2013  09:55:00       48.002       13.487       56.467       41.814       53.716       41.523     1748.418     2885.377     1724.201        0.602        0.318       49.861       41.846        0.704      335.106        5.520      868.002
11/05/2013  09:56:00       58.403       58.549       60.921       46.167       59.179       45.365     2131.418     3502.101     2057.980        0.912        0.385       82.698       38.327        0.215      335.049        5.425      867.994
11/05/2013  09:57:00       44.603      116.695      116.309       64.922       67.789       60.338     4214.889     4595.291     3640.638        2.079        0.623      124.929       54.130        0.188      334.770        4.961      867.998
11/05/2013  09:58:00      111.302      110.682       88.927       50.282       36.429       37.229     2528.322     1327.049     1385.963        1.889        0.262      156.967       22.162        0.020      334.642        4.748      868.009
11/05/2013  09:59:00       61.293       84.824       48.562       62.646       60.076       62.542     3924.503     3609.119     3911.491        1.238        0.572      104.651       54.961        0.276      334.940        5.245      868.008
11/05/2013  10:00:00      103.214      153.010      117.706       73.030       53.339       65.545     5333.386     2845.032     4296.099        3.020        0.624      184.567       58.100        0.099      334.747        4.922      868.002
11/05/2013  10:01:00       82.924       66.117       11.226       20.169       24.379       22.620      406.769      594.314      511.647        0.644        0.076      106.056        8.867        0.007      334.593        4.668      868.009
11/05/2013  10:02:00       81.895       47.596       -1.195       40.674       31.375       30.183     1654.393      984.368      911.008        0.626        0.177       94.722       11.668        0.015      334.681        4.814      867.996
11/05/2013  10:03:00      124.812       75.919       28.349       58.059       47.308       44.041     3370.834     2238.019     1939.641        1.485        0.377      146.088       34.784        0.057      335.084        5.485      867.974
11/05/2013  10:04:00       61.322       77.409       70.176       56.023       42.236       47.707     3138.561     1783.917     2275.956        1.094        0.360       98.755       38.964        0.156      335.257        5.772      867.932
11/05/2013  10:05:00       98.907       89.437       48.632       48.620       46.749       54.208     2363.869     2185.437     2938.539        1.382        0.374      133.347       39.808        0.089      335.126        5.553      867.887
11/05/2013  10:06:00       28.069       36.895      -14.810       48.313       56.942       29.823     2334.144     3242.435      889.384        0.442        0.323       46.358       18.540        0.160      335.340        5.908      867.861
11/05/2013  10:07:00      -16.991      -47.193        3.364       39.215       46.581       28.599     1537.854     2169.776      817.899        0.353        0.226       50.158       24.518        0.239      335.513        6.196      867.855
11/05/2013  10:08:00       26.486      -19.201       17.125       48.555       41.779       29.062     2357.558     1745.456      844.624        0.315        0.247       32.714       15.704        0.230      335.572        6.295      867.862
11/05/2013  10:09:00       96.529       66.583       17.122       67.309       62.872       43.025     4530.537     3952.860     1851.142        1.219        0.517      117.265       28.623        0.060      335.165        5.617      867.897
11/05/2013  10:10:00      134.208      117.709       48.868       67.342       70.854       44.057     4534.904     5020.292     1941.012        2.287        0.575      178.514       37.110        0.043      334.861        5.111      867.887
11/05/2013  10:11:00       78.406       79.379       32.426       42.798       30.808       43.882     1831.694      949.117     1925.628        0.910        0.235      111.573       26.564        0.057      335.141        5.578      867.891
11/05/2013  10:12:00       26.779       30.706       22.485       60.544       47.500       35.272     3665.622     2256.233     1244.106        0.466        0.358       40.743       24.091        0.350      335.503        6.182      867.872
11/05/2013  10:13:00       88.245       30.149       14.026       74.881       52.942       45.526     5607.107     2802.861     2072.629        0.969        0.524       93.254       36.390        0.152      335.489        6.157      867.871
11/05/2013  10:14:00       19.836       -0.763       47.679       42.629       58.882       48.578     1817.273     3467.052     2359.780        0.515        0.382       19.850       47.619        5.755      335.979        6.973      867.865
11/05/2013  10:15:00        1.106       20.134       88.547       36.041       61.599       34.987     1298.933     3794.453     1224.082        0.728        0.316       20.165       38.208        3.590      335.868        6.789      867.866
11/05/2013  10:16:00       13.378      -61.672       16.627       28.887       90.719       32.267      834.472     8229.921     1041.138        0.718        0.505       63.107       35.446        0.315      335.437        6.071      867.880
11/05/2013  10:17:00       32.653      -13.976       49.406       56.382       90.594       49.375     3178.892     8207.249     2437.850        0.876        0.691       35.518       51.223        2.080      335.627        6.386      867.883
11/05/2013  10:18:00       94.470      -98.135        6.112       66.624       87.561       55.116     4438.756     7666.877     3037.762        1.687        0.757      136.217       53.578        0.155      335.579        6.305      867.881
11/05/2013  10:19:00       39.776       77.653       95.782       58.760       55.571       54.514     3452.758     3088.135     2971.809        1.315        0.476       87.247       45.201        0.268      335.664        6.447      867.897
11/05/2013  10:20:00       51.506        0.472       60.661       66.238       70.122       58.468     4387.478     4917.120     3418.555        0.953        0.636       51.508       50.514        0.962      335.781        6.643      867.891
11/05/2013  10:21:00       16.483      -63.546       20.757       87.869       64.278       48.991     7720.960     4131.685     2400.134        0.949        0.713       65.649       38.261        0.340      335.345        5.916      867.913
11/05/2013  10:22:00      -25.597      -24.905        9.568       37.496       45.604       29.680     1405.941     2079.738      880.912        0.287        0.218       35.714       22.182        0.386      335.928        6.889      867.898
11/05/2013  10:23:00       21.886      -50.786        9.218       43.559       47.385       35.602     1897.354     2245.317     1267.518        0.428        0.271       55.301       24.787        0.201      335.979        6.973      867.904
11/05/2013  10:24:00      -31.049       20.104       23.588       32.123       20.356       23.014     1031.866      414.387      529.657        0.195        0.099       36.989       11.400        0.095      335.733        6.563      867.918
11/05/2013  10:25:00        4.685       -9.317       27.224       25.598       39.821       30.444      655.241     1585.748      926.866        0.201        0.158       10.428       31.134        8.914      335.955        6.933      867.918
11/05/2013  10:26:00      -40.984      -33.409       26.678       46.068       55.423       37.764     2122.292     3071.757     1426.149        0.506        0.331       52.876       41.185        0.607      335.565        6.284      867.912
11/05/2013  10:27:00      -35.909      -40.922       13.917       73.146       33.154       31.680     5350.272     1099.175     1003.601        0.530        0.373       54.444       28.744        0.279      335.744        6.580      867.897
11/05/2013  10:28:00      -98.803      -35.522      -12.623       36.476       39.874       20.934     1330.526     1589.947      438.246        0.727        0.168      104.995       14.463        0.019      335.218        5.707      867.888
11/05/2013  10:29:00      -33.004        5.833       -4.895       48.311       27.293       22.975     2333.961      744.929      527.833        0.238        0.180       33.515       18.321        0.299      335.432        6.062      867.858
11/05/2013  10:30:00       19.824       14.156       45.770       62.278       57.719       44.599     3878.502     3331.433     1989.062        0.594        0.460       24.360       37.564        2.378      335.972        6.962      867.837
11/05/2013  10:31:00       50.128       47.723       51.111       49.767       34.453       31.599     2476.744     1187.038      998.520        0.603        0.233       69.212       23.531        0.116      335.595        6.333      867.804
11/05/2013  10:32:00       33.365      -15.596       14.755       42.160       39.989       30.759     1777.476     1599.143      946.143        0.295        0.216       36.831       26.281        0.509      335.942        6.911      867.788
11/05/2013  10:33:00       47.141       94.674      114.154       80.543       80.407       65.074     6487.235     6465.209     4234.642        2.070        0.859      105.761       62.247        0.346      335.884        6.814      867.773
11/05/2013  10:34:00      112.232       87.827       87.963       63.917       57.856       49.973     4085.325     3347.347     2497.278        1.899        0.496      142.512       31.755        0.050      335.683        6.479      867.778
11/05/2013  10:35:00       66.410      121.014       96.671       64.153       54.546       60.561     4115.668     2975.301     3667.643        1.958        0.538      138.039       53.227        0.149      335.611        6.358      867.769
11/05/2013  10:36:00      103.442       72.154       58.551       48.426       42.945       52.692     2345.046     1844.287     2776.450        1.315        0.348      126.121       28.549        0.051      335.520        6.207      867.762
11/05/2013  10:37:00       88.087       59.482       24.033       50.546       27.775       47.977     2554.917      771.459     2301.838        0.875        0.281      106.289       27.767        0.068      335.638        6.404      867.747
11/05/2013  10:38:00       39.657      113.065      -21.824       30.814       30.654       24.254      949.502      939.692      588.246        0.865        0.124      119.818       17.242        0.021      335.635        6.399      867.735
11/05/2013  10:39:00       64.451       14.829       32.718       48.499       39.578       26.991     2352.141     1566.438      728.523        0.504        0.232       66.135       22.552        0.116      335.823        6.713      867.754
11/05/2013  10:40:00       32.594       26.952       10.145       30.020       30.067       30.063      901.186      904.027      903.802        0.230        0.135       42.293       21.572        0.260      335.774        6.632      867.764
11/05/2013  10:41:00       45.124       47.636        7.600       40.399       47.476       31.437     1632.112     2253.955      988.297        0.462        0.244       65.615       22.938        0.122      336.099        7.175      867.773
11/05/2013  10:42:00       23.512       16.482       46.375       46.505       55.144       36.335     2162.749     3040.821     1320.252        0.475        0.326       28.714       40.140        1.954      336.518        7.873      867.773
11/05/2013  10:43:00       50.733       48.199       70.212       52.061       51.667       32.524     2710.357     2669.459     1057.808        0.813        0.322       69.979       20.782        0.088      336.183        7.314      867.781
11/05/2013  10:44:00      135.498       83.170       53.847       69.531       43.709       54.899     4834.601     1910.469     3013.862        1.897        0.488      158.987       31.874        0.040      335.804        6.681      867.765
11/05/2013  10:45:00      128.827       87.115       64.938       82.703       55.752       59.342     6839.866     3108.260     3521.448        2.093        0.673      155.517       46.580        0.090      335.860        6.772      867.763
11/05/2013  10:46:00      106.540       82.874       10.697       76.358       48.647       45.517     5830.526     2366.491     2071.801        1.430        0.513      134.977       29.775        0.049      335.765        6.616      867.757
11/05/2013  10:47:00       55.687       67.273        1.947       48.906       39.004       45.132     2391.814     1521.325     2036.931        0.679        0.298       87.331       17.571        0.040      335.987        6.988      867.760
11/05/2013  10:48:00       30.651       10.885       53.450       46.312       76.072       50.002     2144.836     5786.901     2500.158        0.717        0.522       32.526       56.865        3.057      336.370        7.627      867.763
11/05/2013  10:49:00       30.431      -24.256       53.629       52.830       82.564       50.229     2790.993     6816.754     2522.959        0.826        0.607       38.915       50.149        1.661      336.356        7.604      867.753
11/05/2013  10:50:00       13.864       25.379       70.252       42.150       65.961       41.403     1776.604     4350.816     1714.215        0.681        0.392       28.919       40.109        1.924      336.231        7.393      867.757
11/05/2013  10:51:00       67.458       17.363       34.082       25.972       45.066       27.960      674.566     2030.960      781.764        0.475        0.174       69.656       21.757        0.098      335.967        6.954      867.747
11/05/2013  10:52:00       -8.308      -57.930       -0.003       59.746       55.867       27.673     3569.574     3121.068      765.819        0.544        0.373       58.522       14.555        0.062      336.255        7.434      867.757
11/05/2013  10:53:00        8.108       -6.027       35.384       24.962       35.572       27.164      623.119     1265.351      737.902        0.199        0.131       10.103       22.647        5.025      336.672        8.131      867.770
11/05/2013  10:54:00       41.801      -52.516       24.545       55.712       62.042       47.256     3103.839     3849.165     2233.130        0.715        0.459       67.121       44.057        0.431      336.692        8.165      867.787
11/05/2013  10:55:00       60.373      -93.690       -8.081       61.550       63.655       42.805     3788.368     4052.011     1832.265        1.108        0.484      111.457       36.645        0.108      336.151        7.260      867.783
11/05/2013  10:56:00       69.364      -20.539       25.958       63.160       74.397       47.957     3989.201     5534.913     2299.837        0.886        0.591       72.341       54.211        0.562      336.501        7.845      867.767
11/05/2013  10:57:00       16.608       35.414       27.697       19.152       26.063       22.048      366.802      679.281      486.104        0.191        0.077       39.115        7.289        0.035      336.301        7.512      867.728
11/05/2013  10:58:00       69.233      -54.284        6.243       60.535       59.351       39.713     3664.493     3522.563     1577.103        0.827        0.438       87.977       36.661        0.174      336.375        7.635      867.691
11/05/2013  10:59:00       58.283     -137.346      -31.403       41.663       40.378       27.513     1735.780     1630.420      756.957        1.368        0.206      149.201       20.160        0.018      335.994        6.999      867.648
11/05/2013  11:00:00      -23.056      -36.908        7.683       65.141       54.586       38.917     4243.359     2979.599     1514.503        0.534        0.437       43.517       39.094        0.807      336.312        7.531      867.596
11/05/2013  11:01:00       32.764       70.680       64.770       46.997       40.354       31.716     2208.706     1628.437     1005.890        0.755        0.242       77.905       24.605        0.100      336.320        7.543      867.566
11/05/2013  11:02:00       -6.561       18.115       54.563       23.456       54.631       31.520      550.195     2984.518      993.497        0.394        0.226       19.267       33.227        2.974      336.513        7.865      867.545
11/05/2013  11:03:00       -5.642        8.870       34.131       18.593       30.640       18.665      345.690      938.820      348.382        0.145        0.082       10.513       20.499        3.802      336.908        8.526      867.550
11/05/2013  11:04:00      -36.663       30.266       27.195       24.338       28.233       26.655      592.323      797.112      710.501        0.255        0.105       47.542       17.765        0.140      336.601        8.013      867.566
11/05/2013  11:05:00       13.762       53.629        3.523       35.615       27.980       26.135     1268.424      782.877      683.051        0.291        0.137       55.366       16.061        0.084      336.756        8.272      867.568
11/05/2013  11:06:00      -47.729       22.570       34.689       36.522       30.976       32.653     1333.861      959.490     1066.231        0.367        0.168       52.797       10.318        0.038      337.062        8.782      867.575
11/05/2013  11:07:00      -26.062       10.656       17.919       37.381       32.874       22.647     1397.361     1080.681      512.880        0.205        0.150       28.157       13.324        0.224      337.077        8.809      867.575
11/05/2013  11:08:00      -29.434      -22.264       -3.057       22.984       17.551       11.602      528.277      308.037      134.610        0.117        0.049       36.906        7.636        0.043      336.301        7.510      867.553
11/05/2013  11:09:00      -12.405       18.239       21.891       29.939       23.110       20.671      896.329      534.070      427.282        0.141        0.093       22.058       15.058        0.466      336.970        8.629      867.541
11/05/2013  11:10:00       -3.648       23.536      -18.647       36.356       49.622       28.349     1321.737     2462.389      803.678        0.275        0.229       23.817       19.519        0.672      336.895        8.505      867.535
11/05/2013  11:11:00       54.467      -69.512      -15.478       51.971       50.947       31.084     2700.978     2595.593      966.198        0.715        0.313       88.309       26.793        0.092      336.483        7.815      867.541
11/05/2013  11:12:00       48.228       26.462        0.218       42.821       51.789       34.879     1833.601     2682.135     1216.551        0.438        0.287       55.010       13.606        0.061      336.373        7.631      867.561
11/05/2013  11:13:00       48.984       30.847       21.671       36.877       26.422       27.902     1359.891      698.118      778.547        0.333        0.142       57.887       10.138        0.031      336.587        7.989      867.557
11/05/2013  11:14:00        8.625       35.760       -4.483       32.272       38.724       24.365     1041.499     1499.537      593.661        0.225        0.157       36.785       14.708        0.160      336.390        7.659      867.564
11/05/2013  11:15:00       27.588       66.189       -0.501       23.852       46.904       26.413      568.933     2200.016      697.655        0.430        0.173       71.708       20.961        0.085      336.654        8.099      867.556
11/05/2013  11:16:00        2.833      108.399      -12.601       35.644       45.793       27.068     1270.512     2097.013      732.700        0.801        0.205      108.436       17.367        0.026      336.476        7.804      867.548
11/05/2013  11:17:00       -6.714       73.094       -3.577       43.725       36.689       24.890     1911.838     1346.111      619.530        0.464        0.194       73.401       19.085        0.068      336.612        8.032      867.526
11/05/2013  11:18:00      -25.914        9.465        3.273       19.554       18.913       17.610      382.376      357.699      310.127        0.091        0.053       27.588        9.894        0.129      336.901        8.515      867.501
11/05/2013  11:19:00       12.066       17.538       19.347       19.367       16.187       19.428      375.067      262.015      377.431        0.092        0.051       21.288       12.932        0.369      337.248        9.094      867.476
11/05/2013  11:20:00       31.648       45.066        5.379       55.977       36.034       26.006     3133.386     1298.460      676.318        0.408        0.255       55.069        8.741        0.025      337.067        8.792      867.453
11/05/2013  11:21:00      126.892       94.914        7.911       52.245       42.149       40.622     2729.559     1776.563     1650.162        1.566        0.308      158.462       19.198        0.015      336.562        7.946      867.409
11/05/2013  11:22:00      122.185       98.816       18.726       43.553       33.607       42.361     1896.870     1129.443     1794.485        1.493        0.241      157.142       20.767        0.017      336.477        7.806      867.391
11/05/2013  11:23:00      142.977      100.408        4.123       60.972       46.169       41.294     3717.539     2131.547     1705.220        1.905        0.378      174.712       35.316        0.041      336.516        7.868      867.375
11/05/2013  11:24:00       97.792       76.999       42.476       57.168       46.460       53.700     3268.205     2158.499     2883.665        1.280        0.416      124.468       43.170        0.120      336.746        8.255      867.366
11/05/2013  11:25:00       70.291      104.599       90.006       59.584       49.681       40.927     3550.251     2468.223     1674.998        1.584        0.385      126.023       24.773        0.039      336.825        8.385      867.330
11/05/2013  11:26:00      109.361       89.037       -3.274       52.710       40.318       37.594     2778.361     1625.514     1413.300        1.286        0.291      141.023       21.107        0.022      336.363        7.613      867.314
11/05/2013  11:27:00      108.284       76.891       14.572       43.508       32.210       38.289     1892.938     1037.498     1466.015        1.112        0.220      132.807       16.470        0.015      336.619        8.043      867.274
11/05/2013  11:28:00       64.701       89.458       72.767       39.754       32.821       37.496     1580.364     1077.235     1405.922        1.077        0.203      110.404       23.767        0.046      336.805        8.352      867.261
11/05/2013  11:29:00       90.817       69.162       78.538       56.343       50.512       41.785     3174.527     2551.418     1745.984        1.333        0.374      114.153       26.157        0.053      336.770        8.293      867.227
11/05/2013  11:30:00       24.035       61.452       82.159       33.081       40.550       40.098     1094.326     1644.317     1607.841        0.772        0.217       65.985       31.331        0.225      336.801        8.346      867.215
11/05/2013  11:31:00       43.439      -66.885        6.638       47.683       93.361       28.701     2273.680     8716.347      823.755        0.911        0.591       79.753       46.102        0.334      336.975        8.637      867.187
11/05/2013  11:32:00       12.758      -41.261       -5.743       29.263       54.771       23.977      856.297     2999.917      574.896        0.316        0.222       43.189       17.580        0.166      336.792        8.333      867.185
11/05/2013  11:33:00       26.845      -74.680       -1.629       53.548       66.200       35.978     2867.385     4382.502     1294.425        0.742        0.427       79.359       27.583        0.121      337.246        9.091      867.187
11/05/2013  11:34:00       37.903     -122.191      -23.550       45.278       50.364       35.829     2050.128     2536.517     1283.695        1.140        0.294      127.934       21.092        0.027      337.194        9.003      867.207
11/05/2013  11:35:00       52.198      -94.818       -1.037       47.371       72.997       24.926     2244.022     5328.631      621.313        0.995        0.410      108.236       39.153        0.131      336.804        8.352      867.222
11/05/2013  11:36:00        3.625       26.214       19.236       34.537       42.557       39.354     1192.810     1811.091     1548.699        0.281        0.228       26.463       36.600        1.913      336.792        8.332      867.181
11/05/2013  11:37:00       56.507       64.795       47.801       35.917       26.621       25.140     1290.044      708.669      632.011        0.615        0.132       85.974       18.874        0.048      336.803        8.348      867.139
11/05/2013  11:38:00       63.380       46.354        2.016       31.909       26.815       21.746     1018.207      719.052      472.910        0.419        0.111       78.522       13.120        0.028      336.704        8.186      867.078
11/05/2013  11:39:00        1.165       82.196      -10.875       39.214       48.427       33.112     1537.711     2345.138     1096.421        0.593        0.249       82.204       30.285        0.136      336.770        8.295      867.031
11/05/2013  11:40:00       67.397       54.420       10.454       76.167       51.459       31.663     5801.393     2648.047     1002.521        0.853        0.473       86.625       25.800        0.089      337.008        8.692      866.992
11/05/2013  11:41:00      152.214      113.285       39.377       71.757       45.056       43.581     5149.038     2030.078     1899.306        2.331        0.454      189.744       21.578        0.013      336.643        8.081      866.962
11/05/2013  11:42:00      159.727       88.140       25.403       54.662       49.527       39.047     2987.986     2452.958     1524.685        2.045        0.348      182.432       26.314        0.021      336.859        8.441      866.964
11/05/2013  11:43:00       85.586       55.825       17.252       49.783       50.601       43.731     2478.368     2560.445     1912.429        0.884        0.348      102.183       28.789        0.079      337.229        9.063      866.951
11/05/2013  11:44:00       31.593       15.518       55.345       59.853       57.719       39.341     3582.439     3331.503     1547.729        0.638        0.423       35.199       38.715        1.210      337.412        9.368      866.960
11/05/2013  11:45:00       68.606       87.691        9.287       45.730       49.878       50.011     2091.225     2487.849     2501.056        0.978        0.354      111.339       39.499        0.126      336.958        8.609      866.955
11/05/2013  11:46:00       27.752       41.593      -10.759       34.740       47.207       32.273     1206.858     2228.538     1041.517        0.355        0.224       50.001       24.943        0.249      336.941        8.582      866.946
11/05/2013  11:47:00      126.831       60.342       38.017       63.997       57.840       42.608     4095.564     3345.461     1815.479        1.521        0.463      140.454       30.876        0.048      337.045        8.755      866.940
11/05/2013  11:48:00       79.982       71.781       42.004       60.502       50.788       43.660     3660.513     2579.409     1906.198        1.073        0.407      107.469       30.431        0.080      337.333        9.237      866.917
11/05/2013  11:49:00       18.230      -22.382        8.577       35.998       51.064       19.621     1295.844     2607.487      384.995        0.260        0.214       28.867       20.049        0.482      337.160        8.947      866.916
11/05/2013  11:50:00        1.362      123.148      -21.537       30.655       62.797       23.845      939.741     3943.502      568.578        1.054        0.273      123.156       30.106        0.060      337.012        8.700      866.917
11/05/2013  11:51:00       45.103       65.186       12.727       58.741       51.222       34.393     3450.516     2623.661     1182.867        0.685        0.363       79.269       31.251        0.155      337.359        9.279      866.912
11/05/2013  11:52:00       91.987       74.705       26.553       75.253       49.825       50.497     5662.974     2482.561     2549.926        1.272        0.535      118.500       35.219        0.088      337.420        9.382      866.907
11/05/2013  11:53:00       37.658       87.071       76.802       54.348       50.246       50.324     2953.694     2524.692     2532.550        1.145        0.401       94.865       45.461        0.230      337.421        9.383      866.889
11/05/2013  11:54:00      210.404      136.829       23.646       80.120       60.394       54.717     6419.279     3647.403     2993.955        3.830        0.653      250.982       42.341        0.028      337.073        8.797      866.874
11/05/2013  11:55:00      156.786       88.371       46.695       65.386       73.550       65.531     4275.322     5409.586     4294.308        2.427        0.699      179.976       45.829        0.065      337.281        9.147      866.864
11/05/2013  11:56:00      103.192      117.589      104.835       78.524       63.020       70.286     6166.079     3971.543     4940.163        2.527        0.754      156.448       63.395        0.164      337.283        9.149      866.837
11/05/2013  11:57:00       22.763       70.725      109.100       67.823       76.086       53.416     4599.914     5789.031     2853.284        1.533        0.662       74.298       53.750        0.523      337.722        9.887      866.814
11/05/2013  11:58:00       55.440       96.965      124.451       78.630       82.507       49.627     6182.713     6807.331     2462.823        2.171        0.773      111.695       53.735        0.231      337.604        9.689      866.785
11/05/2013  11:59:00      115.036      154.795      129.978      103.211       56.225       52.111    10652.418     3161.229     2715.519        3.531        0.826      192.859       54.178        0.079      337.202        9.014      866.757
11/05/2013  12:00:00       41.758       72.033       90.613       71.669       63.595       47.371     5136.500     4044.282     2243.966        1.328        0.571       83.262       40.019        0.231      337.718        9.880      866.739
11/05/2013  12:01:00       45.654       75.962       73.122       67.863       47.482       38.022     4605.365     2254.543     1445.657        1.075        0.415       88.626       32.054        0.131      337.707        9.864      866.729
11/05/2013  12:02:00      176.845      102.908       62.372      111.719       62.242       63.301    12481.103     3874.096     4007.079        3.306        1.018      204.608       64.636        0.100      337.355        9.271      866.706
11/05/2013  12:03:00      100.019       85.811       90.826       70.791       69.921       70.044     5011.374     4888.933     4906.219        2.021        0.740      131.785       47.982        0.133      337.402        9.351      866.698
11/05/2013  12:04:00       50.872       81.500      103.314       56.602       74.393       48.966     3203.780     5534.251     2397.687        1.552        0.557       96.074       48.417        0.254      337.296        9.173      866.696
11/05/2013  12:05:00       46.142      -26.957       30.169       36.109       64.811       46.810     1303.892     4200.447     2191.199        0.573        0.385       53.440       52.374        0.961      337.213        9.036      866.691
11/05/2013  12:06:00       16.613      -51.350       12.011       28.444       44.369       28.632      809.043     1968.639      819.775        0.333        0.180       53.971       32.382        0.360      337.343        9.254      866.687
11/05/2013  12:07:00       29.426        8.495       34.748       33.161       39.058       32.159     1099.640     1525.495     1034.223        0.290        0.183       30.628       29.913        0.954      337.633        9.740      866.694
11/05/2013  12:08:00       72.409       63.007       68.726       63.646       50.592       40.347     4050.844     2559.587     1627.861        1.109        0.412       95.984       32.781        0.117      337.802       10.022      866.684
11/05/2013  12:09:00       76.146       29.484       20.836       52.741       36.814       35.305     2781.649     1355.242     1246.447        0.624        0.269       81.655       14.202        0.030      337.414        9.372      866.682
11/05/2013  12:10:00      130.573       49.591       24.602       88.728       62.115       49.673     7872.604     3858.234     2467.443        1.715        0.710      139.673       30.036        0.046      337.699        9.848      866.684
11/05/2013  12:11:00       78.072       12.007       56.075       77.309       67.341       42.599     5976.624     4534.847     1814.667        1.085        0.616       78.990       31.864        0.163      337.678        9.814      866.697
11/05/2013  12:12:00       76.151       73.354       -0.885       39.201       33.247       29.863     1536.741     1105.336      891.814        0.736        0.177      105.735       24.044        0.052      337.297        9.174      866.710
11/05/2013  12:13:00       58.092       10.681       13.493       41.238       42.960       33.124     1700.599     1845.529     1097.174        0.416        0.232       59.066       13.419        0.052      337.780        9.985      866.705
11/05/2013  12:14:00       53.332       50.783       72.047       78.228       72.563       56.270     6119.697     5265.322     3166.308        1.258        0.728       73.642       39.399        0.286      337.751        9.936      866.720
11/05/2013  12:15:00       82.144        3.969       32.352       59.890       46.539       39.776     3586.867     2165.890     1582.164        0.757        0.367       82.240       20.919        0.065      337.755        9.945      866.726
11/05/2013  12:16:00       59.320       63.321       15.291       55.640       50.402       55.293     3095.765     2540.386     3057.279        0.823        0.435       86.767       39.198        0.204      337.694        9.840      866.714
11/05/2013  12:17:00       53.356      103.578       10.784       54.701       61.250       46.130     2992.224     3751.582     2127.981        1.128        0.444      116.513       35.962        0.095      337.594        9.674      866.694
11/05/2013  12:18:00      -12.305      139.308       -6.879       35.600       49.847       34.319     1267.358     2484.685     1177.824        1.227        0.246      139.850       26.779        0.037      337.443        9.420      866.701
11/05/2013  12:19:00       -2.727       50.957        4.380       21.960       41.326       23.288      482.255     1707.829      542.309        0.268        0.137       51.029       19.264        0.143      337.774        9.975      866.715
11/05/2013  12:20:00       17.312       47.829       14.509       48.380       25.374       27.099     2340.633      643.831      734.356        0.326        0.186       50.865       21.967        0.187      337.873       10.142      866.726
11/05/2013  12:21:00       99.152      159.645      141.792       92.640       98.189       67.524     8582.231     9641.080     4559.545        3.910        1.139      187.929       74.498        0.157      337.533        9.567      866.715
11/05/2013  12:22:00       81.596       58.465      112.423       76.348      156.853       78.529     5828.996    24602.993     6166.810        2.965        1.830      100.379      108.159        1.161      337.493        9.501      866.727
11/05/2013  12:23:00       99.030      -90.823        9.563       74.845      123.978       65.627     5601.826    15370.514     4306.902        2.171        1.264      134.372       76.177        0.321      337.694        9.839      866.719
11/05/2013  12:24:00       51.947      113.102       93.305       51.990       54.731       39.314     2703.008     2995.529     1545.577        1.572        0.362      124.461       27.266        0.048      338.025       10.397      866.740
11/05/2013  12:25:00       44.778       56.667       23.370       52.286       48.611       34.758     2733.832     2362.986     1208.104        0.603        0.315       72.224       17.386        0.058      338.210       10.707      866.738
11/05/2013  12:26:00       22.519       31.468       68.780       37.793       56.380       43.600     1428.344     3178.729     1900.957        0.637        0.325       38.696       44.621        1.330      338.003       10.359      866.744
11/05/2013  12:27:00       16.846       33.790       82.097       80.357       69.389       43.053     6457.198     4814.824     1853.599        1.064        0.656       37.756       48.355        1.640      338.076       10.483      866.702
11/05/2013  12:28:00       87.965       96.515       85.870       99.364       61.630       68.063     9873.209     3798.202     4632.615        2.136        0.915      130.587       62.923        0.232      338.079       10.486      866.691
11/05/2013  12:29:00      173.344       91.096       37.370       55.763       48.317       67.168     3109.466     2334.537     4511.502        2.485        0.498      195.823       39.191        0.040      337.674        9.807      866.697
11/05/2013  12:30:00      148.099       63.095        5.245       73.987       63.319       51.370     5474.069     4009.315     2638.879        1.903        0.606      160.979       34.062        0.045      337.551        9.599      866.696
11/05/2013  12:31:00      101.090       17.811       30.549       72.561       68.256       49.104     5265.103     4658.855     2411.179        1.190        0.617      102.647       38.573        0.141      337.741        9.920      866.673
11/05/2013  12:32:00       76.411       98.572       -7.190       59.114       63.621       51.210     3494.422     4047.636     2622.473        1.288        0.508      124.720       40.451        0.105      337.765        9.960      866.656
11/05/2013  12:33:00      -14.959       53.157        2.703       31.401       40.378       28.036      986.050     1630.384      786.043        0.323        0.170       55.221       28.760        0.271      337.936       10.246      866.644
11/05/2013  12:34:00      109.411      109.423       -0.699       79.457       51.504       44.685     6313.463     2652.640     1996.760        1.745        0.548      154.739       26.551        0.029      337.809       10.034      866.623
11/05/2013  12:35:00       61.268      116.258       -6.348       60.669       52.303       39.853     3680.686     2735.620     1588.234        1.266        0.400      131.414       35.606        0.073      337.878       10.149      866.597
11/05/2013  12:36:00       13.491       70.878       -1.964       47.438       61.277       33.592     2250.347     3754.870     1128.456        0.617        0.357       72.150       38.059        0.278      337.975       10.312      866.587
11/05/2013  12:37:00       24.359       45.687       36.735       41.942       28.790       30.810     1759.159      828.877      949.250        0.378        0.177       51.775       20.329        0.154      337.975       10.312      866.579
11/05/2013  12:38:00       39.236       38.793       43.778       31.753       28.484       28.421     1008.251      811.333      807.755        0.379        0.131       55.176       19.568        0.126      338.140       10.590      866.571
11/05/2013  12:39:00       11.599      -57.893        5.970       39.140       42.974       37.941     1531.933     1846.723     1439.488        0.417        0.241       59.043       30.785        0.272      338.104       10.530      866.540
11/05/2013  12:40:00       14.883       -1.843       26.961       28.178       34.541       24.405      793.991     1193.074      595.581        0.177        0.129       14.996       16.535        1.216      338.526       11.236      866.518
11/05/2013  12:41:00       -9.107        8.554       49.006       19.215       30.639       22.156      369.219      938.751      490.897        0.218        0.090       12.495       19.387        2.407      338.976       11.994      866.510
11/05/2013  12:42:00       26.501       -5.724       40.738       34.025       49.883       43.028     1157.703     2488.278     1851.403        0.395        0.275       27.112       31.913        1.385      338.702       11.534      866.484
11/05/2013  12:43:00       67.418       52.140       66.124       52.502       53.085       44.982     2756.493     2818.022     2023.406        0.962        0.380       85.228       35.899        0.177      338.485       11.169      866.462
11/05/2013  12:44:00      174.536       72.399       30.968       60.773       76.859       71.004     3693.316     5907.309     5041.508        2.565        0.732      188.957       44.679        0.056      338.279       10.820      866.450
11/05/2013  12:45:00      138.144       45.468      -19.447       58.838       50.915       33.074     3461.873     2592.355     1093.878        1.434        0.357      145.434       23.472        0.026      337.739        9.915      866.454
11/05/2013  12:46:00        1.443        2.875       20.959       29.076       43.396       47.213      845.419     1883.235     2229.083        0.270        0.248        3.216       39.001      147.043      338.157       10.619      866.429
11/05/2013  12:47:00       30.049       47.764       38.672       41.287       39.982       49.924     1704.643     1598.574     2492.451        0.524        0.290       56.430       35.020        0.385      338.293       10.846      866.403
11/05/2013  12:48:00       50.780       29.877        4.952       47.656       36.787       30.647     2271.082     1353.259      939.251        0.403        0.228       58.917       19.098        0.105      338.302       10.861      866.392
11/05/2013  12:49:00       59.411       45.639       59.387       46.336       40.865       41.255     2147.043     1669.935     1701.936        0.733        0.276       74.918       29.579        0.156      338.285       10.833      866.383
11/05/2013  12:50:00       24.971       33.385       57.299       41.777       50.793       36.432     1745.284     2579.935     1327.305        0.534        0.283       41.690       30.834        0.547      338.248       10.770      866.370
11/05/2013  12:51:00       84.802       56.757       39.949       45.896       47.218       36.500     2106.483     2229.530     1332.258        0.884        0.283      102.043       30.719        0.091      338.154       10.613      866.368
11/05/2013  12:52:00       82.368       23.594       30.129       64.554       43.951       47.466     4167.190     1931.687     2253.058        0.830        0.418       85.680       42.626        0.248      338.198       10.687      866.358
11/05/2013  12:53:00        6.752       25.184       55.896       29.306       57.981       39.094      858.813     3361.847     1528.309        0.478        0.287       26.074       41.919        2.585      338.500       11.195      866.361
11/05/2013  12:54:00       56.599      -50.910       -1.155       40.598       36.685       21.839     1648.199     1345.785      476.929        0.463        0.174       76.127       17.387        0.052      338.213       10.712      866.363
11/05/2013  12:55:00       18.465       -2.881       17.879       29.089       44.644       19.985      846.164     1993.060      399.406        0.195        0.162       18.688       19.808        1.123      338.528       11.242      866.369
11/05/2013  12:56:00       20.499       13.284       64.427       69.080       79.811       55.279     4772.003     6369.858     3055.771        0.947        0.710       24.426       55.510        5.164      338.603       11.367      866.366
11/05/2013  12:57:00       39.312       32.176       93.879       59.477       71.399       51.770     3537.463     5097.868     2680.170        1.135        0.566       50.801       39.776        0.613      338.564       11.301      866.358
11/05/2013  12:58:00       80.416       43.684       88.252       70.050       74.028       49.480     4906.952     5480.104     2448.310        1.450        0.642       91.515       52.603        0.330      338.388       11.005      866.356
11/05/2013  12:59:00       82.918       38.269       74.864       64.227       89.392       62.641     4125.160     7990.893     3923.915        1.499        0.802       91.323       59.751        0.428      338.350       10.942      866.346
11/05/2013  13:00:00       40.986      -82.215       -3.841       46.012       48.206       36.478     2117.098     2323.805     1330.610        0.711        0.289       91.865       32.364        0.124      338.334       10.915      866.340
11/05/2013  13:01:00       95.792     -179.361      -27.943       48.771       34.392       24.468     2378.613     1182.797      598.675        2.314        0.208      203.339       11.089        0.003      338.190       10.672      866.319
11/05/2013  13:02:00       93.737      -87.542       -7.219       50.734       60.840       35.986     2573.913     3701.503     1294.986        1.204        0.379      128.258       47.718        0.138      338.110       10.537      866.300
11/05/2013  13:03:00      119.156     -132.062        0.342       66.018       83.627       44.819     4358.415     6993.453     2008.774        2.250        0.668      177.872       59.078        0.110      338.206       10.698      866.269
11/05/2013  13:04:00       47.210      -41.208        1.403       40.353       61.603       44.073     1628.370     3794.917     1942.408        0.565        0.368       62.665       47.794        0.582      338.516       11.222      866.253
11/05/2013  13:05:00        6.143       18.952       41.090       16.877       17.472       17.580      284.820      305.256      309.053        0.149        0.045       19.923       14.466        0.527      338.602       11.365      866.236
11/05/2013  13:06:00       46.681      -15.687       11.369       27.461       30.377       24.734      754.120      922.757      611.773        0.242        0.114       49.246       12.508        0.065      338.481       11.160      866.208
11/05/2013  13:07:00      -13.693     -117.136       -4.435       80.057       92.429       57.321     6409.161     8543.036     3285.711        1.608        0.912      117.933       58.481        0.246      338.756       11.622      866.190
11/05/2013  13:08:00       19.305      -17.053       24.763       66.400       66.119       49.220     4408.923     4371.740     2422.624        0.624        0.560       25.758       47.145        3.350      338.717       11.558      866.175
11/05/2013  13:09:00       23.803      -20.809       26.287       31.288       34.787       27.282      978.935     1210.145      744.321        0.231        0.147       31.616       24.270        0.589      339.004       12.041      866.154
11/05/2013  13:10:00        4.156       -0.448       33.282       25.278       30.567       30.292      638.991      934.352      917.631        0.181        0.125        4.180       23.557       31.763      339.176       12.332      866.123
11/05/2013  13:11:00       38.513       58.783       48.633       36.139       39.131       34.626     1306.045     1531.208     1198.940        0.567        0.202       70.276       28.359        0.163      338.516       11.221      866.111
11/05/2013  13:12:00      110.857      102.039       60.149       97.756       61.347       61.995     9556.306     3763.415     3843.390        2.174        0.858      150.669       59.832        0.158      338.644       11.434      866.107
11/05/2013  13:13:00      147.311       87.817       46.657       80.567       75.481       55.581     6491.002     5697.350     3089.251        2.343        0.764      171.500       41.824        0.059      338.244       10.761      866.099
11/05/2013  13:14:00       10.894       11.377       27.028       46.106       38.609       27.756     2125.805     1490.679      770.413        0.268        0.219       15.752       24.892        2.497      338.685       11.503      866.108
11/05/2013  13:15:00        6.869       -4.148       13.234       23.146       50.176       30.680      535.759     2517.629      941.236        0.212        0.200        8.024       18.717        5.441      338.850       11.782      866.103
11/05/2013  13:16:00        1.141       -2.448       16.215       26.351       48.455       39.418      694.367     2347.931     1553.793        0.243        0.230        2.701        7.408        7.522      338.708       11.543      866.104
11/05/2013  13:17:00       32.845       53.780       61.802       39.528       28.327       39.496     1562.432      802.404     1559.933        0.586        0.196       63.016       32.747        0.270      338.509       11.208      866.120
11/05/2013  13:18:00       24.051      -24.685       13.233       39.638       59.784       35.518     1571.201     3574.092     1261.559        0.388        0.320       34.464       38.617        1.255      338.793       11.686      866.130
11/05/2013  13:19:00       49.764       18.660       40.686       45.928       59.353       52.126     2109.379     3522.765     2717.171        0.641        0.417       53.148       51.205        0.928      338.772       11.652      866.150
11/05/2013  13:20:00       87.781      132.301      126.083       81.870       59.512       53.474     6702.633     3541.669     2859.444        2.710        0.655      158.774       48.607        0.094      338.545       11.265      866.161
11/05/2013  13:21:00       87.511       96.240       68.294       60.003       43.768       46.030     3600.368     1915.624     2118.774        1.461        0.382      130.078       37.798        0.084      338.365       10.967      866.164
11/05/2013  13:22:00      100.668       61.738       42.193       96.162       86.768       51.328     9247.137     7528.636     2634.578        1.756        0.971      118.091       38.929        0.109      338.635       11.419      866.158
11/05/2013  13:23:00       20.119      -37.310       43.079       48.027       88.157       60.791     2306.566     7771.662     3695.572        0.871        0.689       42.389       69.654        2.700      338.904       11.873      866.163
11/05/2013  13:24:00       66.770      104.519      103.210       68.773       69.286       62.712     4729.700     4800.598     3932.753        1.975        0.673      124.026       55.371        0.199      338.600       11.361      866.151
11/05/2013  13:25:00      109.240       66.014       27.230       37.477       36.292       33.757     1404.512     1317.077     1139.508        1.045        0.193      127.637       22.151        0.030      338.435       11.084      866.155
11/05/2013  13:26:00       39.319        4.530        3.889       31.981       31.671       31.753     1022.777     1003.036     1008.247        0.231        0.152       39.579       13.126        0.110      338.608       11.375      866.154
11/05/2013  13:27:00       16.015       32.825       57.537       54.057       64.632       58.218     2922.182     4177.305     3389.373        0.756        0.524       36.524       54.204        2.202      339.029       12.083      866.148
11/05/2013  13:28:00      127.496       66.743       44.560      105.581       67.340       48.750    11147.252     4534.654     2376.535        2.037        0.903      143.909       28.318        0.039      338.565       11.302      866.136
11/05/2013  13:29:00      182.321      102.418       10.633       58.729       43.789       38.170     3449.082     1917.444     1456.938        2.533        0.341      209.118       19.277        0.008      338.470       11.141      866.133
11/05/2013  13:30:00       94.980       63.654       14.812       43.163       33.658       26.374     1863.022     1132.860      695.573        0.849        0.185      114.337       18.920        0.027      338.457       11.121      866.144
11/05/2013  13:31:00       63.424       35.397        8.696       32.335       25.050       24.462     1045.558      627.493      598.390        0.381        0.114       72.633       12.048        0.028      338.729       11.578      866.134
11/05/2013  13:32:00       27.994      -14.351        0.845       16.668       19.457       13.754      277.836      378.567      189.186        0.092        0.042       31.458        9.330        0.088      338.872       11.818      866.126
11/05/2013  13:33:00      -72.817       -6.031       11.989       57.280       47.230       30.237     3280.951     2230.634      914.257        0.595        0.321       73.066       28.885        0.156      339.039       12.100      866.110
11/05/2013  13:34:00        9.734      -17.123       18.286       27.012       20.224       25.257      729.646      409.014      637.922        0.125        0.089       19.697       16.742        0.722      339.389       12.690      866.085
11/05/2013  13:35:00       14.959      -55.688        1.829       44.471       56.356       34.777     1977.632     3176.006     1209.465        0.484        0.318       57.662       34.909        0.367      339.131       12.255      866.057
11/05/2013  13:36:00       48.433       71.043       86.449       76.834       77.684       55.984     5903.445     6034.762     3134.175        1.497        0.754       85.982       52.040        0.366      339.017       12.061      866.037
11/05/2013  13:37:00      117.015      118.205      107.293       90.688       64.736       56.321     8224.264     4190.690     3172.075        2.738        0.779      166.328       52.875        0.101      338.960       11.965      866.028
11/05/2013  13:38:00       67.152       92.184       93.101       66.803       60.099       53.237     4462.626     3611.872     2834.188        1.629        0.545      114.049       49.861        0.191      338.793       11.686      866.017
11/05/2013  13:39:00        7.524       79.945      102.144       47.495       65.614       47.269     2255.767     4305.199     2234.312        1.284        0.440       80.298       40.283        0.252      339.177       12.332      866.004
11/05/2013  13:40:00      105.106     -129.520        4.706       59.390       63.560       51.458     3527.181     4039.863     2647.928        1.903        0.511      166.801       40.983        0.060      338.871       11.815      866.017
11/05/2013  13:41:00      189.366     -215.355      -18.015       77.151       92.784       39.526     5952.267     8608.862     1562.327        4.934        0.806      286.771       46.268        0.026      338.615       11.382      866.010
11/05/2013  13:42:00       23.253      -31.448       41.998       40.203       42.985       27.816     1616.271     1847.730      773.756        0.376        0.212       39.111       23.355        0.357      339.154       12.294      866.029
11/05/2013  13:43:00       28.554      -21.951        7.571       56.119       28.090       29.953     3149.306      789.065      897.177        0.309        0.242       36.016       16.040        0.198      338.924       11.905      866.038
11/05/2013  13:44:00       62.146      -10.463       31.784       59.104       51.679       42.014     3493.294     2670.715     1765.191        0.645        0.396       63.021       40.144        0.406      338.951       11.952      866.050
11/05/2013  13:45:00       23.048      -10.515       24.603       28.385       27.669       14.472      805.726      765.601      209.446        0.151        0.089       25.334       15.645        0.381      339.053       12.125      866.048
11/05/2013  13:46:00       71.131      -23.835       29.124       57.623       68.425       40.753     3320.374     4682.040     1660.783        0.807        0.483       75.018       44.527        0.352      339.029       12.081      866.038
11/05/2013  13:47:00       24.290      -10.581       25.181       30.059       48.734       28.883      903.521     2375.041      834.249        0.272        0.206       26.495       32.014        1.460      339.025       12.077      866.028
11/05/2013  13:48:00       66.225        3.088       15.464       44.901       43.526       30.068     2016.122     1894.501      904.066        0.472        0.241       66.297       20.584        0.096      338.944       11.938      866.008
11/05/2013  13:49:00       93.353       45.491       45.340       65.394       59.475       54.648     4276.434     3537.233     2986.447        1.182        0.540      103.848       43.067        0.172      339.115       12.226      865.977
11/05/2013  13:50:00       59.790        3.077       74.012       82.753      118.754       69.149     6848.069    14102.572     4781.643        1.739        1.287       59.870       85.421        2.036      339.454       12.796      865.936
11/05/2013  13:51:00      116.105      -81.135       15.732       67.112       70.655       51.097     4503.966     4992.112     2610.873        1.621        0.605      141.645       49.160        0.120      339.305       12.547      865.922
11/05/2013  13:52:00       51.490       21.089       60.036       74.200       83.246       54.123     5505.571     6929.876     2929.291        1.103        0.768       55.641       66.781        1.440      339.078       12.165      865.918
11/05/2013  13:53:00        2.612       62.345       85.614       45.159       52.437       41.137     2039.316     2749.611     1692.240        0.885        0.324       62.399       37.853        0.368      339.325       12.579      865.914
11/05/2013  13:54:00       47.810       62.186       76.451       73.666       80.672       58.234     5426.736     6507.902     3391.256        1.366        0.766       78.440       51.947        0.439      339.315       12.563      865.911
11/05/2013  13:55:00      176.901      154.640      115.382       99.456       70.561       84.061     9891.538     4978.836     7066.312        4.522        1.097      234.962       71.876        0.094      338.801       11.695      865.894
11/05/2013  13:56:00      133.004       45.546       30.159       67.656       52.057       34.923     4577.290     2709.896     1219.631        1.459        0.425      140.587       30.484        0.047      338.747       11.607      865.902
11/05/2013  13:57:00       95.683       28.891       37.505       57.134       62.074       44.068     3264.343     3853.161     1941.966        1.023        0.453       99.949       39.792        0.159      338.948       11.947      865.886
11/05/2013  13:58:00      129.625       62.311       15.244       69.905       50.231       42.240     4886.695     2523.181     1784.202        1.505        0.460      143.824       17.906        0.016      338.979       11.997      865.879
11/05/2013  13:59:00      116.023      101.976       79.458       95.118       78.177       53.130     9047.405     6111.578     2822.783        2.407        0.899      154.469       47.191        0.093      339.084       12.173      865.853
11/05/2013  14:00:00       81.550       38.987       33.279       39.282       26.347       45.620     1543.089      694.141     2081.159        0.680        0.216       90.390       17.165        0.036      338.835       11.756      865.860
11/05/2013  14:01:00       71.148       17.473       54.820       63.874       40.480       36.367     4079.897     1638.598     1322.536        0.771        0.352       73.262       25.615        0.122      339.123       12.241      865.842
11/05/2013  14:02:00      113.690     -147.288      -13.892       79.180       94.768       40.870     6269.524     8980.997     1670.350        2.586        0.846      186.062       51.022        0.075      339.081       12.167      865.824
11/05/2013  14:03:00      104.833     -185.092       -1.971       55.743       74.411       46.755     3107.264     5537.035     2186.027        2.804        0.542      212.718       39.518        0.035      339.057       12.128      865.811
11/05/2013  14:04:00       91.618      -85.050       -7.109       56.421       65.351       38.925     3183.306     4270.813     1515.119        1.232        0.448      125.009       37.691        0.091      339.081       12.168      865.812
11/05/2013  14:05:00       85.796     -106.992        0.139       28.483       55.804       31.629      811.309     3114.034     1000.386        1.187        0.246      137.143       29.959        0.048      339.012       12.053      865.793
11/05/2013  14:06:00       72.644      -92.610        1.933       85.494      121.004       50.028     7309.236    14641.968     2502.783        1.915        1.223      117.702       67.297        0.327      339.276       12.497      865.771
11/05/2013  14:07:00       79.968      -80.921       -4.776       48.704       93.052       41.632     2372.040     8658.663     1733.259        1.286        0.638      113.767       46.544        0.167      339.220       12.404      865.778
11/05/2013  14:08:00       76.848       78.752       51.144       54.442       42.435       51.030     2963.943     1800.733     2604.025        1.104        0.368      110.034       37.160        0.114      339.055       12.126      865.785
11/05/2013  14:09:00       95.111       56.519       30.218       43.389       31.117       35.166     1882.621      968.242     1236.630        0.862        0.204      110.637       19.464        0.031      339.017       12.063      865.799
11/05/2013  14:10:00       82.837       60.812       24.420       24.640       24.408       23.971      607.109      595.742      574.604        0.647        0.089      102.763       10.084        0.010      338.993       12.022      865.805
11/05/2013  14:11:00      107.114       33.226       22.742       56.318       32.727       34.037     3171.736     1071.046     1158.533        0.925        0.270      112.149       17.388        0.024      339.092       12.189      865.815
11/05/2013  14:12:00       87.683       61.174       45.819       58.967       42.039       31.792     3477.152     1767.242     1010.730        0.989        0.313      106.913       15.817        0.022      339.192       12.356      865.811
11/05/2013  14:13:00       21.957       45.506       69.829       39.997       40.565       30.835     1599.786     1645.548      950.824        0.581        0.210       50.526       27.515        0.297      339.414       12.730      865.805
11/05/2013  14:14:00       45.863      -28.508       20.735       73.968       62.637       40.271     5471.259     3923.347     1621.775        0.718        0.551       54.001       45.972        0.725      339.476       12.835      865.796
11/05/2013  14:15:00      104.752     -140.824       -5.564       59.680       65.944       49.686     3561.734     4348.552     2468.717        2.061        0.519      175.512       28.078        0.026      339.214       12.392      865.790
11/05/2013  14:16:00       44.530      -64.747        9.355       44.324       78.719       43.083     1964.653     6196.717     1856.163        0.814        0.501       78.582       32.074        0.167      339.310       12.556      865.788
11/05/2013  14:17:00        1.527       27.986       42.871       29.845       35.116       39.854      890.729     1233.130     1588.329        0.317        0.186       28.028       36.262        1.674      339.437       12.769      865.781
11/05/2013  14:18:00      -19.379       12.876       42.303       20.274       50.430       42.942      411.046     2543.149     1844.025        0.356        0.240       23.266       38.408        2.725      339.604       13.052      865.750
11/05/2013  14:19:00       46.621       65.431       49.736       31.525       23.110       23.158      993.828      534.093      536.278        0.550        0.103       80.341        9.191        0.013      339.270       12.487      865.718
11/05/2013  14:20:00       23.683       46.597       -0.109       44.360       34.885       27.246     1967.808     1216.933      742.333        0.333        0.196       52.270       14.596        0.078      339.183       12.341      865.694
11/05/2013  14:21:00       31.097       15.191       14.585       35.358       28.262       22.201     1250.221      798.713      492.894        0.198        0.127       34.609       15.900        0.211      339.350       12.622      865.682
11/05/2013  14:22:00       33.236       80.483      102.755       49.341       56.930       38.913     2434.558     3240.974     1514.208        1.266        0.359       87.075       36.643        0.177      339.320       12.573      865.684
11/05/2013  14:23:00      120.147      110.909       91.910      101.729       66.724       69.727    10348.742     4452.119     4861.788        2.742        0.983      163.512       68.090        0.173      339.386       12.682      865.684
11/05/2013  14:24:00       63.741       17.203       42.365       62.576       92.749       36.222     3915.717     8602.418     1312.044        0.999        0.692       66.021       53.668        0.661      339.235       12.428      865.704
11/05/2013  14:25:00       76.979       24.511       28.981       61.112       44.617       40.814     3734.675     1990.694     1665.776        0.738        0.370       80.787       29.766        0.136      339.345       12.613      865.719
11/05/2013  14:26:00      105.854       38.059       10.202       60.257       64.418       51.590     3630.889     4149.742     2661.495        1.160        0.522      112.488       27.846        0.061      339.373       12.661      865.742
11/05/2013  14:27:00       55.515      -42.432        6.744       59.103       51.356       37.384     3493.107     2637.429     1397.564        0.623        0.376       69.874       40.568        0.337      339.536       12.936      865.751
11/05/2013  14:28:00       65.153       -4.397       45.859       53.370       43.641       35.212     2848.358     1904.569     1239.880        0.618        0.300       65.301       31.438        0.232      339.332       12.594      865.761
11/05/2013  14:29:00       60.415       -9.596       27.986       44.307       30.779       29.484     1963.092      947.330      869.301        0.415        0.189       61.172       11.969        0.038      339.315       12.563      865.761
11/05/2013  14:30:00       45.472       16.090        9.514       30.592       26.814       24.049      935.856      719.007      578.366        0.232        0.112       48.235        9.759        0.041      339.449       12.790      865.755
11/05/2013  14:31:00       43.590       12.502        8.183       28.757       26.614       19.320      826.987      708.316      373.265        0.202        0.095       45.347       14.190        0.098      339.553       12.966      865.753
11/05/2013  14:32:00      144.313       39.362       41.715       68.685       59.887       65.406     4717.609     3586.473     4277.941        1.835        0.629      149.585       41.349        0.076      339.496       12.869      865.752
11/05/2013  14:33:00       65.411       63.118       39.340       65.133       40.413       50.799     4242.338     1633.174     2580.497        0.913        0.423       90.898       26.681        0.086      339.306       12.548      865.767
11/05/2013  14:34:00       63.664       35.796       10.124       51.867       38.639       26.056     2690.206     1492.976      678.928        0.515        0.243       73.037       23.556        0.104      339.433       12.764      865.765
11/05/2013  14:35:00       43.712       26.604       27.171       34.924       30.658       24.796     1219.703      939.935      614.853        0.307        0.139       51.171       17.649        0.119      339.423       12.747      865.768
11/05/2013  14:36:00       18.449       -7.163       37.043       48.128       67.833       34.549     2316.323     4601.378     1193.601        0.494        0.406       19.790       38.921        3.868      339.695       13.205      865.779
11/05/2013  14:37:00      -16.201      -15.062       20.672       52.871       39.076       31.312     2795.317     1526.935      980.434        0.311        0.265       22.121       33.731        2.325      340.045       13.796      865.776
11/05/2013  14:38:00       15.091      -69.621       11.259       62.338       79.576       34.731     3886.027     6332.414     1206.261        0.831        0.571       71.238       42.524        0.356      339.693       13.200      865.769
11/05/2013  14:39:00      112.236     -108.495       -7.198       48.812       71.027       41.803     2382.652     5044.810     1747.469        1.680        0.459      156.103       44.295        0.081      339.415       12.732      865.745
11/05/2013  14:40:00       58.433      -85.632       16.787       50.054       78.889       46.478     2505.375     6223.477     2160.203        1.096        0.544      103.669       40.209        0.150      339.707       13.225      865.720
11/05/2013  14:41:00       55.983      -77.143       14.397       43.381       57.712       44.592     1881.907     3330.724     1988.448        0.825        0.360       95.315       31.595        0.110      339.567       12.989      865.706
11/05/2013  14:42:00      105.727     -148.985      -20.983       62.080       64.102       38.284     3853.930     4109.054     1465.647        2.162        0.471      182.687       22.318        0.015      339.474       12.830      865.698
11/05/2013  14:43:00       51.932      -23.429       30.427       55.884       50.131       42.835     3123.058     2513.166     1834.827        0.582        0.374       56.972       33.333        0.342      339.561       12.979      865.716
11/05/2013  14:44:00       66.422      -61.158       20.705       52.929       80.715       37.595     2801.531     6514.835     1413.360        0.965        0.536       90.289       53.027        0.345      339.404       12.713      865.731
11/05/2013  14:45:00       29.008       -1.178       23.254       43.379       45.497       23.932     1881.722     2069.960      572.742        0.295        0.226       29.032       30.203        1.082      339.533       12.932      865.732
11/05/2013  14:46:00      -11.594       14.093       24.143       45.821       30.205       24.966     2099.542      912.371      623.323        0.227        0.182       18.249       23.827        1.705      339.810       13.398      865.720
11/05/2013  14:47:00      -22.198       30.496       13.357       40.038       17.266       19.255     1603.054      298.120      370.773        0.194        0.114       37.720       23.273        0.381      339.754       13.302      865.717
11/05/2013  14:48:00        3.578       31.929       22.409       22.641       18.478       21.012      512.624      341.444      441.511        0.141        0.065       32.129       15.363        0.229      339.735       13.273      865.711
11/05/2013  14:49:00       14.860       22.736       22.285       20.866       23.465       17.849      435.403      550.610      318.597        0.127        0.065       27.162       15.824        0.339      339.664       13.152      865.711
11/05/2013  14:50:00      -40.219       35.709        2.137       27.956       33.087       19.930      781.529     1094.754      397.206        0.258        0.114       53.783       18.252        0.115      339.851       13.468      865.712
11/05/2013  14:51:00      -29.816       39.257       -4.839       25.050       32.222       20.733      627.490     1038.268      429.867        0.227        0.105       49.296       12.762        0.067      339.722       13.251      865.721
11/05/2013  14:52:00       -7.290        2.138       21.868       27.731       22.037       21.219      769.022      485.638      450.256        0.112        0.085        7.597       16.177        4.535      339.929       13.599      865.730
11/05/2013  14:53:00      -26.204      -13.235        6.128       41.682       16.772       18.389     1737.407      281.292      338.144        0.163        0.118       29.357       14.518        0.245      339.797       13.378      865.739
11/05/2013  14:54:00      -59.215      -33.329        0.808       35.975       26.918       23.343     1294.182      724.562      544.897        0.359        0.128       67.951       22.634        0.111      340.037       13.781      865.735
11/05/2013  14:55:00      -91.906      -36.968      -28.918       33.638       37.753       21.501     1131.519     1425.306      462.297        0.683        0.151       99.063       18.864        0.036      339.592       13.032      865.740
11/05/2013  14:56:00      -56.166      -62.657       -2.788       37.371       53.219       28.572     1396.597     2832.293      816.363        0.607        0.252       84.146       20.674        0.060      339.713       13.234      865.751
11/05/2013  14:57:00      -25.074      -60.008        7.302       25.827       44.421       20.920      667.023     1973.259      437.643        0.368        0.154       65.036       21.727        0.112      339.826       13.425      865.760
11/05/2013  14:58:00       -6.440       -5.787       12.973       30.505       38.075       29.231      930.579     1449.721      854.440        0.174        0.162        8.659       25.316        8.549      339.686       13.190      865.779
11/05/2013  14:59:00        8.697        7.429       30.205       23.009       19.054       17.978      529.408      363.038      323.201        0.113        0.061       11.438       13.514        1.396      340.007       13.731      865.789
11/05/2013  15:00:00       21.916      -46.301        5.013       19.044       16.031       19.746      362.671      257.008      389.910        0.183        0.050       51.226       10.326        0.041      339.945       13.626      865.797
11/05/2013  15:01:00       21.489       -6.442       24.528       24.756       34.749       13.132      612.852     1207.468      172.453        0.155        0.100       22.434        8.919        0.158      340.005       13.728      865.806
11/05/2013  15:02:00       35.074       49.865       52.465       44.138       41.586       31.232     1948.128     1729.374      975.423        0.556        0.233       60.965       22.740        0.139      339.682       13.184      865.805
11/05/2013  15:03:00       14.669      -32.484       27.131       40.586       76.007       38.073     1647.201     5777.035     1449.535        0.544        0.444       35.643       49.422        1.923      339.803       13.388      865.803
11/05/2013  15:04:00       94.941      -93.870        1.268       60.384       64.445       44.970     3646.171     4153.123     2022.257        1.382        0.491      133.512       46.159        0.120      339.601       13.045      865.797
11/05/2013  15:05:00       42.371      -65.747       15.729       41.180       77.438       44.347     1695.821     5996.613     1966.665        0.801        0.483       78.217       51.970        0.441      339.739       13.279      865.810
11/05/2013  15:06:00       56.359      -40.547       20.671       55.909       83.974       47.797     3125.862     7051.703     2284.559        0.885        0.623       69.430       52.905        0.581      339.639       13.112      865.827
11/05/2013  15:07:00       38.788       40.280       25.067       25.969       29.143       42.691      674.405      849.328     1822.514        0.355        0.167       55.919       25.637        0.210      339.613       13.068      865.830
11/05/2013  15:08:00       29.712       34.689       27.575       27.902       33.854       32.593      778.542     1146.121     1062.305        0.292        0.149       45.674       22.968        0.253      339.735       13.273      865.816
11/05/2013  15:09:00       38.739       46.135       75.836       52.264       36.647       28.514     2731.505     1342.974      813.049        0.713        0.244       60.243       19.101        0.101      339.656       13.139      865.817
11/05/2013  15:10:00       54.191       24.172       38.658       34.082       21.755       27.755     1161.558      473.298      770.327        0.371        0.120       59.338       20.046        0.114      339.594       13.034      865.824
11/05/2013  15:11:00       32.334       -3.432       15.376       32.744       20.834       15.491     1072.154      434.050      239.986        0.152        0.087       32.516       12.918        0.158      339.724       13.253      865.827
11/05/2013  15:12:00       28.707       29.832       13.736       22.426        9.213       15.577      502.913       84.887      242.631        0.137        0.042       41.401       12.416        0.090      339.611       13.061      865.827
11/05/2013  15:13:00       50.209        9.814        2.041       23.930       15.459       18.254      572.643      238.976      333.209        0.188        0.057       51.159       10.730        0.044      339.619       13.077      865.830
11/05/2013  15:14:00       20.021       21.628      -11.378       27.076       12.367       14.584      733.112      152.932      212.694        0.105        0.055       29.472        4.370        0.022      339.629       13.093      865.832
11/05/2013  15:15:00      -13.054       26.062       -6.176       17.328       19.236       10.408      300.267      370.016      108.326        0.083        0.039       29.149        9.589        0.108      339.614       13.069      865.828
11/05/2013  15:16:00       20.024       37.481       -8.198       30.836       16.864       18.931      950.836      284.402      358.389        0.173        0.080       42.495       17.421        0.168      339.621       13.080      865.815
11/05/2013  15:17:00       44.425       14.314       12.812       38.975       26.632       24.207     1519.048      709.256      585.988        0.258        0.141       46.674       19.023        0.166      339.808       13.395      865.803
11/05/2013  15:18:00       79.414       66.735       24.844       54.214       37.204       39.483     2939.113     1384.171     1558.909        0.863        0.294      103.731       19.921        0.037      339.792       13.369      865.792
11/05/2013  15:19:00       85.796       36.479       28.724       50.161       37.615       40.626     2516.169     1414.915     1650.469        0.755        0.279       93.229       24.800        0.071      339.813       13.404      865.785
11/05/2013  15:20:00       52.225       42.704       59.650       66.988       65.796       41.852     4487.449     4329.104     1751.572        0.934        0.528       67.462       42.287        0.393      339.797       13.376      865.768
11/05/2013  15:21:00       38.526       70.026       65.997       53.533       44.188       41.746     2865.823     1952.577     1742.746        0.865        0.328       79.924       39.744        0.247      339.784       13.356      865.758
11/05/2013  15:22:00       84.629       58.025        9.745       50.670       40.774       26.472     2567.473     1662.531      700.790        0.778        0.247      102.611       12.473        0.015      339.612       13.065      865.762
11/05/2013  15:23:00       81.457       79.386        8.761       40.259       36.306       29.161     1620.790     1318.109      850.371        0.840        0.189      113.743       19.768        0.030      339.646       13.122      865.770
11/05/2013  15:24:00       82.140       52.625        8.329       37.455       28.224       30.539     1402.874      796.595      932.606        0.636        0.157       97.552       17.353        0.032      339.670       13.163      865.770
11/05/2013  15:25:00       65.779       59.110       13.815       30.622       32.228       30.351      937.724     1038.627      921.157        0.545        0.145       88.435       12.339        0.019      339.789       13.363      865.763
11/05/2013  15:26:00       31.931       63.565       45.310       39.268       38.070       51.909     1541.937     1449.310     2694.512        0.640        0.284       71.135       37.673        0.280      339.877       13.512      865.769
11/05/2013  15:27:00       36.527       41.534       48.759       44.325       32.499       27.350     1964.679     1056.176      748.031        0.460        0.188       55.310       16.207        0.086      339.908       13.564      865.782
11/05/2013  15:28:00      103.524       52.942       31.246       54.831       34.637       34.338     3006.478     1199.706     1179.070        0.994        0.269      116.276       19.903        0.029      339.682       13.182      865.792
11/05/2013  15:29:00       62.695       40.110       43.817       58.574       36.225       40.384     3430.946     1312.246     1630.894        0.692        0.319       74.428       23.129        0.097      339.762       13.318      865.792
11/05/2013  15:30:00       -7.816       22.453       50.040       22.939       33.739       31.265      526.176     1138.340      977.484        0.286        0.132       23.775       25.784        1.176      340.066       13.831      865.779
11/05/2013  15:31:00       35.560       55.563       47.916       44.150       45.796       35.939     1949.226     2097.303     1291.620        0.599        0.267       65.968       30.910        0.220      339.860       13.482      865.781
11/05/2013  15:32:00       28.414      -23.938        3.619       34.327       30.231       21.339     1178.369      913.933      455.351        0.197        0.127       37.153       12.199        0.108      339.886       13.528      865.781
11/05/2013  15:33:00       63.322      -31.511        5.109       31.620       30.861       19.371      999.822      952.429      375.223        0.368        0.116       70.729       19.055        0.073      339.827       13.427      865.775
11/05/2013  15:34:00       69.573        0.383       25.477       51.558       34.384       34.666     2658.267     1182.272     1201.735        0.527        0.252       69.574       31.243        0.202      339.747       13.292      865.772
11/05/2013  15:35:00       29.942       16.560       21.211       22.268       26.310       22.536      495.863      692.191      507.879        0.166        0.085       34.217       15.311        0.200      339.778       13.345      865.763
11/05/2013  15:36:00       18.724       44.081       56.936       39.717       29.883       25.207     1577.455      893.018      635.400        0.432        0.155       47.893       23.511        0.241      339.852       13.469      865.759
11/05/2013  15:37:00        5.809        5.751       26.977       18.938       13.479        9.895      358.643      181.691       97.909        0.072        0.032        8.175        8.181        1.002      340.147       13.965      865.765
11/05/2013  15:38:00       25.651       19.716       14.936       25.639       27.001       22.544      657.368      729.040      508.221        0.158        0.095       32.352       14.377        0.197      339.887       13.529      865.770
11/05/2013  15:39:00       50.394       26.772       23.535       17.022       18.332       23.099      289.750      336.075      533.560        0.248        0.058       57.064       11.761        0.042      339.732       13.266      865.779
11/05/2013  15:40:00       35.174       11.190       13.736       26.376       16.397       13.838      695.695      268.852      191.477        0.135        0.058       36.911       16.329        0.196      339.893       13.539      865.792
11/05/2013  15:41:00       22.513       -3.442       12.959       21.330       25.912       14.421      454.962      671.441      207.979        0.101        0.067       22.774       14.068        0.382      340.025       13.761      865.806
11/05/2013  15:42:00       -5.811       11.515       18.699       23.127       18.022       14.216      534.837      324.793      202.086        0.079        0.053       12.898       12.163        0.889      340.059       13.819      865.811
11/05/2013  15:43:00      -32.052       26.008       18.220       24.487       17.451       18.164      599.635      304.537      329.930        0.163        0.062       41.277       16.709        0.164      339.975       13.677      865.809
11/05/2013  15:44:00      -27.248      -10.527        6.445       29.603       21.994       19.340      876.314      483.754      374.037        0.131        0.087       29.211       15.345        0.276      340.339       14.291      865.810
11/05/2013  15:45:00      -24.486      -34.253        8.066       56.719       23.328       21.281     3216.995      544.208      452.880        0.303        0.211       42.105       24.195        0.330      339.943       13.623      865.815
11/05/2013  15:46:00     -113.671      -25.354      -21.255       16.537       15.527       12.175      273.464      241.084      148.227        0.734        0.033      116.465        5.116        0.002      339.636       13.105      865.820
11/05/2013  15:47:00      -79.845      -16.774       -7.030       37.827       21.445       19.497     1430.891      459.893      380.138        0.449        0.114       81.588       18.774        0.053      339.858       13.481      865.825
11/05/2013  15:48:00      -27.457       12.492       -0.516       25.058       11.152        9.733      627.920      124.362       94.733        0.088        0.042       30.166        3.228        0.011      339.891       13.535      865.824
11/05/2013  15:49:00      -32.128        5.908       -1.669       24.321       22.512       17.461      591.512      506.785      304.882        0.124        0.070       32.666       14.961        0.210      339.937       13.614      865.826
11/05/2013  15:50:00      -47.043      -25.152        0.511       34.650       26.137       17.472     1200.613      683.142      305.283        0.252        0.109       53.344       18.853        0.125      340.173       14.010      865.825
11/05/2013  15:51:00      -51.495      -27.338        0.243       43.224       26.544       19.152     1868.343      704.610      366.792        0.317        0.147       58.302       19.088        0.107      340.050       13.803      865.820
11/05/2013  15:52:00      -25.840      -19.418       -1.380       42.625       22.728       16.520     1816.913      516.550      272.897        0.183        0.130       32.323       17.117        0.280      339.955       13.644      865.812
11/05/2013  15:53:00      -26.752        1.186       -9.672       24.199       21.174       11.810      585.587      448.344      139.474        0.099        0.059       26.778       11.903        0.198      339.891       13.534      865.813
11/05/2013  15:54:00       40.266     -122.921      -20.079       37.543       40.419       22.053     1409.504     1633.674      486.333        1.033        0.176      129.348       24.760        0.037      339.880       13.516      865.823
11/05/2013  15:55:00       53.555     -112.894      -12.734       24.189       30.933       21.364      585.097      956.852      456.420        0.889        0.100      124.952       15.573        0.016      339.837       13.444      865.838
11/05/2013  15:56:00       84.920     -115.767      -23.437       40.427       46.592       27.815     1634.353     2170.799      773.676        1.287        0.229      143.574       20.178        0.020      339.798       13.378      865.850
11/05/2013  15:57:00       64.241      -82.114      -15.508       37.885       46.067       15.531     1435.243     2122.137      241.218        0.745        0.190      104.257       18.522        0.032      339.737       13.275      865.867
11/05/2013  15:58:00      -10.099      -18.892       -9.717       27.207       25.693       12.730      740.244      660.114      162.063        0.106        0.078       21.422        8.806        0.169      339.967       13.664      865.862
11/05/2013  15:59:00       25.946      -12.230        3.993       26.810       27.984       21.991      718.793      783.120      483.603        0.141        0.099       28.684       22.288        0.604      339.867       13.494      865.852
11/05/2013  16:00:00       19.009      -49.050       -7.925       22.866       26.601       15.822      522.864      707.639      250.335        0.216        0.074       52.605       13.425        0.065      339.851       13.468      865.847
11/05/2013  16:01:00       16.725      -59.743        3.879       20.675       19.556       23.276      427.452      382.422      541.777        0.261        0.068       62.040       15.568        0.063      339.917       13.579      865.832
11/05/2013  16:02:00       30.265       -8.088       16.649       22.019       32.891       21.415      484.849     1081.788      458.583        0.164        0.101       31.327       14.610        0.218      339.813       13.403      865.823
11/05/2013  16:03:00       20.819       22.245       25.148       17.151       18.637       16.151      294.161      347.347      260.855        0.123        0.045       30.468       10.377        0.116      339.735       13.273      865.825
11/05/2013  16:04:00       21.703       15.427       28.545       20.120       23.289       25.331      404.824      542.384      641.664        0.156        0.079       26.627       18.717        0.494      339.785       13.357      865.831
11/05/2013  16:05:00       20.154       18.689       11.888       16.320        9.590       15.642      266.355       91.975      244.672        0.075        0.030       27.486       11.419        0.173      339.786       13.357      865.845
11/05/2013  16:06:00       32.289       53.500        8.492       20.308       14.940       20.698      412.415      223.207      428.408        0.252        0.053       62.489       15.614        0.062      339.738       13.277      865.857
11/05/2013  16:07:00       22.570       20.865       -9.336       25.218       37.027       22.564      635.948     1370.994      509.139        0.177        0.126       30.737       11.190        0.133      339.678       13.176      865.873
11/05/2013  16:08:00       26.371       62.681      -13.546       14.328       17.152       13.545      205.286      294.187      183.461        0.275        0.034       68.003       11.275        0.027      339.643       13.118      865.881
11/05/2013  16:09:00       -3.251       60.168       -8.088       21.015       17.282        7.746      441.611      298.677       60.000        0.225        0.040       60.255        5.512        0.008      339.680       13.180      865.885
11/05/2013  16:10:00        9.802       43.715       -4.397        9.391       14.683        6.826       88.189      215.577       46.596        0.119        0.018       44.800        6.118        0.019      339.671       13.164      865.894
11/05/2013  16:11:00       23.150       18.285       -1.099       13.491       16.674        6.327      182.019      278.037       40.032        0.069        0.025       29.500        5.131        0.030      339.681       13.181      865.896
11/05/2013  16:12:00       14.219      -16.546       -1.290       21.120       13.559       11.480      446.034      183.835      131.780        0.062        0.038       21.817        8.212        0.142      339.816       13.410      865.891
11/05/2013  16:13:00       -1.086       -0.655       20.530       10.399       18.228        9.655      108.130      332.258       93.222        0.048        0.027        1.268        9.441       55.440      339.911       13.569      865.892
11/05/2013  16:14:00        4.391       -8.825       14.826        9.590       19.841       12.777       91.959      393.675      163.257        0.048        0.032        9.858        8.963        0.827      339.909       13.568      865.891
11/05/2013  16:15:00       41.273       16.339        8.932       19.894       19.304       10.763      395.763      372.643      115.837        0.147        0.044       44.390        9.871        0.049      339.668       13.160      865.896
11/05/2013  16:16:00       49.196       19.063        5.207       21.793       18.275       14.138      474.953      333.977      199.893        0.191        0.050       52.760       13.264        0.063      339.660       13.146      865.901
11/05/2013  16:17:00       29.301       22.752       39.731       34.770       24.711       21.703     1208.941      610.643      471.016        0.262        0.115       37.097       25.157        0.460      339.733       13.271      865.895
11/05/2013  16:18:00       21.577       32.564       44.266       24.909       23.598       19.980      620.474      556.842      399.202        0.253        0.079       39.064       18.950        0.235      339.730       13.263      865.888
11/05/2013  16:19:00       16.899       31.870       48.227       28.303       23.612       19.463      801.081      557.519      378.824        0.268        0.087       36.073       17.315        0.230      339.676       13.171      865.877
11/05/2013  16:20:00       24.274      -20.680       14.519       22.066       35.196       16.567      486.923     1238.791      274.462        0.161        0.100       31.889       21.934        0.473      339.789       13.363      865.874
11/05/2013  16:21:00       47.807      -61.694      -10.521       19.335       22.203       13.590      373.851      492.957      184.688        0.363        0.053       78.049       10.967        0.020      339.721       13.249      865.884
11/05/2013  16:22:00       15.556      -12.807       16.310       32.251       26.503       20.795     1040.149      702.418      432.412        0.142        0.109       20.150       23.752        1.389      339.795       13.372      865.897
11/05/2013  16:23:00        6.447      -41.694       21.672       14.733       24.393       17.185      217.049      595.005      295.331        0.168        0.055       42.189        6.315        0.022      339.898       13.549      865.918
11/05/2013  16:24:00       -2.579       26.680       42.395       13.631       22.062       13.347      185.806      486.712      178.130        0.168        0.043       26.804       12.520        0.218      339.797       13.378      865.935
11/05/2013  16:25:00       49.314       20.928       28.525       35.020       23.691       19.642     1226.399      561.284      385.791        0.293        0.109       53.571       14.479        0.073      339.685       13.187      865.953
11/05/2013  16:26:00       16.628       19.868       23.197       15.602       14.775       14.163      243.428      218.314      200.589        0.094        0.033       25.907        9.375        0.131      339.690       13.197      865.958
11/05/2013  16:27:00       35.425       13.241       19.390       24.594       16.232       14.064      604.878      263.481      197.807        0.144        0.053       37.819       13.441        0.126      339.624       13.086      865.960
11/05/2013  16:28:00       33.933       15.983        9.894       17.923       15.577       12.540      321.231      242.639      157.250        0.111        0.036       37.508        8.892        0.056      339.672       13.166      865.972
11/05/2013  16:29:00       33.678       18.556       15.673       16.834       18.228       13.513      283.395      332.246      182.592        0.126        0.040       38.452       12.155        0.100      339.640       13.112      865.969
11/05/2013  16:30:00       43.416       25.813        9.396       16.113       15.236       14.816      259.630      232.136      219.519        0.168        0.036       50.510        7.389        0.021      339.684       13.186      865.972
11/05/2013  16:31:00       45.250       30.827       20.147       12.964       12.135       16.367      168.066      147.270      267.878        0.199        0.029       54.752        4.521        0.007      339.627       13.089      865.983
11/05/2013  16:32:00       61.364       27.070       27.137       34.684       22.729       26.962     1203.001      516.587      726.961        0.384        0.122       67.069       22.975        0.117      339.631       13.097      865.988
11/05/2013  16:33:00       48.847       45.160       30.409       28.339       16.919       22.543      803.122      286.266      508.182        0.347        0.080       66.524       18.051        0.074      339.642       13.116      866.005
11/05/2013  16:34:00       34.850       37.983       54.021       26.121       22.988       15.769      682.298      528.453      248.666        0.352        0.073       51.548       12.147        0.056      339.617       13.074      866.017
11/05/2013  16:35:00       57.961       36.627       41.524       23.626       32.528       22.693      558.169     1058.051      514.969        0.428        0.107       68.564       17.302        0.064      339.605       13.051      866.016
11/05/2013  16:36:00       49.511       44.508       61.253       36.429       24.008       22.150     1327.098      576.382      490.633        0.529        0.120       66.576       13.796        0.043      339.574       13.001      866.004
11/05/2013  16:37:00       60.910       49.828       73.459       53.781       45.071       36.102     2892.381     2031.371     1303.322        0.891        0.311       78.695       32.265        0.168      339.560       12.978      865.987
11/05/2013  16:38:00       82.450       64.850       62.119       59.025       46.460       36.637     3483.894     2158.506     1342.268        1.092        0.349      104.897       32.650        0.097      339.546       12.952      865.973
11/05/2013  16:39:00       53.902       17.084       28.355       42.855       28.325       26.132     1836.536      802.284      682.859        0.366        0.166       56.545       13.034        0.053      339.472       12.826      865.964
11/05/2013  16:40:00       65.594       41.360       17.855       26.265       24.260       20.285      689.837      588.540      411.496        0.401        0.084       77.545        9.713        0.016      339.396       12.702      865.963
11/05/2013  16:41:00       37.019       36.974       23.166       23.686       19.496       18.736      561.024      380.080      351.030        0.228        0.065       52.321       13.311        0.065      339.293       12.528      865.973
11/05/2013  16:42:00       51.325       15.612       16.513       37.808       31.624       25.015     1429.424     1000.084      625.736        0.310        0.153       53.647       18.793        0.123      339.360       12.640      866.000
11/05/2013  16:43:00       32.633       14.818        3.266       30.153       18.241       15.552      909.201      332.733      241.870        0.139        0.074       35.840       13.236        0.136      339.329       12.588      866.008
11/05/2013  16:44:00       57.579       35.369       15.028       19.702       17.754       15.710      388.178      315.204      246.802        0.287        0.048       67.574        7.929        0.014      339.314       12.563      866.030
11/05/2013  16:45:00       92.103       36.295       13.626       16.579       20.675       17.428      274.850      427.455      303.729        0.550        0.050       98.997        6.811        0.005      339.326       12.582      866.050
11/05/2013  16:46:00       61.573       39.827        7.036       16.274       26.513       15.436      264.844      702.947      238.283        0.332        0.060       73.331        5.426        0.005      339.308       12.553      866.070
11/05/2013  16:47:00       55.206       35.930        9.307       16.779       10.288       11.800      281.537      105.836      139.235        0.248        0.026       65.869        5.250        0.006      339.312       12.558      866.072
11/05/2013  16:48:00       43.181       38.619        3.947       19.968       16.688       12.691      398.715      278.489      161.063        0.210        0.042       57.932        9.460        0.027      339.300       12.538      866.078
11/05/2013  16:49:00       46.973       36.571       12.897       23.866       20.525       14.432      569.581      421.290      208.296        0.245        0.060       59.530       13.397        0.051      339.247       12.449      866.085
11/05/2013  16:50:00       53.131       44.541       16.434       13.754       12.917       14.259      189.166      166.850      203.330        0.282        0.028       69.331        8.177        0.014      339.288       12.520      866.094
11/05/2013  16:51:00       43.800       32.882       10.945       10.815       12.904        8.815      116.958      166.518       77.701        0.174        0.018       54.769        3.586        0.004      339.263       12.476      866.087
11/05/2013  16:52:00       49.681       36.094        5.964       13.452        8.194        9.676      180.960       67.149       93.630        0.207        0.017       61.409        5.442        0.008      339.236       12.430      866.102
11/05/2013  16:53:00       52.573       32.814       14.877       12.554       10.773       10.495      157.592      116.052      110.142        0.222        0.019       61.973        2.696        0.002      339.220       12.403      866.088
11/05/2013  16:54:00       78.648       35.718       11.773       17.899       15.650       10.523      320.360      244.918      110.735        0.414        0.034       86.379        5.199        0.004      339.268       12.481      866.080
11/05/2013  16:55:00       73.201       46.666       20.963       22.880       25.998       16.638      523.487      675.905      276.817        0.473        0.074       86.810       13.091        0.023      339.203       12.376      866.062
11/05/2013  16:56:00       89.473       44.653       25.673       29.531       15.131       23.443      872.096      228.953      549.553        0.615        0.083       99.996       19.390        0.038      339.192       12.358      866.041
11/05/2013  16:57:00       77.577       42.241       34.832       42.124       27.842       23.001     1774.401      775.172      529.067        0.605        0.154       88.332       22.135        0.063      339.150       12.286      866.037
11/05/2013  16:58:00       85.878       51.438       43.355       46.907       31.835       33.100     2200.288     1013.492     1095.601        0.810        0.215      100.105       31.056        0.096      339.074       12.158      866.027
11/05/2013  16:59:00       81.209       34.966       33.818       45.424       27.134       29.562     2063.331      736.242      873.927        0.632        0.184       88.417       21.169        0.057      339.031       12.086      866.025
11/05/2013  17:00:00       97.213       49.781       15.083       42.473       31.880       25.594     1803.924     1016.343      655.041        0.782        0.174      109.217       13.960        0.016      339.045       12.109      866.023
11/05/2013  17:01:00       86.994       38.944       14.812       27.745       21.729       20.714      769.764      472.170      429.089        0.549        0.084       95.313       16.671        0.031      339.032       12.088      866.028
11/05/2013  17:02:00       92.086       49.118       16.026       29.161       24.197       23.558      850.346      585.517      554.968        0.657        0.100      104.366        8.546        0.007      338.994       12.023      866.024
11/05/2013  17:03:00       59.829       23.514       10.788       33.373       23.313       19.427     1113.763      543.497      377.416        0.314        0.102       64.284        6.124        0.009      338.978       11.997      866.036
11/05/2013  17:04:00       52.247       36.245       16.954       43.368       35.840       17.809     1880.757     1284.515      317.170        0.391        0.174       63.588       14.542        0.052      338.910       11.883      866.041
11/05/2013  17:05:00       53.648       35.630       20.555       20.198       15.757       16.562      407.965      248.280      274.292        0.275        0.047       64.402        3.004        0.002      338.925       11.908      866.048
11/05/2013  17:06:00       72.125       43.635       16.503       23.509       26.444       15.729      552.683      699.308      247.397        0.444        0.075       84.298       11.255        0.018      338.972       11.987      866.053
11/05/2013  17:07:00       85.033       54.739       14.128       26.598       22.604       19.036      707.444      510.936      362.369        0.600        0.079      101.129       16.061        0.025      339.048       12.114      866.061
11/05/2013  17:08:00       41.988       37.239        3.977       22.277       16.425       15.397      496.281      269.778      237.083        0.208        0.050       56.123       10.028        0.032      338.956       11.960      866.067
11/05/2013  17:09:00       39.934       38.218        2.716       26.373       17.683       18.370      695.560      312.694      337.440        0.220        0.067       55.275       12.362        0.050      338.936       11.926      866.068
11/05/2013  17:10:00       54.212       36.936        1.899       28.695       24.895       21.354      823.431      619.753      455.982        0.310        0.095       65.598       14.648        0.050      338.890       11.848      866.071
11/05/2013  17:11:00       56.777       39.362        4.298       26.424       16.133       15.913      698.207      260.281      253.224        0.300        0.061       69.087       14.216        0.042      338.873       11.821      866.074
11/05/2013  17:12:00       50.910       35.940        7.401       12.444       17.902       12.736      154.863      320.471      162.209        0.229        0.032       62.318        9.907        0.025      338.773       11.652      866.073
11/05/2013  17:13:00       49.512       34.765        1.906       19.736       13.043       13.841      389.507      170.116      191.574        0.221        0.038       60.498        8.610        0.020      338.820       11.731      866.083
11/05/2013  17:14:00       67.606       43.688       10.110       20.457       15.738       16.771      418.472      247.672      281.270        0.376        0.047       80.493       10.960        0.019      338.834       11.755      866.085
11/05/2013  17:15:00       69.127       42.605        9.983       24.796       17.598       13.945      614.848      309.707      194.453        0.391        0.056       81.202        5.587        0.005      338.838       11.762      866.095
11/05/2013  17:16:00       62.853       41.463        8.283       14.101       15.826       13.194      198.835      250.454      174.069        0.318        0.031       75.297       12.210        0.026      338.871       11.816      866.115
11/05/2013  17:17:00       75.698       51.005        6.618       23.226       15.887       14.066      539.426      252.397      197.842        0.468        0.049       91.278        7.194        0.006      338.787       11.674      866.130
11/05/2013  17:18:00       68.278       34.767       14.306       25.021       21.139       18.321      626.072      446.862      335.669        0.374        0.070       76.620       13.917        0.033      338.746       11.606      866.156
11/05/2013  17:19:00       65.695       43.069        9.657       22.684       15.862       17.989      514.563      251.588      323.605        0.368        0.054       78.554        8.819        0.013      338.772       11.650      866.178
11/05/2013  17:20:00       78.866       37.678        6.220       22.223       22.068       14.772      493.848      487.008      218.198        0.444        0.060       87.404        8.443        0.009      338.807       11.709      866.198
11/05/2013  17:21:00       76.467       44.692       14.952       27.157       26.005       20.118      737.479      676.245      404.750        0.494        0.091       88.570        6.117        0.005      338.806       11.708      866.208
11/05/2013  17:22:00       51.505       31.736        4.514       27.349       17.107       12.462      747.991      292.659      155.295        0.244        0.060       60.497        5.372        0.008      338.830       11.747      866.217
11/05/2013  17:23:00       24.072       30.030        4.964       21.200       26.413       12.373      449.452      697.630      153.099        0.140        0.065       38.487       14.336        0.139      338.731       11.580      866.230
11/05/2013  17:24:00       36.920       18.893        7.373       18.711       10.843       10.196      350.108      117.568      103.952        0.117        0.029       41.474        5.678        0.019      338.689       11.510      866.239
11/05/2013  17:25:00       55.206       29.573        9.786       22.937       17.700       13.433      526.094      313.298      180.458        0.252        0.051       62.628       11.305        0.033      338.733       11.585      866.260
11/05/2013  17:26:00       48.664       27.595        7.951       18.374       23.651       13.347      337.611      559.363      178.139        0.213        0.054       55.943       11.402        0.042      338.739       11.595      866.283
11/05/2013  17:27:00       43.506       22.374        3.858       16.533       17.935       13.422      273.349      321.655      180.161        0.159        0.039       48.922       12.113        0.061      338.670       11.479      866.304
11/05/2013  17:28:00       59.793        8.226        8.126       16.096       12.251       11.641      259.090      150.091      135.507        0.213        0.027       60.356        8.698        0.021      338.729       11.577      866.313
11/05/2013  17:29:00       33.215       16.522        6.044       18.105       17.687       10.171      327.807      312.828      103.452        0.108        0.037       37.097        9.289        0.063      338.624       11.401      866.331
11/05/2013  17:30:00       35.923        3.011        0.934       15.107       11.087       10.814      228.208      122.925      116.952        0.088        0.023       36.049        9.046        0.063      338.694       11.519      866.341
11/05/2013  17:31:00       36.173       -8.387        3.131       13.932       13.159        9.350      194.108      173.158       87.414        0.092        0.023       37.133        3.400        0.008      338.768       11.645      866.348
11/05/2013  17:32:00       29.720        7.109       10.992       12.248       23.776       12.742      150.006      565.301      162.347        0.097        0.044       30.558        1.667        0.003      338.689       11.510      866.368
11/05/2013  17:33:00       37.148       22.946        8.500        6.843        8.066        7.904       46.830       65.056       62.478        0.108        0.009       43.663        4.179        0.009      338.758       11.626      866.384
11/05/2013  17:34:00       30.979        8.553        3.329        9.941        8.554        8.703       98.820       73.169       75.743        0.065        0.012       32.138        6.397        0.040      338.756       11.622      866.397
11/05/2013  17:35:00       29.579       20.476        7.557       10.712        9.028        8.431      114.755       81.510       71.075        0.081        0.013       35.975        2.860        0.006      338.692       11.516      866.421
11/05/2013  17:36:00       21.695       17.885       -2.766       15.825       15.852        8.018      250.417      251.273       64.288        0.068        0.028       28.117        6.293        0.050      338.630       11.413      866.421
11/05/2013  17:37:00       37.125       24.350        0.760       17.776       16.818       15.390      315.981      282.840      236.860        0.140        0.042       44.398       14.346        0.104      338.625       11.402      866.438
11/05/2013  17:38:00       45.194       35.819        5.061       14.780       12.555       17.170      218.455      157.636      294.803        0.201        0.034       57.667        9.784        0.029      338.686       11.504      866.435
11/05/2013  17:39:00       28.630       15.403        0.041       14.090       10.783        8.058      198.531      116.269       64.933        0.072        0.019       32.510        4.793        0.022      338.609       11.377      866.442
11/05/2013  17:40:00       50.884       17.312        3.983       12.517       13.876       10.187      156.665      192.553      103.784        0.168        0.023       53.748        8.344        0.024      338.608       11.375      866.450
11/05/2013  17:41:00       46.362       25.272        9.216       15.221       10.694        7.193      231.684      114.365       51.741        0.164        0.020       52.803        4.555        0.007      338.590       11.345      866.471
11/05/2013  17:42:00       56.233       33.375       10.897       10.485        8.284        8.907      109.934       68.632       79.339        0.233        0.013       65.392        4.463        0.005      338.639       11.425      866.491
11/05/2013  17:43:00       39.380       29.181        8.360       14.736       12.726       11.141      217.156      161.952      124.129        0.149        0.025       49.013        9.049        0.034      338.484       11.166      866.501
11/05/2013  17:44:00       56.598       38.815       10.496       15.462       14.630       12.802      239.074      214.047      163.899        0.272        0.031       68.629       10.066        0.022      338.494       11.183      866.522
11/05/2013  17:45:00       55.205       34.827        1.058       21.077       21.066       12.224      444.234      443.777      149.433        0.265        0.052       65.273        9.783        0.022      338.458       11.124      866.534
11/05/2013  17:46:00       19.918       16.387        1.514       23.375       17.891       12.143      546.374      320.088      147.458        0.084        0.051       25.792       10.754        0.174      338.368       10.972      866.560
11/05/2013  17:47:00       16.974       30.789       -3.434       22.222       25.582       17.537      493.809      654.437      307.533        0.135        0.073       35.158       19.079        0.294      338.422       11.062      866.573
11/05/2013  17:48:00       15.359       63.081      -10.500       14.520       13.462        8.352      210.823      181.238       69.761        0.239        0.023       64.924        6.198        0.009      338.493       11.182      866.601
11/05/2013  17:49:00       14.484       95.500      -12.608       15.400       17.409        8.959      237.165      303.084       80.259        0.505        0.031       96.592        8.822        0.008      338.598       11.358      866.616
11/05/2013  17:50:00       14.144       84.689      -10.278       15.020       18.884        9.848      225.595      356.600       96.975        0.408        0.034       85.862        9.170        0.011      338.536       11.252      866.635
11/05/2013  17:51:00        2.346       66.102       -9.129       16.564       19.368       14.937      274.381      375.111      223.122        0.267        0.044       66.143       12.575        0.036      338.445       11.100      866.644
11/05/2013  17:52:00        1.126       33.249       -3.708       15.901       22.995       10.726      252.855      528.752      115.048        0.101        0.045       33.268       11.486        0.119      338.368       10.973      866.666
11/05/2013  17:53:00      -14.459       52.179       -6.424       23.061       12.306       10.476      531.814      151.444      109.744        0.188        0.040       54.145        2.769        0.003      338.374       10.981      866.688
11/05/2013  17:54:00      -23.122       21.901       -2.935       26.526       26.258       20.835      703.614      689.485      434.078        0.142        0.091       31.848       19.223        0.364      338.169       10.637      866.714
11/05/2013  17:55:00      -18.659       36.690      -13.018       31.955       46.185       10.147     1021.132     2133.052      102.961        0.256        0.163       41.162        5.705        0.019      338.230       10.739      866.733
11/05/2013  17:56:00      -46.721      -20.479       -9.089       18.470       14.323        9.989      341.142      205.147       99.784        0.167        0.032       51.013        9.257        0.033      337.744        9.924      866.758
11/05/2013  17:57:00      -55.876      -12.600      -13.572       12.859        9.652       11.273      165.351       93.165      127.077        0.193        0.019       57.279        6.284        0.012      337.416        9.376      866.769
11/05/2013  17:58:00      -71.139      -14.102      -15.408       18.650       13.566        8.781      347.820      184.038       77.112        0.305        0.030       72.524        7.642        0.011      337.423        9.386      866.785
11/05/2013  17:59:00      -54.565      -21.305      -11.227       15.887       13.161       11.187      252.387      173.211      125.160        0.205        0.028       58.577        8.201        0.020      337.573        9.638      866.801
11/05/2013  18:00:00      -45.120      -22.483       -5.575       15.768       11.890        8.790      248.625      141.384       77.271        0.152        0.023       50.411        6.985        0.019      337.757        9.947      866.834
11/05/2013  18:01:00      -15.649      -10.031       -1.686       14.629       25.050       13.025      214.002      627.506      169.642        0.068        0.051       18.588       12.889        0.481      337.892       10.173      866.849
11/05/2013  18:02:00      -55.675      -41.358       -5.288       18.491       13.795        9.370      341.904      190.289       87.797        0.273        0.031       69.356        5.605        0.007      337.415        9.374      866.864
11/05/2013  18:03:00      -69.964      -21.749      -19.062        9.545       11.633        9.565       91.105      135.336       91.496        0.302        0.016       73.267        6.169        0.007      337.358        9.277      866.859
11/05/2013  18:04:00      -71.640       -9.831       -7.945       19.157       15.358       13.741      366.999      235.854      188.816        0.304        0.040       72.312       12.018        0.028      337.346        9.258      866.864
11/05/2013  18:05:00      -57.490      -29.818      -12.050       16.174       15.052       16.312      261.611      226.565      266.095        0.255        0.038       64.763        9.872        0.023      337.419        9.379      866.859
11/05/2013  18:06:00      -69.601      -27.987      -17.839       17.133       21.032       12.979      293.526      442.366      168.456        0.342        0.045       75.017        7.054        0.009      337.320        9.214      866.855
11/05/2013  18:07:00      -53.342       -7.471      -12.754       24.795       16.964       13.805      614.781      287.776      190.572        0.208        0.055       53.862        9.565        0.032      337.332        9.234      866.850
11/05/2013  18:08:00      -56.652      -10.688       -7.649       13.774       15.658        8.855      189.721      245.161       78.415        0.195        0.026       57.651        4.905        0.007      337.440        9.416      866.870
11/05/2013  18:09:00      -78.807       -1.357      -14.338       16.018       12.515       15.408      256.562      156.626      237.418        0.353        0.033       78.819       10.662        0.018      337.396        9.342      866.884
11/05/2013  18:10:00      -58.907       -6.023      -12.438       16.738       13.406        9.249      280.147      179.732       85.546        0.210        0.027       59.214        7.033        0.014      337.410        9.366      866.911
11/05/2013  18:11:00      -35.700      -15.537      -17.486       11.552       19.385       10.442      133.445      375.795      109.028        0.122        0.031       38.935        9.895        0.065      337.460        9.449      866.931
11/05/2013  18:12:00      -47.082      -24.023      -13.439       10.506       13.839        6.485      110.386      191.530       42.052        0.166        0.017       52.857        4.343        0.007      337.313        9.203      866.937
11/05/2013  18:13:00      -25.162       -1.791       -8.414       17.549        9.548        8.851      307.978       91.170       78.337        0.059        0.024       25.226        9.541        0.143      337.517        9.544      866.939
11/05/2013  18:14:00      -31.560      -28.610       -3.550       14.941       16.003       12.161      223.233      256.102      147.880        0.123        0.031       42.598        7.077        0.028      337.435        9.408      866.948
11/05/2013  18:15:00      -72.325      -17.121      -17.752       14.174       16.370       11.876      200.899      267.973      141.046        0.322        0.030       74.323       10.091        0.018      337.149        8.929      866.948
11/05/2013  18:16:00      -75.952      -22.283      -19.994       12.086       10.927        9.604      146.060      119.391       92.234        0.351        0.018       79.154        4.703        0.004      337.118        8.876      866.943
11/05/2013  18:17:00      -90.295      -19.276      -13.349       18.388       15.956       11.436      338.114      254.586      130.789        0.471        0.036       92.330        4.033        0.002      337.045        8.752      866.942
11/05/2013  18:18:00      -88.033      -20.807      -18.481       10.822       14.391       10.053      117.117      207.092      101.072        0.447        0.021       90.459        6.959        0.006      336.976        8.637      866.960
11/05/2013  18:19:00      -95.665      -17.432      -16.253       19.094       14.841        9.095      364.570      220.251       82.719        0.519        0.033       97.240        4.784        0.002      336.980        8.644      866.972
11/05/2013  18:20:00      -87.969      -15.305      -16.890       16.926       17.400       13.604      286.504      302.764      185.058        0.452        0.039       89.291       11.786        0.017      337.076        8.805      866.989
11/05/2013  18:21:00      -98.217      -24.095      -16.860       13.493       11.535        9.528      182.060      133.052       90.773        0.546        0.020      101.130        6.915        0.005      336.960        8.610      866.990
11/05/2013  18:22:00      -86.876      -35.957      -16.842       19.272       12.918       10.801      371.411      166.881      116.652        0.489        0.033       94.023        8.862        0.009      336.977        8.639      866.996
11/05/2013  18:23:00      -84.859      -19.614      -23.109       15.597       18.437       12.274      243.264      339.914      150.657        0.443        0.037       87.096        8.172        0.009      337.030        8.727      866.998
11/05/2013  18:24:00      -63.343      -14.777       -9.044       14.978       13.884       11.082      224.331      192.756      122.801        0.243        0.027       65.044        9.260        0.020      337.031        8.730      867.010
11/05/2013  18:25:00      -93.906       -7.210      -16.565       12.471        9.683        6.923      155.531       93.753       47.926        0.472        0.015       94.183        2.683        0.001      337.044        8.750      867.024
11/05/2013  18:26:00     -101.620       -0.705      -14.609       15.741        9.316        7.578      247.764       86.785       57.421        0.547        0.020      101.622        2.757        0.001      337.122        8.883      867.036
11/05/2013  18:27:00      -77.246      -14.289      -15.335       17.982       12.661        9.003      323.339      160.309       81.049        0.349        0.028       78.556        7.516        0.009      337.094        8.834      867.029
11/05/2013  18:28:00      -50.227      -13.498      -11.013       11.584        9.515       10.812      134.197       90.538      116.889        0.158        0.017       52.009        7.027        0.018      337.104        8.851      867.039
11/05/2013  18:29:00      -73.443      -20.898      -20.992       10.740       12.834       10.533      115.339      164.717      110.955        0.333        0.020       76.358        5.894        0.006      337.073        8.801      867.043
11/05/2013  18:30:00      -86.919      -24.506      -10.458       19.866       18.746       14.323      394.644      351.405      205.145        0.461        0.048       90.307       11.360        0.016      336.920        8.543      867.068
11/05/2013  18:31:00      -73.283      -29.820      -17.961       22.237       18.160       14.480      494.505      329.780      209.679        0.381        0.052       79.118       13.835        0.031      336.807        8.357      867.084
11/05/2013  18:32:00      -85.017      -59.625      -12.892       19.755       20.127       17.607      390.243      405.104      310.004        0.603        0.055      103.841        9.969        0.009      336.694        8.168      867.105
11/05/2013  18:33:00      -77.238      -38.334      -11.680       33.870       27.502       21.237     1147.166      756.334      450.994        0.496        0.118       86.228       20.204        0.055      336.625        8.053      867.123
11/05/2013  18:34:00     -120.344      -54.711      -10.543       32.235       28.691       17.025     1039.110      823.167      289.853        0.987        0.108      132.197        9.583        0.005      336.560        7.946      867.160
11/05/2013  18:35:00     -109.633      -45.909      -22.150       29.554       24.318       15.485      873.464      591.370      239.783        0.816        0.085      118.857        7.535        0.004      336.559        7.943      867.184
11/05/2013  18:36:00     -131.718      -23.687      -15.900       33.911       25.655       16.051     1149.945      658.166      257.642        1.011        0.103      133.831       16.569        0.015      336.642        8.083      867.210
11/05/2013  18:37:00     -106.079      -37.193      -14.425       24.558       21.736       17.480      603.096      472.438      305.539        0.711        0.069      112.410       14.507        0.017      336.617        8.041      867.224
11/05/2013  18:38:00      -89.838      -31.836       -4.347       23.064       20.727       16.604      531.970      429.619      275.705        0.517        0.062       95.312       14.050        0.022      336.676        8.140      867.233
11/05/2013  18:39:00      -84.380      -26.795      -11.155       19.101       16.686       15.049      364.837      278.424      226.471        0.442        0.043       88.532        7.530        0.007      336.690        8.162      867.223
11/05/2013  18:40:00      -80.946      -23.282      -17.299       17.644       24.385       15.840      311.298      594.628      250.909        0.428        0.058       84.228        8.057        0.009      336.700        8.179      867.219
11/05/2013  18:41:00      -90.264      -41.008      -16.262       16.175       19.473       12.552      261.639      379.191      157.548        0.545        0.040       99.142        7.397        0.006      336.681        8.148      867.203
11/05/2013  18:42:00     -110.973      -21.022      -18.636       23.313       23.691       12.973      543.494      561.244      168.291        0.719        0.064      112.947        3.607        0.001      336.667        8.125      867.194
11/05/2013  18:43:00     -108.772      -20.625      -19.442       18.570       18.207       15.326      344.843      331.496      234.879        0.677        0.046      110.710        7.099        0.004      336.543        7.916      867.184
11/05/2013  18:44:00     -121.466      -28.768      -20.853       22.377       26.250       14.483      500.742      689.042      209.756        0.871        0.070      124.826        5.539        0.002      336.579        7.978      867.175
11/05/2013  18:45:00     -105.544      -21.094      -20.954       22.296       25.300       17.698      497.114      640.071      313.211        0.674        0.073      107.631       14.742        0.019      336.535        7.902      867.173
11/05/2013  18:46:00      -72.926      -35.547      -12.470       18.887       21.356       16.051      356.736      456.069      257.636        0.390        0.054       81.128        9.582        0.014      336.589        7.993      867.156
11/05/2013  18:47:00      -64.708      -33.953       -6.593       17.345       22.638       16.005      300.843      512.465      256.156        0.323        0.053       73.075       11.662        0.025      336.609        8.025      867.155
11/05/2013  18:48:00      -80.532      -35.454      -23.540       15.542       18.828       14.686      241.541      354.480      215.673        0.455        0.041       87.991        7.204        0.007      336.577        7.973      867.164
11/05/2013  18:49:00      -82.610      -43.713      -24.046       15.329       15.608       15.085      234.964      243.609      227.547        0.501        0.035       93.462       10.228        0.012      336.532        7.897      867.186
11/05/2013  18:50:00      -80.675      -15.561      -15.857       17.369       23.240       13.374      301.669      540.099      178.853        0.401        0.051       82.162        8.392        0.010      336.497        7.838      867.193
11/05/2013  18:51:00      -92.750      -15.761      -15.616       15.808       15.250       10.826      249.882      232.568      117.201        0.485        0.030       94.080        4.810        0.003      336.453        7.766      867.207
11/05/2013  18:52:00     -107.977      -18.386      -18.519       17.426       18.607       12.637      303.669      346.220      159.700        0.657        0.040      109.531        7.958        0.005      336.383        7.650      867.217
11/05/2013  18:53:00     -102.665      -20.939      -12.303       27.371       18.228       13.126      749.188      332.270      172.288        0.619        0.063      104.778       11.267        0.012      336.353        7.599      867.223
11/05/2013  18:54:00      -97.458       -7.177      -12.578       25.369       22.524       16.949      643.599      507.320      287.263        0.557        0.072       97.722       14.613        0.022      336.373        7.631      867.239
11/05/2013  18:55:00     -117.064        7.139      -14.052       28.674       17.504       17.509      822.197      306.383      306.574        0.769        0.072      117.281       16.068        0.019      336.329        7.556      867.239
11/05/2013  18:56:00      -83.106      -14.589       -5.948       34.820       22.085       17.672     1212.427      487.731      312.285        0.458        0.101       84.377       20.260        0.058      336.238        7.405      867.249
11/05/2013  18:57:00     -111.694       -1.233      -15.531       28.155       20.055       15.582      792.693      402.192      242.789        0.708        0.072      111.700       13.092        0.014      336.234        7.399      867.256
11/05/2013  18:58:00     -104.800      -15.544      -11.883       22.873       19.393       15.863      523.164      376.103      251.644        0.626        0.058      105.946        6.948        0.004      336.249        7.424      867.273
11/05/2013  18:59:00      -89.183      -10.161      -10.427       36.843       22.484       22.850     1357.407      505.531      522.101        0.527        0.119       89.760       21.686        0.058      336.182        7.311      867.297
11/05/2013  19:00:00      -89.848       -6.907      -16.938       31.320       23.314       20.265      980.912      543.527      410.656        0.517        0.097       90.114       16.447        0.033      336.164        7.282      867.309
11/05/2013  19:01:00      -63.249       -0.556       -9.185       37.416       24.158       19.903     1399.921      583.595      396.149        0.323        0.119       63.252       19.510        0.095      336.170        7.292      867.331
11/05/2013  19:02:00      -85.095       -8.773      -26.887       31.730       27.941       22.783     1006.786      780.691      519.079        0.517        0.115       85.546       14.824        0.030      336.213        7.363      867.339
11/05/2013  19:03:00     -102.937       -5.674      -15.417       46.521       26.157       20.827     2164.157      684.209      433.769        0.707        0.164      103.094       18.500        0.032      336.179        7.307      867.350
11/05/2013  19:04:00     -105.663       -9.679      -13.993       43.614       23.042       21.065     1902.212      530.924      443.733        0.716        0.144      106.105       23.562        0.049      336.174        7.299      867.358
11/05/2013  19:05:00     -140.085       -7.038      -22.044       21.526       20.203       16.444      463.382      408.147      270.411        1.065        0.057      140.261       12.011        0.007      336.226        7.385      867.364
11/05/2013  19:06:00     -131.852       -7.509      -18.917       29.069       20.507       17.409      844.986      420.535      303.080        0.968        0.078      132.065       14.641        0.012      336.237        7.404      867.369
11/05/2013  19:07:00     -134.709       -2.502      -22.560       31.710       16.028       17.504     1005.509      256.891      306.400        1.011        0.078      134.732       16.244        0.015      336.225        7.383      867.369
11/05/2013  19:08:00     -129.557       -5.558      -18.828       28.050       24.482       16.763      786.795      599.348      281.007        0.942        0.083      129.676       15.301        0.014      336.248        7.422      867.366
11/05/2013  19:09:00     -124.449      -13.126      -15.913       33.177       22.111       21.631     1100.730      488.899      467.881        0.898        0.103      125.139       18.057        0.021      336.288        7.490      867.363
11/05/2013  19:10:00     -114.741      -16.013      -17.042       30.732       23.088       18.166      944.442      533.046      330.009        0.776        0.090      115.854       13.827        0.014      336.271        7.460      867.359
11/05/2013  19:11:00     -102.901        3.726      -16.808       32.584       23.956       19.135     1061.710      573.875      366.162        0.644        0.100      102.969       13.098        0.016      336.260        7.442      867.366
11/05/2013  19:12:00     -119.068        4.152      -20.832       30.542       24.311       21.669      932.811      591.015      469.533        0.831        0.100      119.141       19.386        0.026      336.272        7.462      867.351
11/05/2013  19:13:00     -123.451       -7.431      -19.793       25.005       24.617       16.228      625.250      605.990      263.340        0.859        0.075      123.674       14.737        0.014      336.330        7.559      867.343
11/05/2013  19:14:00     -133.591        1.476      -18.089       25.155       22.958       19.501      632.776      527.072      380.293        0.986        0.077      133.599        9.375        0.005      336.341        7.577      867.338
11/05/2013  19:15:00     -129.852       -3.946      -19.721       32.741       16.511       15.000     1071.974      272.614      225.010        0.942        0.078      129.912       13.501        0.011      336.319        7.540      867.321
11/05/2013  19:16:00      -95.968      -14.541      -11.592       28.493       21.512       15.405      811.842      462.748      237.299        0.553        0.076       97.063       13.084        0.018      336.294        7.500      867.315
11/05/2013  19:17:00     -109.703       -6.656       -7.456       28.367       20.988       19.609      804.688      440.512      384.501        0.688        0.081      109.905       13.599        0.015      336.311        7.528      867.296
11/05/2013  19:18:00     -105.883      -13.459      -15.144       27.788       16.822       13.371      772.170      282.993      178.782        0.643        0.062      106.735        8.003        0.006      336.295        7.502      867.287
11/05/2013  19:19:00      -87.927      -22.780       -5.642       27.503       17.712       13.759      756.434      313.725      189.307        0.477        0.063       90.830       14.746        0.026      336.248        7.423      867.273
11/05/2013  19:20:00      -69.115      -22.751        0.892       17.261       13.368       11.615      297.928      178.711      134.919        0.295        0.031       72.763       10.259        0.020      336.322        7.545      867.269
11/05/2013  19:21:00      -73.986      -24.871       -8.032       13.847       18.724       11.455      191.740      350.598      131.220        0.342        0.034       78.055        6.559        0.007      336.322        7.546      867.273
11/05/2013  19:22:00      -77.631      -41.069      -14.108       13.259       15.738       11.225      175.807      247.684      126.003        0.423        0.027       87.825        9.096        0.011      336.339        7.576      867.267
11/05/2013  19:23:00      -60.069      -41.006      -10.242       14.859       14.041       11.478      220.790      197.161      131.742        0.297        0.027       72.731        4.302        0.003      336.388        7.657      867.274
11/05/2013  19:24:00      -86.900      -47.684      -12.085       15.354       13.929        9.526      235.754      194.013       90.743        0.525        0.026       99.123        6.330        0.004      336.392        7.663      867.277
11/05/2013  19:25:00     -114.291      -23.547      -15.730        8.081       10.551        8.018       65.297      111.323       64.294        0.705        0.012      116.692        5.203        0.002      336.386        7.654      867.277
11/05/2013  19:26:00     -123.368      -33.652      -20.899        9.491       11.843        7.951       90.084      140.264       63.217        0.854        0.015      127.876        5.316        0.002      336.375        7.636      867.284
11/05/2013  19:27:00     -127.736      -41.719      -14.745       12.557        9.561        7.760      157.670       91.403       60.221        0.929        0.015      134.376        3.106        0.001      336.411        7.695      867.292
11/05/2013  19:28:00     -105.189      -38.193      -11.202       16.525       20.178       13.021      273.064      407.172      169.534        0.675        0.042      111.908        8.490        0.006      336.423        7.714      867.290
11/05/2013  19:29:00      -97.883      -39.874      -13.030       13.973       10.179        9.926      195.239      103.615       98.521        0.587        0.020      105.693        3.155        0.001      336.429        7.724      867.298
11/05/2013  19:30:00      -87.857      -39.671       -6.368       18.756       17.543       11.886      351.782      307.740      141.278        0.507        0.040       96.399        9.047        0.009      336.451        7.762      867.320
11/05/2013  19:31:00      -81.081      -50.112       -0.463       29.696       26.781       15.437      881.861      717.213      238.305        0.546        0.092       95.317       14.130        0.022      336.356        7.604      867.329
11/05/2013  19:32:00      -89.578      -53.573       -7.324       21.209       21.661       13.718      449.813      469.205      188.181        0.603        0.055      104.376        9.486        0.008      336.317        7.538      867.349
11/05/2013  19:33:00     -106.938      -42.932       -9.244       17.001       21.172       12.253      289.021      448.250      150.142        0.713        0.044      115.234        9.994        0.008      336.300        7.509      867.382
11/05/2013  19:34:00      -96.393      -63.740       -6.792       25.528       20.866       15.265      651.659      435.379      233.028        0.736        0.066      115.562       12.471        0.012      336.257        7.437      867.408
11/05/2013  19:35:00      -94.612      -54.471       -4.849       19.344       21.905       14.688      374.189      479.822      215.734        0.651        0.053      109.172       11.191        0.011      336.218        7.372      867.428
11/05/2013  19:36:00     -109.664      -61.574       -6.114       29.069       28.164       16.457      845.018      793.185      270.846        0.888        0.095      125.768       15.798        0.016      336.200        7.343      867.451
11/05/2013  19:37:00     -140.138      -64.511      -12.795       13.442       16.660       14.245      180.691      277.543      202.912        1.231        0.033      154.273        8.551        0.003      336.204        7.347      867.487
11/05/2013  19:38:00     -126.650      -51.826      -12.330       16.075       12.275       12.884      258.422      150.666      166.004        0.973        0.029      136.844        8.018        0.003      336.194        7.332      867.513
11/05/2013  19:39:00     -112.963      -49.553      -12.749       16.355       17.559       11.046      267.491      308.319      122.016        0.804        0.035      123.354        7.061        0.003      336.214        7.365      867.532
11/05/2013  19:40:00      -93.184      -56.727       -9.653       20.295       16.543       12.965      411.883      273.677      168.100        0.642        0.043      109.093        9.386        0.007      336.280        7.476      867.548
11/05/2013  19:41:00     -105.573      -47.382      -13.335       21.951       15.988       12.830      481.864      255.603      164.615        0.724        0.045      115.718        9.934        0.007      336.231        7.393      867.558
11/05/2013  19:42:00      -91.892      -38.089       -6.676       18.869       22.439       14.512      356.026      503.506      210.597        0.550        0.054       99.473       10.568        0.011      336.166        7.285      867.565
11/05/2013  19:43:00      -78.205      -22.053       -2.373       17.191       16.965       11.922      295.537      287.822      142.134        0.367        0.036       81.255        9.427        0.013      336.157        7.270      867.557
11/05/2013  19:44:00      -86.890      -44.152       -8.273       10.366       14.402        9.383      107.461      207.421       88.045        0.499        0.020       97.464        4.273        0.002      336.152        7.262      867.550
11/05/2013  19:45:00      -69.455      -40.477      -11.026       16.249       14.088       10.048      264.015      198.466      100.967        0.357        0.028       80.389        8.183        0.010      336.136        7.236      867.547
11/05/2013  19:46:00      -60.150      -30.524        1.886       14.939       20.288       12.057      223.179      411.588      145.367        0.267        0.039       67.452       10.435        0.024      336.080        7.139      867.547
11/05/2013  19:47:00      -65.547      -32.666       -7.276       23.239       16.141       15.685      540.044      260.546      246.006        0.323        0.052       73.236        7.763        0.011      336.117        7.203      867.546
11/05/2013  19:48:00      -79.080      -40.112      -16.351       27.097       15.862       14.263      734.238      251.590      203.424        0.466        0.059       88.672       12.640        0.020      336.095        7.166      867.549
11/05/2013  19:49:00      -83.041      -42.617      -19.137       16.429       16.213       12.068      269.899      262.860      145.640        0.488        0.034       93.338        5.371        0.003      336.092        7.161      867.554
11/05/2013  19:50:00      -99.131      -44.077      -18.778       18.378       18.009       11.267      337.754      324.306      126.946        0.646        0.039      108.489        7.513        0.005      336.028        7.055      867.573
11/05/2013  19:51:00     -105.313      -36.022      -16.580       18.763       13.911       10.070      352.033      193.529      101.414        0.665        0.032      111.303        8.503        0.006      336.000        7.007      867.572
11/05/2013  19:52:00     -128.584      -38.460      -16.197       11.316       11.913        8.724      128.045      141.912       76.113        0.931        0.017      134.213        5.524        0.002      336.010        7.023      867.560
11/05/2013  19:53:00     -109.459      -34.106       -8.978       20.125       19.149       13.860      404.998      366.672      192.101        0.709        0.048      114.649       12.612        0.012      336.027        7.052      867.557
11/05/2013  19:54:00     -117.225      -46.529      -13.949       11.017       12.866        8.992      121.373      165.537       80.851        0.823        0.018      126.122        5.869        0.002      336.045        7.081      867.566
11/05/2013  19:55:00     -106.352      -43.326      -11.094       17.659       19.936        8.717      311.856      397.439       75.984        0.705        0.039      114.839        7.657        0.004      336.049        7.089      867.565
11/05/2013  19:56:00      -83.858      -19.876      -16.097       16.585       12.644       10.020      275.075      159.876      100.391        0.411        0.027       86.182        5.426        0.004      335.970        6.956      867.564
11/05/2013  19:57:00      -78.178      -31.612      -14.900       12.238       11.435        8.773      149.764      130.756       76.968        0.385        0.018       84.328        5.163        0.004      336.042        7.077      867.567
11/05/2013  19:58:00      -91.445      -28.370      -11.487       13.933       12.489        8.675      194.127      155.968       75.255        0.486        0.021       95.744        5.787        0.004      336.054        7.099      867.577
11/05/2013  19:59:00      -92.990      -32.659      -17.236        8.054       10.987        8.783       64.867      120.715       77.136        0.514        0.013       98.558        4.016        0.002      336.010        7.024      867.595
11/05/2013  20:00:00     -111.758      -48.386      -18.084       10.887        8.199        6.790      118.525       67.216       46.101        0.769        0.012      121.783        4.634        0.001      336.014        7.032      867.608
11/05/2013  20:01:00     -117.966      -56.449      -12.122       13.005       15.412        8.737      169.126      237.544       76.331        0.887        0.024      130.776        4.569        0.001      335.933        6.895      867.620
11/05/2013  20:02:00      -94.089      -73.230       -8.351       37.090       33.762       23.720     1375.701     1139.885      562.615        0.868        0.154      119.228       20.865        0.031      335.857        6.771      867.635
11/05/2013  20:03:00      -90.100      -69.885        5.734       61.386       37.785       29.878     3768.209     1427.740      892.710        0.956        0.304      114.026       29.158        0.065      335.801        6.676      867.653
11/05/2013  20:04:00      -97.478      -67.271        8.246       47.674       31.464       28.388     2272.855      989.977      805.853        0.908        0.203      118.437       26.533        0.050      335.846        6.752      867.675
11/05/2013  20:05:00      -93.774      -61.003        5.208       44.669       35.947       24.333     1995.359     1292.175      592.087        0.821        0.194      111.870       18.404        0.027      335.802        6.679      867.673
11/05/2013  20:06:00     -136.688      -79.011       -2.000       46.590       35.474       23.508     2170.616     1258.397      552.627        1.446        0.199      157.881       24.076        0.023      335.730        6.558      867.668
11/05/2013  20:07:00     -116.389      -56.225        0.729       39.325       28.097       18.121     1546.471      789.452      328.364        0.969        0.133      129.258       16.364        0.016      335.725        6.549      867.672
11/05/2013  20:08:00      -95.201      -55.801        2.599       32.125       22.642       21.753     1032.003      512.663      473.214        0.710        0.101      110.349       18.340        0.028      335.751        6.595      867.672
11/05/2013  20:09:00      -67.195      -38.868        8.606       39.678       25.744       24.194     1574.310      662.752      585.348        0.446        0.141       77.627       24.294        0.098      335.732        6.562      867.673
11/05/2013  20:10:00      -37.187      -23.379       10.159       40.377       28.962       20.300     1630.282      838.815      412.071        0.246        0.144       43.925       24.745        0.317      335.666        6.454      867.683
11/05/2013  20:11:00      -64.432      -54.795        9.675       43.244       37.222       25.816     1870.044     1385.505      666.465        0.558        0.196       84.581       24.115        0.081      335.700        6.509      867.691
11/05/2013  20:12:00      -66.849      -54.089        8.704       54.725       34.140       24.915     2994.815     1165.519      620.773        0.612        0.239       85.990       30.064        0.122      335.733        6.564      867.699
11/05/2013  20:13:00      -70.016      -40.637       12.224       50.023       27.027       23.341     2502.263      730.446      544.798        0.524        0.189       80.954       26.734        0.109      335.722        6.546      867.717
11/05/2013  20:14:00      -57.644      -50.671        8.918       46.301       35.558       23.785     2143.794     1264.365      565.716        0.497        0.199       76.749       26.474        0.119      335.694        6.499      867.721
11/05/2013  20:15:00      -77.434      -41.791        5.499       42.457       31.889       19.831     1802.579     1016.879      393.280        0.549        0.161       87.992       18.840        0.046      335.677        6.470      867.729
11/05/2013  20:16:00     -105.365      -62.514       -0.244       35.054       24.874       18.533     1228.797      618.733      343.472        0.860        0.110      122.515       14.011        0.013      335.693        6.497      867.727
11/05/2013  20:17:00      -80.150      -46.664       -1.099       32.677       24.053       17.266     1067.762      578.545      298.125        0.527        0.097       92.744       14.076        0.023      335.666        6.452      867.724
11/05/2013  20:18:00      -42.702      -36.424        1.533       33.709       21.001       20.244     1136.285      441.030      409.833        0.257        0.099       56.127       13.839        0.061      335.665        6.449      867.726
11/05/2013  20:19:00     -104.077      -61.109       -9.164       25.034       20.760       14.579      626.687      430.977      212.557        0.796        0.064      120.691       10.741        0.008      335.645        6.418      867.735
11/05/2013  20:20:00      -90.742      -59.724        1.079       46.167       28.346       24.399     2131.430      803.496      595.316        0.767        0.177      108.633       26.022        0.057      335.617        6.370      867.753
11/05/2013  20:21:00     -121.196      -47.121       -9.056       25.873       27.886       21.132      669.415      777.642      446.581        0.944        0.095      130.034       16.324        0.016      335.536        6.236      867.761
11/05/2013  20:22:00     -126.712      -45.538      -16.630       21.411       24.802       14.117      458.431      615.157      199.294        0.984        0.064      134.646        6.156        0.002      335.574        6.299      867.797
11/05/2013  20:23:00     -125.985      -23.863       -6.624       33.010       25.747       19.746     1089.643      662.883      389.910        0.931        0.107      128.225       18.994        0.022      335.441        6.077      867.822
11/05/2013  20:24:00     -131.435      -11.855       -4.303       51.650       36.079       26.281     2667.688     1301.661      690.692        1.105        0.233      131.968       26.904        0.042      335.361        5.943      867.860
11/05/2013  20:25:00     -155.428       -4.835      -10.294       58.422       37.056       29.419     3413.165     1373.146      865.453        1.497        0.283      155.503       29.869        0.037      335.287        5.818      867.888
11/05/2013  20:26:00     -189.824       27.063      -17.070       38.432       40.726       21.032     1477.003     1658.574      442.348        2.032        0.179      191.743       10.485        0.003      335.320        5.873      867.914
11/05/2013  20:27:00     -194.571       14.969      -15.809       50.822       37.798       29.969     2582.889     1428.723      898.112        2.162        0.245      195.146       30.056        0.024      335.325        5.882      867.918
11/05/2013  20:28:00      -95.400        6.888       -5.730       55.226       41.647       33.909     3049.937     1734.445     1149.853        0.756        0.297       95.648       32.970        0.119      335.252        5.762      867.923
11/05/2013  20:29:00     -127.707       14.681      -11.002       74.692       41.477       29.976     5578.933     1720.366      898.537        1.242        0.410      128.548       31.537        0.060      335.309        5.855      867.911
11/05/2013  20:30:00      -71.847       12.312       -1.514       49.749       36.349       26.798     2474.985     1321.269      718.144        0.491        0.226       72.894       29.240        0.161      335.286        5.817      867.913
11/05/2013  20:31:00      -51.699        0.983       -5.778       48.784       21.677       22.046     2379.859      469.911      486.041        0.302        0.167       51.708       25.827        0.249      335.269        5.791      867.911
11/05/2013  20:32:00     -103.631      -12.465      -14.253       46.691       29.479       20.534     2180.044      869.023      421.637        0.728        0.174      104.378       14.244        0.019      335.309        5.857      867.920
11/05/2013  20:33:00      -64.239      -10.919       -8.795       33.314       34.548       19.963     1109.827     1193.577      398.506        0.351        0.135       65.161       21.319        0.107      335.322        5.878      867.932
11/05/2013  20:34:00      -69.566       -4.809      -11.894       38.738       34.829       23.686     1500.656     1213.041      561.041        0.414        0.164       69.732       19.379        0.077      335.430        6.059      867.956
11/05/2013  20:35:00     -114.343       -1.770      -19.547       45.909       31.963       24.782     2107.612     1021.615      614.123        0.860        0.187      114.357       22.872        0.040      335.452        6.096      867.969
11/05/2013  20:36:00     -109.235       -6.969      -19.766       39.326       28.691       18.879     1546.564      823.148      356.425        0.755        0.136      109.457       14.629        0.018      335.411        6.025      867.984
11/05/2013  20:37:00      -64.824      -17.906       -3.083       48.735       39.013       27.420     2375.092     1521.991      751.873        0.459        0.232       67.251       27.758        0.170      335.358        5.938      867.996
11/05/2013  20:38:00      -63.446      -24.573       10.296       51.629       52.948       30.956     2665.598     2803.536      958.287        0.558        0.321       68.039       29.203        0.184      335.312        5.861      868.009
11/05/2013  20:39:00      -73.813      -17.153        3.075       43.944       34.694       28.415     1931.107     1203.680      807.428        0.485        0.197       75.779       26.712        0.124      335.333        5.895      868.014
11/05/2013  20:40:00      -80.797        0.619       -3.449       49.856       39.657       26.732     2485.589     1572.650      714.607        0.566        0.239       80.799       28.580        0.125      335.318        5.872      868.036
11/05/2013  20:41:00      -98.356       -5.535      -10.679       41.519       36.908       24.398     1723.845     1362.177      595.281        0.675        0.184       98.511       23.901        0.059      335.321        5.876      868.051
11/05/2013  20:42:00      -86.847        0.139       -5.303       37.678       30.686       18.945     1419.626      941.627      358.897        0.514        0.136       86.847       15.019        0.030      335.315        5.866      868.083
11/05/2013  20:43:00     -107.561      -24.452      -13.700       25.155       19.824       11.286      632.754      392.980      127.378        0.675        0.058      110.306        4.905        0.002      335.465        6.115      868.104
11/05/2013  20:44:00      -75.731      -20.934       -6.373       30.632       37.874       18.316      938.315     1434.404      335.470        0.446        0.135       78.571        6.111        0.006      335.408        6.021      868.122
11/05/2013  20:45:00      -92.838      -72.215        0.329       53.881       38.389       21.269     2903.183     1473.732      452.362        0.933        0.241      117.618       23.589        0.040      335.419        6.039      868.135
11/05/2013  20:46:00     -117.704      -51.932        0.526       49.180       29.436       23.717     2418.636      866.505      562.495        1.020        0.192      128.651       24.943        0.038      335.445        6.083      868.145
11/05/2013  20:47:00      -84.641      -53.098        4.482       32.011       23.389       19.928     1024.678      547.064      397.145        0.599        0.098       99.917       18.965        0.036      335.462        6.111      868.137
11/05/2013  20:48:00      -65.234      -62.595        3.408       39.088       22.112       20.887     1527.873      488.962      436.272        0.532        0.123       90.408       17.518        0.038      335.536        6.236      868.140
11/05/2013  20:49:00      -36.759      -38.011       10.304       40.495       16.208       20.777     1639.873      262.712      431.698        0.262        0.117       52.878       18.606        0.124      335.547        6.254      868.132
11/05/2013  20:50:00      -40.010      -25.387       -0.945       22.686       17.605       13.108      514.668      309.937      171.829        0.162        0.050       47.384       10.148        0.046      335.593        6.329      868.143
11/05/2013  20:51:00      -75.258      -44.621       -6.621       19.453       15.991       13.118      378.433      255.696      172.093        0.425        0.040       87.492        9.524        0.012      335.568        6.289      868.163
11/05/2013  20:52:00      -90.356      -28.390       -6.959       23.916       20.335       14.137      571.987      413.529      199.860        0.510        0.059       94.712       13.970        0.022      335.536        6.235      868.178
11/05/2013  20:53:00      -88.846      -33.090       -8.082       17.499       28.934       13.648      306.213      837.205      186.278        0.519        0.066       94.808        8.776        0.009      335.497        6.171      868.207
11/05/2013  20:54:00     -103.803      -14.110      -15.790       21.862       17.932       16.999      477.940      321.567      288.961        0.616        0.054      104.757       10.923        0.011      335.391        5.993      868.227
11/05/2013  20:55:00      -91.125      -19.074       -4.140       35.446       30.031       23.621     1256.446      901.871      557.965        0.570        0.136       93.100       24.526        0.069      335.280        5.807      868.248
11/05/2013  20:56:00     -136.942      -11.281      -18.195       32.635       25.977       20.540     1065.067      674.791      421.898        1.069        0.108      137.406       16.348        0.014      335.286        5.817      868.276
11/05/2013  20:57:00     -130.512      -55.880       -9.075       43.827       36.740       26.132     1920.828     1349.824      682.859        1.210        0.198      141.972       20.746        0.021      335.240        5.740      868.282
11/05/2013  20:58:00      -59.892      -29.879       -3.556       55.949       37.853       27.800     3130.260     1432.839      772.825        0.491        0.267       66.931       27.781        0.172      335.256        5.768      868.296
11/05/2013  20:59:00      -29.300      -26.542        4.846       39.262       29.402       22.648     1541.524      864.451      512.933        0.225        0.146       39.534       22.432        0.322      335.215        5.699      868.305
11/05/2013  21:00:00      -81.857      -12.186        2.319       57.575       33.736       22.038     3314.913     1138.093      485.671        0.590        0.247       82.759       19.991        0.058      335.191        5.659      868.306
11/05/2013  21:01:00      -86.467      -30.750      -11.176       29.381       33.212       19.214      863.217     1103.005      369.167        0.544        0.117       91.772       15.408        0.028      335.245        5.750      868.324
11/05/2013  21:02:00      -87.333       -8.514       -0.406       65.460       44.563       26.647     4285.062     1985.856      710.082        0.734        0.349       87.747       30.606        0.122      335.148        5.589      868.328
11/05/2013  21:03:00      -47.872       15.832       -8.449       41.766       30.181       16.528     1744.422      910.891      273.182        0.277        0.146       50.422       12.594        0.062      335.144        5.581      868.330
11/05/2013  21:04:00      -60.535        2.901       -9.272       38.406       29.417       24.029     1474.987      865.343      577.416        0.334        0.146       60.604       20.685        0.116      335.197        5.672      868.351
11/05/2013  21:05:00      -62.186       12.520      -10.709       31.775       24.167       16.043     1009.666      584.024      257.388        0.299        0.093       63.434       14.657        0.053      335.235        5.733      868.360
11/05/2013  21:06:00      -94.232       -3.550      -14.516       37.943       31.240       19.139     1439.659      975.922      366.299        0.594        0.139       94.298       12.147        0.017      335.227        5.719      868.373
11/05/2013  21:07:00     -114.167      -12.761      -12.935       62.122       40.493       27.975     3859.158     1639.697      782.614        0.982        0.314      114.878       26.411        0.053      335.179        5.641      868.388
11/05/2013  21:08:00      -84.343      -10.124      -10.855       32.352       32.724       20.725     1046.622     1070.861      429.517        0.494        0.127       84.949       12.627        0.022      335.180        5.644      868.395
11/05/2013  21:09:00      -62.156      -10.510       -7.206       30.408       25.768       23.658      924.653      663.999      559.682        0.309        0.107       63.038       20.435        0.105      335.214        5.698      868.393
11/05/2013  21:10:00      -77.606      -24.697      -13.967       22.882       25.162       15.394      523.605      633.133      236.980        0.411        0.070       81.441        8.088        0.010      335.237        5.738      868.401
11/05/2013  21:11:00      -70.508       -5.817       -9.771       37.185       20.491       16.718     1382.726      419.897      279.503        0.359        0.104       70.747       18.276        0.067      335.242        5.744      868.405
11/05/2013  21:12:00     -101.902       -2.780      -17.417       20.664       16.246       15.026      426.984      263.941      225.774        0.581        0.046      101.940       11.026        0.012      335.235        5.733      868.407
11/05/2013  21:13:00      -80.027      -14.159       -8.818       24.851       26.501       18.792      617.589      702.323      353.146        0.418        0.084       81.270       15.338        0.036      335.219        5.707      868.417
11/05/2013  21:14:00      -81.444      -31.299      -12.684       14.710       17.882       11.579      216.375      319.750      134.079        0.422        0.034       87.251        8.338        0.009      335.326        5.884      868.411
11/05/2013  21:15:00      -73.909      -29.003      -11.862       19.611       17.099       14.303      384.575      292.376      204.563        0.366        0.044       79.395        7.523        0.009      335.364        5.948      868.410
11/05/2013  21:16:00      -65.347      -49.509      -12.747       14.942       20.584       15.699      223.254      423.713      246.470        0.389        0.045       81.984        6.623        0.007      335.355        5.934      868.415
11/05/2013  21:17:00      -84.830      -26.510      -13.380       12.587       16.644       10.794      158.425      277.007      116.518        0.431        0.028       88.875        5.310        0.004      335.361        5.944      868.418
11/05/2013  21:18:00      -93.624      -39.530      -12.551       15.209       10.415       10.634      231.315      108.465      113.074        0.547        0.023      101.627        6.928        0.005      335.284        5.814      868.425
11/05/2013  21:19:00     -104.225      -35.937       -9.163       15.837       13.435       10.325      250.811      180.510      106.598        0.639        0.027      110.247        6.591        0.004      335.333        5.897      868.435
11/05/2013  21:20:00      -78.580      -50.902       -6.286       22.973       21.030       14.978      527.743      442.241      224.335        0.500        0.060       93.627       14.011        0.022      335.283        5.813      868.437
11/05/2013  21:21:00     -107.967      -36.545       -7.760       21.896       14.335       14.098      479.415      205.500      198.760        0.697        0.044      113.984       11.395        0.010      335.352        5.928      868.453
11/05/2013  21:22:00      -98.791      -34.557       -4.359       17.596       16.418       11.782      309.630      269.547      138.808        0.585        0.036      104.660        7.689        0.005      335.356        5.935      868.451
11/05/2013  21:23:00      -53.645      -36.039        3.315       34.988       17.635       17.153     1224.130      310.991      294.219        0.301        0.091       64.626       17.291        0.072      335.370        5.956      868.455
11/05/2013  21:24:00      -38.711      -26.438        3.949       29.205       19.806       14.384      852.943      392.279      206.885        0.183        0.073       46.878       16.876        0.130      335.365        5.951      868.475
11/05/2013  21:25:00      -69.637      -29.967        2.476       39.983       17.552       12.690     1598.638      308.083      161.024        0.391        0.103       75.811       12.786        0.028      335.377        5.970      868.498
11/05/2013  21:26:00      -26.550      -35.234        5.077       32.305       19.320       18.455     1043.613      373.257      340.589        0.186        0.088       44.118       15.108        0.117      335.284        5.815      868.512
11/05/2013  21:27:00      -78.123      -73.711       -1.376       32.972       39.309       18.836     1087.158     1545.165      354.794        0.726        0.149      107.408       16.378        0.023      335.335        5.900      868.534
11/05/2013  21:28:00      -82.439      -52.039        0.887       30.545       27.201       24.118      933.013      739.912      581.672        0.588        0.113       97.490       13.173        0.018      335.279        5.807      868.563
11/05/2013  21:29:00      -95.317      -96.536       -7.597       26.137       37.131       21.126      683.167     1378.734      446.293        1.048        0.125      135.663        8.135        0.004      335.268        5.789      868.587
11/05/2013  21:30:00      -89.843      -46.287       -0.053       29.872       29.194       19.734      892.363      852.303      389.417        0.617        0.107      101.066        7.362        0.005      335.276        5.800      868.608
11/05/2013  21:31:00      -49.718      -34.715        6.608       39.123       32.626       19.269     1530.576     1064.476      371.302        0.334        0.148       60.639       18.884        0.097      335.223        5.712      868.638
11/05/2013  21:32:00      -68.076      -71.980       -1.387       29.105       36.724       21.753      847.129     1348.617      473.188        0.624        0.133       99.073       14.429        0.021      335.206        5.686      868.660
11/05/2013  21:33:00      -58.299      -35.880        4.118       46.693       25.243       21.540     2180.230      637.191      463.965        0.399        0.164       68.455       14.025        0.042      335.150        5.593      868.673
11/05/2013  21:34:00      -74.012      -37.267       12.873       40.622       26.147       23.716     1650.143      683.674      562.462        0.496        0.145       82.865       22.497        0.074      335.188        5.656      868.682
11/05/2013  21:35:00      -47.140      -49.281        5.521       46.114       32.743       22.945     2126.537     1072.111      526.483        0.420        0.186       68.196       19.920        0.085      335.150        5.593      868.714
11/05/2013  21:36:00      -97.463      -78.878        2.048       38.152       33.808       19.934     1455.574     1142.971      397.354        0.936        0.150      125.383       21.823        0.030      335.141        5.579      868.728
11/05/2013  21:37:00      -73.050      -49.338        2.599       54.051       26.902       19.801     2921.503      723.732      392.074        0.591        0.202       88.151       18.323        0.043      335.159        5.608      868.741
11/05/2013  21:38:00      -93.890      -42.426        8.170       45.297       28.504       23.196     2051.801      812.471      538.068        0.704        0.170      103.030       23.279        0.051      335.064        5.450      868.747
11/05/2013  21:39:00      -65.271      -46.271       11.871       48.663       29.290       25.375     2368.047      857.881      643.878        0.521        0.193       80.008       25.835        0.104      335.054        5.434      868.761
11/05/2013  21:40:00      -76.806      -52.343        8.695       46.296       29.142       24.483     2143.283      849.254      599.425        0.615        0.180       92.946       22.910        0.061      335.038        5.407      868.767
11/05/2013  21:41:00      -66.075      -45.033        6.812       48.611       28.650       26.677     2363.001      820.849      711.663        0.517        0.195       79.962       27.177        0.116      335.047        5.422      868.759
11/05/2013  21:42:00      -58.429      -41.338        6.035       52.849       33.642       23.557     2793.014     1131.758      554.909        0.482        0.224       71.574       26.608        0.138      335.058        5.441      868.751
11/05/2013  21:43:00      -35.671      -37.203        9.846       45.994       24.942       19.173     2115.481      622.082      367.615        0.293        0.155       51.541       20.716        0.162      335.121        5.544      868.750
11/05/2013  21:44:00      -60.532      -39.747        3.039       32.340       22.421       20.701     1045.907      502.688      428.542        0.361        0.099       72.415       16.457        0.052      335.080        5.477      868.759
11/05/2013  21:45:00      -46.772      -34.977        9.494       42.650       31.273       22.561     1818.998      978.009      508.982        0.340        0.165       58.404       19.840        0.115      335.077        5.472      868.756
11/05/2013  21:46:00      -66.685      -47.329        4.111       30.542       20.724       20.670      932.818      429.481      427.234        0.425        0.089       81.774       15.630        0.037      335.030        5.394      868.751
11/05/2013  21:47:00      -45.360      -32.773        7.401       43.888       28.373       20.209     1926.175      805.034      408.419        0.316        0.157       55.961       21.541        0.148      335.056        5.437      868.744
11/05/2013  21:48:00      -68.374      -35.848       -3.632       22.058       14.185       12.939      486.543      201.209      167.421        0.341        0.043       77.202       10.766        0.019      335.036        5.403      868.724
11/05/2013  21:49:00      -74.543      -23.879      -11.329       10.333        9.794        7.416      106.768       95.913       55.003        0.326        0.013       78.274        2.569        0.001      335.018        5.374      868.702
11/05/2013  21:50:00      -67.545      -24.282       -4.180       10.901       10.580        6.600      118.824      111.945       43.565        0.272        0.014       71.777        3.535        0.002      335.055        5.435      868.700
11/05/2013  21:51:00      -58.796      -33.168      -10.837       14.652        9.203        8.564      214.695       84.687       73.335        0.252        0.019       67.506        5.624        0.007      335.061        5.446      868.683
11/05/2013  21:52:00      -75.907      -30.520       -7.838        6.257        8.109        9.118       39.148       65.749       83.141        0.347        0.009       81.813        5.157        0.004      335.083        5.484      868.658
11/05/2013  21:53:00      -62.749      -33.794        1.981       29.733       12.861       13.016      884.053      165.410      169.424        0.315        0.061       71.270       13.773        0.037      335.027        5.389      868.640
11/05/2013  21:54:00      -54.353      -28.269        3.966       28.307       18.180       15.567      801.278      330.498      242.320        0.257        0.069       61.265       17.399        0.081      334.986        5.321      868.627
11/05/2013  21:55:00      -89.787      -49.877       -2.231       24.073       12.588       15.430      579.530      158.470      238.082        0.577        0.049      102.710       14.767        0.021      334.914        5.201      868.636
11/05/2013  21:56:00      -47.576      -35.594        4.609       39.397       28.406       22.024     1552.152      806.891      485.058        0.320        0.142       59.417       21.780        0.134      334.879        5.144      868.647
11/05/2013  21:57:00     -106.220      -62.509       -1.350       31.536       23.857       17.571      994.546      569.159      308.757        0.853        0.094      123.248       13.288        0.012      334.867        5.123      868.667
11/05/2013  21:58:00     -116.400      -49.735       -2.277       27.620       21.311       14.396      762.840      454.174      207.238        0.873        0.071      126.580       12.833        0.010      334.803        5.016      868.688
11/05/2013  21:59:00     -112.534      -71.899       -2.865       31.707       25.356       17.011     1005.362      642.905      289.382        0.989        0.097      133.542       16.581        0.015      334.786        4.988      868.711
11/05/2013  22:00:00     -119.176      -62.658      -13.253       23.222       19.482       17.231      539.274      379.554      296.897        0.976        0.061      134.644       12.308        0.008      334.669        4.794      868.744
11/05/2013  22:01:00     -112.310      -48.847       -4.828       31.032       24.345       22.489      962.987      592.691      505.752        0.854        0.103      122.473       19.178        0.025      334.676        4.805      868.765
11/05/2013  22:02:00     -111.969      -46.198        1.814       42.646       28.217       19.714     1818.671      796.178      388.660        0.884        0.150      121.125       19.335        0.025      334.678        4.809      868.788
11/05/2013  22:03:00     -118.723      -48.035       -0.649       34.505       35.865       20.743     1190.580     1286.316      430.285        0.965        0.145      128.072        9.946        0.006      334.665        4.787      868.795
11/05/2013  22:04:00     -127.473      -39.432       -3.343       33.036       41.304       23.860     1091.400     1705.982      569.304        1.059        0.168      133.433       18.705        0.020      334.660        4.778      868.801
11/05/2013  22:05:00     -132.124      -39.506       -9.706       48.507       35.985       19.310     2352.961     1294.941      372.857        1.157        0.201      137.904       13.773        0.010      334.643        4.750      868.809
11/05/2013  22:06:00     -122.341      -36.637        3.020       38.901       32.635       21.386     1513.318     1065.038      457.352        0.968        0.152      127.709       23.839        0.035      334.613        4.700      868.809
11/05/2013  22:07:00     -110.703      -53.001        3.638       47.529       30.721       19.919     2258.997      943.805      396.753        0.934        0.180      122.736       18.333        0.022      334.664        4.786      868.818
11/05/2013  22:08:00     -139.945      -45.874       -6.658       19.392       23.966       15.215      376.043      574.345      231.491        1.146        0.059      147.272        9.935        0.005      334.586        4.656      868.825
11/05/2013  22:09:00     -170.889      -31.320      -15.779       39.139       24.730       21.127     1531.854      611.561      446.348        1.651        0.129      173.736       17.713        0.010      334.584        4.653      868.824
11/05/2013  22:10:00     -153.383      -55.036       -0.626       49.047       29.593       27.337     2405.605      875.770      747.298        1.529        0.201      162.958       26.859        0.027      334.572        4.632      868.822
11/05/2013  22:11:00     -127.260      -59.816       -5.352       44.318       26.589       22.518     1964.043      706.963      507.038        1.149        0.159      140.617       25.801        0.034      334.577        4.640      868.832
11/05/2013  22:12:00     -132.826      -54.858       -6.456       36.510       27.540       18.595     1332.990      758.447      345.761        1.157        0.122      143.708       20.105        0.020      334.601        4.681      868.855
11/05/2013  22:13:00     -136.899      -20.317       -7.649       34.929       26.304       21.013     1220.064      691.893      441.546        1.078        0.118      138.398       19.096        0.019      334.579        4.644      868.865
11/05/2013  22:14:00     -121.508       -9.091       -7.545       35.776       30.833       22.430     1279.958      950.679      503.092        0.882        0.137      121.847       19.688        0.026      334.530        4.562      868.869
11/05/2013  22:15:00     -137.319        0.286       -9.230       44.695       34.135       21.816     1997.623     1165.182      475.940        1.129        0.182      137.319       19.893        0.021      334.587        4.656      868.889
11/05/2013  22:16:00     -104.347        3.373      -10.880       53.060       39.512       25.447     2815.384     1561.218      647.540        0.802        0.251      104.402       21.272        0.042      334.631        4.730      868.895
11/05/2013  22:17:00     -113.170       -2.903      -11.353       37.131       42.027       22.679     1378.739     1766.284      514.335        0.830        0.183      113.207       18.411        0.026      334.635        4.737      868.894
11/05/2013  22:18:00     -113.677       18.262       -3.993       59.911       47.256       29.813     3589.329     2233.104      888.813        0.999        0.336      115.135       32.052        0.077      334.611        4.697      868.893
11/05/2013  22:19:00     -117.008       41.141      -14.952       47.892       35.403       22.375     2293.653     1253.387      500.655        0.983        0.202      124.030       21.883        0.031      334.560        4.613      868.900
11/05/2013  22:20:00     -102.011       22.296       -6.294       65.752       32.579       26.232     4323.360     1061.413      688.100        0.851        0.304      104.419       28.732        0.076      334.602        4.683      868.898
11/05/2013  22:21:00      -90.074        6.524      -12.839       49.655       35.517       22.406     2465.644     1261.446      502.032        0.627        0.211       90.310       23.524        0.068      334.558        4.610      868.891
11/05/2013  22:22:00      -80.792      -26.892      -15.947       29.337       28.827       25.147      860.654      831.019      632.361        0.491        0.116       85.150        9.643        0.013      334.544        4.587      868.894
11/05/2013  22:23:00      -56.302      -20.745       -6.567       39.887       38.562       21.261     1591.007     1486.992      452.041        0.359        0.177       60.002       12.844        0.046      334.449        4.429      868.910
11/05/2013  22:24:00      -68.090      -27.009      -11.400       48.505       42.557       24.473     2352.716     1811.079      598.913        0.513        0.238       73.252       17.449        0.057      334.473        4.468      868.919
11/05/2013  22:25:00      -69.541      -22.542      -18.677       37.035       32.310       23.279     1371.598     1043.922      541.912        0.432        0.148       73.103       21.112        0.083      334.458        4.445      868.928
11/05/2013  22:26:00      -51.027       -9.571      -11.716       17.701       15.906       17.874      313.339      252.991      319.466        0.186        0.044       51.917        6.699        0.017      334.479        4.479      868.937
11/05/2013  22:27:00      -40.563       -9.416       -9.611       16.629       18.785       14.505      276.525      352.880      210.387        0.133        0.042       41.642        9.830        0.056      334.612        4.700      868.929
11/05/2013  22:28:00      -24.635       -9.829        1.723       20.657       10.804        9.966      426.699      116.735       99.321        0.067        0.032       26.524        7.506        0.080      334.763        4.951      868.939
11/05/2013  22:29:00      -30.435      -11.500       -6.514       13.399       10.804        8.918      179.524      116.737       79.526        0.074        0.019       32.535        8.150        0.063      334.748        4.927      868.955
11/05/2013  22:30:00      -40.013      -15.592      -10.421       15.842       15.970       11.372      250.984      255.046      129.333        0.129        0.032       42.943        7.950        0.034      334.776        4.972      868.961
11/05/2013  22:31:00      -34.334      -26.220       -2.937       10.799       11.029        9.366      116.616      121.629       87.726        0.110        0.016       43.201        7.676        0.032      334.634        4.736      868.952
11/05/2013  22:32:00      -44.418      -27.866        1.141       22.964       11.449       13.927      527.356      131.072      193.967        0.180        0.043       52.435       14.344        0.075      334.491        4.499      868.942
11/05/2013  22:33:00      -69.829      -41.657      -15.953        8.997        7.670        8.462       80.941       58.833       71.614        0.354        0.011       81.310        4.108        0.003      334.435        4.405      868.920
11/05/2013  22:34:00      -76.149      -36.688      -19.525       12.417       10.528        8.460      154.190      110.835       71.566        0.393        0.017       84.526        5.836        0.005      334.361        4.282      868.896
11/05/2013  22:35:00      -79.637      -16.413      -14.314       13.777       15.003       12.881      189.810      225.080      165.933        0.370        0.029       81.311        9.090        0.012      334.282        4.153      868.885
11/05/2013  22:36:00      -85.560      -19.362      -10.779       20.801       15.629       12.274      432.702      244.278      150.651        0.432        0.041       87.724       10.226        0.014      334.325        4.224      868.876
11/05/2013  22:37:00      -97.200      -13.458      -18.554       10.243       11.531        8.236      104.926      132.972       67.825        0.514        0.015       98.127        6.477        0.004      334.267        4.127      868.868
11/05/2013  22:38:00      -83.693      -22.564      -13.605       11.929       12.746       13.425      142.307      162.458      180.228        0.409        0.024       86.682        8.517        0.010      334.264        4.122      868.858
11/05/2013  22:39:00      -88.098      -31.673      -13.188       15.913       20.722       12.190      253.212      429.395      148.602        0.488        0.042       93.619        9.198        0.010      334.304        4.189      868.851
11/05/2013  22:40:00     -111.145      -47.473      -17.009       16.994       17.442       10.981      288.810      304.225      120.579        0.780        0.036      120.859        3.863        0.001      334.313        4.205      868.851
11/05/2013  22:41:00     -151.253      -63.457       -9.958       13.588       14.496       11.081      184.629      210.128      122.784        1.376        0.026      164.025        7.252        0.002      334.374        4.306      868.869
11/05/2013  22:42:00     -110.392      -79.779       -3.843       35.081       25.847       17.511     1230.702      668.059      306.631        1.039        0.110      136.202       11.724        0.007      334.388        4.329      868.879
11/05/2013  22:43:00     -104.017      -68.633       -2.470       52.570       34.625       27.474     2763.656     1198.859      754.803        1.013        0.236      124.619       29.036        0.054      334.365        4.290      868.889
11/05/2013  22:44:00      -80.726      -50.955        3.131       33.972       28.320       21.094     1154.067      802.017      444.970        0.576        0.120       95.462       13.738        0.021      334.380        4.315      868.892
11/05/2013  22:45:00      -97.215      -47.556       -3.647       19.222       18.341       11.930      369.481      336.395      142.326        0.629        0.042      108.223        7.885        0.005      334.345        4.256      868.890
11/05/2013  22:46:00      -94.021      -33.331       -3.315       18.891       16.343       12.074      356.887      267.098      145.774        0.537        0.038       99.755        9.980        0.010      334.249        4.098      868.901
11/05/2013  22:47:00      -73.657      -31.469        0.785       29.638       21.619       18.404      878.394      467.360      338.697        0.405        0.084       80.098       15.527        0.038      334.223        4.053      868.895
11/05/2013  22:48:00     -105.319      -35.898       -0.460       25.889       16.042       14.403      670.257      257.354      207.437        0.676        0.057      111.269       12.651        0.013      334.178        3.978      868.886
11/05/2013  22:49:00     -105.960      -39.058       -1.873       31.624       23.067       15.275     1000.077      532.066      233.334        0.726        0.088      112.929       14.261        0.016      334.220        4.049      868.876
11/05/2013  22:50:00      -90.397      -22.850        1.717       31.145       22.794       16.371      970.039      519.570      268.020        0.523        0.088       93.240       17.040        0.033      334.200        4.017      868.888
11/05/2013  22:51:00     -100.334      -21.560        1.981       29.499       19.827       16.252      870.198      393.104      264.131        0.603        0.076      102.625       17.442        0.029      334.212        4.035      868.900
11/05/2013  22:52:00      -81.623      -27.411        0.931       32.633       20.007       16.458     1064.892      400.291      270.856        0.457        0.087       86.102       16.503        0.037      334.259        4.113      868.905
11/05/2013  22:53:00      -57.459      -39.622        2.816       29.036       14.321       13.154      843.096      205.088      173.038        0.305        0.061       69.795       12.564        0.032      334.223        4.056      868.904
11/05/2013  22:54:00      -46.593      -30.938        0.897       30.418       16.570       11.826      925.275      274.580      139.850        0.223        0.067       55.929       13.766        0.061      334.241        4.084      868.903
11/05/2013  22:55:00      -64.074      -29.632       -7.609       15.101       18.478        7.596      228.037      341.437       57.696        0.283        0.031       70.594        6.998        0.010      334.301        4.184      868.903
11/05/2013  22:56:00      -87.191       -3.569       -9.111       18.229        9.293       10.598      332.301       86.352      112.319        0.411        0.027       87.264       11.659        0.018      334.309        4.197      868.896
11/05/2013  22:57:00      -97.937        7.413      -14.115        9.443       11.187        9.654       89.173      125.154       93.202        0.508        0.015       98.217        2.732        0.001      334.272        4.136      868.898
11/05/2013  22:58:00     -118.349       -1.144      -19.001       15.172       17.284       11.573      230.184      298.725      133.930        0.752        0.033      118.355        8.051        0.005      334.238        4.079      868.906
11/05/2013  22:59:00      -92.198      -14.377      -13.780       25.345       16.680       11.900      642.388      278.226      141.611        0.498        0.053       93.312        9.667        0.011      334.141        3.917      868.915
11/05/2013  23:00:00      -85.231       -7.956      -10.249       23.406       16.538       14.889      547.860      273.491      221.696        0.424        0.052       85.601       13.564        0.025      334.085        3.825      868.906
11/05/2013  23:01:00      -89.830       -9.785      -10.831       14.634       17.745       11.148      214.145      314.869      124.281        0.447        0.033       90.361       10.772        0.014      334.027        3.730      868.893
11/05/2013  23:02:00      -86.094      -26.537      -11.117       17.832       23.476        9.912      317.974      551.124       98.245        0.460        0.048       90.091        8.158        0.008      334.013        3.706      868.896
11/05/2013  23:03:00     -101.054      -43.436      -21.209       22.045       22.337       10.763      485.992      498.963      115.839        0.682        0.055      109.993        7.172        0.004      333.936        3.578      868.900
11/05/2013  23:04:00     -106.563      -39.266      -15.292       15.729       15.842       10.880      247.394      250.958      118.368        0.687        0.031      113.567        8.022        0.005      333.918        3.548      868.895
11/05/2013  23:05:00      -95.825      -35.081      -15.062       12.684       13.687       10.030      160.890      187.328      100.600        0.554        0.022      102.045        6.363        0.004      333.920        3.552      868.889
11/05/2013  23:06:00      -98.752      -24.556      -11.825       13.339       11.341        8.915      177.916      128.614       79.484        0.544        0.019      101.760        6.790        0.004      333.908        3.532      868.879
11/05/2013  23:07:00      -95.344      -36.343      -14.983       14.793       15.453       11.013      218.826      238.788      121.282        0.561        0.029      102.036        6.923        0.005      333.889        3.501      868.874
11/05/2013  23:08:00     -113.910      -27.314      -20.849        7.934       11.423        6.312       62.952      130.479       39.844        0.719        0.012      117.139        1.942        0.000      333.849        3.433      868.875
11/05/2013  23:09:00     -107.964      -23.904      -19.767       14.000       13.423        8.093      196.005      180.174       65.494        0.653        0.022      110.579        4.492        0.002      333.839        3.419      868.861
11/05/2013  23:10:00     -113.847      -19.692      -15.827       16.576       12.156       11.924      274.776      147.771      142.183        0.708        0.028      115.537        9.171        0.006      333.929        3.566      868.859
11/05/2013  23:11:00     -100.437      -22.522      -16.490       22.986       10.344       10.705      528.340      107.006      114.600        0.581        0.037      102.931        8.813        0.007      333.928        3.565      868.865
11/05/2013  23:12:00     -123.149      -34.982      -14.915       17.679       11.764       10.690      312.537      138.392      114.278        0.859        0.028      128.021        8.623        0.005      333.899        3.516      868.895
11/05/2013  23:13:00     -114.794      -31.846      -12.718       23.920       18.243       14.679      572.166      332.815      215.479        0.774        0.056      119.130       12.420        0.011      333.943        3.589      868.913
11/05/2013  23:14:00     -119.408      -49.257      -11.040       14.602       12.726       10.375      213.212      161.957      107.636        0.864        0.024      129.169        4.769        0.001      334.006        3.694      868.930
11/05/2013  23:15:00     -104.287      -26.543      -11.734       18.633       17.392       11.359      347.180      302.483      129.018        0.625        0.039      107.612       10.142        0.009      333.962        3.622      868.945
11/05/2013  23:16:00     -121.389      -28.566      -15.237       12.797       11.608       10.620      163.752      134.753      112.794        0.810        0.021      124.705        7.715        0.004      333.865        3.459      868.970
11/05/2013  23:17:00     -108.904      -28.614      -13.200       15.865       13.330       12.655      251.704      177.702      160.156        0.672        0.029      112.600        9.384        0.007      333.935        3.577      868.980
11/05/2013  23:18:00     -100.793      -31.440       -7.492       21.314       13.057       10.780      454.297      170.479      116.203        0.597        0.037      105.583       10.194        0.009      333.907        3.530      868.983
11/05/2013  23:19:00      -98.445      -35.983       -9.981       13.864       16.064       11.181      192.203      258.063      125.006        0.583        0.029      104.815        8.212        0.006      333.908        3.532      868.993
11/05/2013  23:20:00     -111.269      -32.656      -13.750       11.723       11.010       11.154      137.421      121.217      124.407        0.701        0.019      115.962        7.018        0.004      333.893        3.508      869.009
11/05/2013  23:21:00     -105.943      -31.664      -13.488       14.946       15.603       12.735      223.374      243.458      162.191        0.652        0.031      110.573        9.268        0.007      333.896        3.511      869.008
11/05/2013  23:22:00      -90.957      -31.476       -7.320       18.317       16.006       13.760      335.498      256.206      189.351        0.505        0.039       96.249       10.470        0.012      333.948        3.598      869.003
11/05/2013  23:23:00     -111.135      -36.776      -14.796       18.648       17.430        9.411      347.756      303.809       88.574        0.733        0.037      117.062        6.160        0.003      333.880        3.484      869.002
11/05/2013  23:24:00      -92.647      -39.240      -11.053       22.042       20.249       10.930      485.845      410.021      119.465        0.563        0.051      100.614        9.778        0.009      333.865        3.460      868.999
11/05/2013  23:25:00      -78.895      -52.553      -12.395       26.560       19.160       14.034      705.408      367.119      196.944        0.520        0.063       94.795       12.380        0.017      333.882        3.488      868.980
11/05/2013  23:26:00      -89.279      -43.479      -19.209       20.507       24.100       14.778      420.552      580.830      218.394        0.572        0.061       99.303       11.944        0.014      333.887        3.497      868.963
11/05/2013  23:27:00     -100.189      -48.088      -10.984       19.362       23.362       12.012      374.897      545.805      144.287        0.677        0.053      111.132       11.379        0.010      333.919        3.550      868.960
11/05/2013  23:28:00     -130.256      -34.290      -16.379       12.242       13.535        8.635      149.865      183.199       74.565        0.941        0.020      134.694        5.790        0.002      333.828        3.399      868.966
11/05/2013  23:29:00     -129.268      -30.141      -20.031       15.064       15.466       14.738      226.910      239.207      217.221        0.935        0.034      132.736        4.738        0.001      333.805        3.360      868.972
11/05/2013  23:30:00     -126.991      -40.052      -18.777       14.888       18.110        9.905      221.666      327.978       98.111        0.937        0.032      133.158        9.278        0.005      333.734        3.244      868.982
11/05/2013  23:31:00      -97.776      -45.578      -14.259       15.110       12.543       10.856      228.305      157.331      117.850        0.617        0.025      107.877        8.699        0.007      333.692        3.172      868.989
11/05/2013  23:32:00      -84.942      -57.105      -13.772       23.887       18.801       17.349      570.606      353.487      300.987        0.595        0.061      102.353       11.486        0.013      333.728        3.233      869.001
11/05/2013  23:33:00     -118.897      -24.648      -10.552       23.512       20.591       17.682      552.832      423.975      312.668        0.807        0.064      121.425       15.020        0.015      333.656        3.114      869.014
11/05/2013  23:34:00     -110.198      -22.939      -10.415       29.205       19.979       15.464      852.939      399.156      239.122        0.713        0.075      112.560       15.430        0.019      333.665        3.129      869.023
11/05/2013  23:35:00      -99.176      -33.555       -2.874       23.330       19.475       12.354      544.276      379.282      152.611        0.602        0.054      104.699       11.845        0.013      333.742        3.256      869.033
11/05/2013  23:36:00      -93.794      -46.042        1.437       29.841       24.977       16.982      890.470      623.858      288.378        0.636        0.090      104.485       15.531        0.022      333.714        3.210      869.057
11/05/2013  23:37:00     -116.477      -56.330        1.148       24.433       28.008       14.742      596.982      784.474      217.319        0.917        0.080      129.383       12.071        0.009      333.761        3.288      869.087
11/05/2013  23:38:00      -95.744      -56.512       -4.387       34.852       19.535       18.039     1214.693      381.609      325.390        0.715        0.096      111.178        7.599        0.005      333.701        3.187      869.100
11/05/2013  23:39:00     -105.188      -63.912       -6.335       38.881       25.035       17.876     1511.760      626.749      319.548        0.882        0.123      123.082       12.939        0.011      333.717        3.214      869.103
11/05/2013  23:40:00      -87.971      -57.796       -2.072       36.834       24.247       21.272     1356.758      587.930      452.509        0.674        0.120      105.258       14.011        0.018      333.758        3.283      869.106
11/05/2013  23:41:00     -123.689      -80.382       -2.843       33.866       24.524       20.043     1146.907      601.416      401.724        1.196        0.108      147.514       19.124        0.017      333.822        3.389      869.121
11/05/2013  23:42:00     -101.449      -81.530       -6.411       43.956       25.199       19.558     1932.107      634.965      382.528        0.996        0.147      130.150       18.834        0.021      333.899        3.516      869.131
11/05/2013  23:43:00     -104.578      -71.197       -4.638       25.579       25.947       20.720      654.282      673.246      429.338        0.889        0.088      126.513       10.238        0.007      333.928        3.564      869.133
11/05/2013  23:44:00      -77.627      -36.913        3.380       37.731       25.079       23.728     1423.610      628.945      563.004        0.501        0.131       85.957       21.494        0.063      333.933        3.574      869.127
11/05/2013  23:45:00      -92.527      -54.081       -1.888       24.873       23.122       17.788      618.653      534.618      316.410        0.648        0.073      107.173       12.648        0.014      333.938        3.581      869.135
11/05/2013  23:46:00     -102.861      -34.503       -3.899       20.363       18.077       14.229      414.634      326.785      202.460        0.636        0.047      108.494       10.060        0.009      333.964        3.625      869.134
11/05/2013  23:47:00      -72.673      -38.528        1.172       22.541       22.912       14.368      508.119      524.958      206.436        0.400        0.062       82.254       14.294        0.030      333.945        3.595      869.131
11/05/2013  23:48:00      -87.104      -32.445       -6.031       13.196       11.933        7.817      174.132      142.404       61.104        0.453        0.019       92.950        1.715        0.000      334.003        3.689      869.132
11/05/2013  23:49:00      -85.425      -13.851       -9.772       25.417       17.423       10.369      646.006      303.553      107.506        0.432        0.053       86.541       10.094        0.014      333.905        3.527      869.150
11/05/2013  23:50:00     -127.811       18.654       -8.858       40.977       26.802       20.194     1679.090      718.355      407.809        0.978        0.140      129.166       22.917        0.031      333.948        3.598      869.160
11/05/2013  23:51:00     -131.125       35.721       -9.282       40.022       27.483       17.156     1601.752      755.315      294.314        1.060        0.133      135.903       16.685        0.015      334.040        3.749      869.163
11/05/2013  23:52:00      -97.443       12.599       -7.273       26.922       30.430       19.599      724.818      926.002      384.140        0.587        0.102       98.254       14.947        0.023      334.035        3.743      869.158
11/05/2013  23:53:00      -61.621       -7.915       -6.360       34.792       19.415       18.495     1210.483      376.940      342.066        0.291        0.096       62.127       13.775        0.049      334.104        3.856      869.150
11/05/2013  23:54:00      -46.209       -9.832      -10.376       14.650       12.021        9.067      214.636      144.504       82.213        0.139        0.022       47.243        6.149        0.017      334.028        3.731      869.138
11/05/2013  23:55:00      -69.142      -23.423       -7.354       15.255       16.843       11.308      232.705      283.698      127.868        0.301        0.032       73.002        9.729        0.018      333.873        3.475      869.122
11/05/2013  23:56:00      -68.859      -27.109      -13.036        6.191        9.936        7.606       38.323       98.730       57.847        0.292        0.010       74.003        3.955        0.003      333.724        3.228      869.093
11/05/2013  23:57:00      -60.773      -27.557      -13.903       10.133        8.208        6.312      102.684       67.372       39.845        0.243        0.010       66.729        5.955        0.008      333.747        3.264      869.080
11/05/2013  23:58:00      -53.929      -33.406      -10.548        8.257        7.744        6.854       68.181       59.973       46.975        0.216        0.009       63.438        4.315        0.005      333.806        3.362      869.084
11/05/2013  23:59:00      -53.258      -31.324       -9.863       11.873        7.035        8.453      140.968       49.495       71.459        0.209        0.013       61.787        4.083        0.004      333.862        3.456      869.097
